<?xml version="1.0" encoding="UTF-8" standalone="no" ?>
<gpx xmlns="http://www.topografix.com/GPX/1/1" xmlns:xsi="http://www.w3.org/2001/XMLSchema-instance" xsi:schemaLocation="http://www.topografix.com/GPX/1/1 http://www.topografix.com/GPX/1/1/gpx.xsd" version="1.1" creator="VisuGPX - https://www.visugpx.com">
  <metadata>
    <name>12377542-100 cols _2</name>
  </metadata>
  <trk>
    <name><![CDATA[12377542-100 cols _2]]></name>
    <trkseg>
      <trkpt lat="43.12508" lon="1.17456">
        <ele>303</ele>
        <time>2021-01-29T12:31:20Z</time>
      </trkpt>
      <trkpt lat="43.12461" lon="1.17418">
        <ele>305</ele>
        <time>2021-01-29T12:31:30Z</time>
      </trkpt>
      <trkpt lat="43.12447" lon="1.17407">
        <ele>307</ele>
        <time>2021-01-29T12:31:33Z</time>
      </trkpt>
      <trkpt lat="43.12442" lon="1.17406">
        <ele>308</ele>
        <time>2021-01-29T12:31:33Z</time>
      </trkpt>
      <trkpt lat="43.12434" lon="1.17412">
        <ele>308</ele>
        <time>2021-01-29T12:31:35Z</time>
      </trkpt>
      <trkpt lat="43.12315" lon="1.17577">
        <ele>316</ele>
        <time>2021-01-29T12:32:05Z</time>
      </trkpt>
      <trkpt lat="43.12242" lon="1.1769">
        <ele>321</ele>
        <time>2021-01-29T12:32:25Z</time>
      </trkpt>
      <trkpt lat="43.12192" lon="1.17743">
        <ele>320</ele>
        <time>2021-01-29T12:32:36Z</time>
      </trkpt>
      <trkpt lat="43.12115" lon="1.17802">
        <ele>320</ele>
        <time>2021-01-29T12:32:52Z</time>
      </trkpt>
      <trkpt lat="43.11844" lon="1.1802">
        <ele>328</ele>
        <time>2021-01-29T12:33:48Z</time>
      </trkpt>
      <trkpt lat="43.11825" lon="1.18031">
        <ele>328</ele>
        <time>2021-01-29T12:33:51Z</time>
      </trkpt>
      <trkpt lat="43.11807" lon="1.18038">
        <ele>328</ele>
        <time>2021-01-29T12:33:55Z</time>
      </trkpt>
      <trkpt lat="43.11764" lon="1.18027">
        <ele>330</ele>
        <time>2021-01-29T12:34:02Z</time>
      </trkpt>
      <trkpt lat="43.1174" lon="1.18008">
        <ele>334</ele>
        <time>2021-01-29T12:34:07Z</time>
      </trkpt>
      <trkpt lat="43.11718" lon="1.17985">
        <ele>339</ele>
        <time>2021-01-29T12:34:12Z</time>
      </trkpt>
      <trkpt lat="43.117" lon="1.17946">
        <ele>342</ele>
        <time>2021-01-29T12:34:18Z</time>
      </trkpt>
      <trkpt lat="43.11688" lon="1.17862">
        <ele>341</ele>
        <time>2021-01-29T12:34:29Z</time>
      </trkpt>
      <trkpt lat="43.11691" lon="1.17831">
        <ele>341</ele>
        <time>2021-01-29T12:34:33Z</time>
      </trkpt>
      <trkpt lat="43.1169" lon="1.17805">
        <ele>343</ele>
        <time>2021-01-29T12:34:37Z</time>
      </trkpt>
      <trkpt lat="43.11686" lon="1.17785">
        <ele>343</ele>
        <time>2021-01-29T12:34:40Z</time>
      </trkpt>
      <trkpt lat="43.11671" lon="1.1777">
        <ele>342</ele>
        <time>2021-01-29T12:34:43Z</time>
      </trkpt>
      <trkpt lat="43.11652" lon="1.1777">
        <ele>341</ele>
        <time>2021-01-29T12:34:46Z</time>
      </trkpt>
      <trkpt lat="43.11613" lon="1.17796">
        <ele>342</ele>
        <time>2021-01-29T12:34:54Z</time>
      </trkpt>
      <trkpt lat="43.11595" lon="1.17799">
        <ele>343</ele>
        <time>2021-01-29T12:34:57Z</time>
      </trkpt>
      <trkpt lat="43.11574" lon="1.17796">
        <ele>343</ele>
        <time>2021-01-29T12:35:01Z</time>
      </trkpt>
      <trkpt lat="43.11499" lon="1.17734">
        <ele>338</ele>
        <time>2021-01-29T12:35:17Z</time>
      </trkpt>
      <trkpt lat="43.11382" lon="1.17633">
        <ele>330</ele>
        <time>2021-01-29T12:35:41Z</time>
      </trkpt>
      <trkpt lat="43.11346" lon="1.17604">
        <ele>328</ele>
        <time>2021-01-29T12:35:49Z</time>
      </trkpt>
      <trkpt lat="43.11326" lon="1.17573">
        <ele>328</ele>
        <time>2021-01-29T12:35:54Z</time>
      </trkpt>
      <trkpt lat="43.11272" lon="1.17472">
        <ele>330</ele>
        <time>2021-01-29T12:36:10Z</time>
      </trkpt>
      <trkpt lat="43.11256" lon="1.17449">
        <ele>330</ele>
        <time>2021-01-29T12:36:14Z</time>
      </trkpt>
      <trkpt lat="43.11237" lon="1.17438">
        <ele>330</ele>
        <time>2021-01-29T12:36:18Z</time>
      </trkpt>
      <trkpt lat="43.11219" lon="1.17438">
        <ele>331</ele>
        <time>2021-01-29T12:36:21Z</time>
      </trkpt>
      <trkpt lat="43.11094" lon="1.17478">
        <ele>343</ele>
        <time>2021-01-29T12:36:44Z</time>
      </trkpt>
      <trkpt lat="43.10913" lon="1.1754">
        <ele>354</ele>
        <time>2021-01-29T12:37:17Z</time>
      </trkpt>
      <trkpt lat="43.10791" lon="1.17568">
        <ele>366</ele>
        <time>2021-01-29T12:37:39Z</time>
      </trkpt>
      <trkpt lat="43.10738" lon="1.17572">
        <ele>376</ele>
        <time>2021-01-29T12:37:49Z</time>
      </trkpt>
      <trkpt lat="43.10717" lon="1.17579">
        <ele>382</ele>
        <time>2021-01-29T12:37:53Z</time>
      </trkpt>
      <trkpt lat="43.10698" lon="1.17593">
        <ele>387</ele>
        <time>2021-01-29T12:37:56Z</time>
      </trkpt>
      <trkpt lat="43.10651" lon="1.17684">
        <ele>388</ele>
        <time>2021-01-29T12:38:11Z</time>
      </trkpt>
      <trkpt lat="43.10631" lon="1.17703">
        <ele>387</ele>
        <time>2021-01-29T12:38:15Z</time>
      </trkpt>
      <trkpt lat="43.10601" lon="1.17725">
        <ele>386</ele>
        <time>2021-01-29T12:38:21Z</time>
      </trkpt>
      <trkpt lat="43.10578" lon="1.17725">
        <ele>388</ele>
        <time>2021-01-29T12:38:25Z</time>
      </trkpt>
      <trkpt lat="43.10563" lon="1.1771">
        <ele>389</ele>
        <time>2021-01-29T12:38:29Z</time>
      </trkpt>
      <trkpt lat="43.10557" lon="1.17678">
        <ele>393</ele>
        <time>2021-01-29T12:38:33Z</time>
      </trkpt>
      <trkpt lat="43.10557" lon="1.17618">
        <ele>399</ele>
        <time>2021-01-29T12:38:41Z</time>
      </trkpt>
      <trkpt lat="43.10551" lon="1.17555">
        <ele>405</ele>
        <time>2021-01-29T12:38:49Z</time>
      </trkpt>
      <trkpt lat="43.1054" lon="1.17516">
        <ele>408</ele>
        <time>2021-01-29T12:38:54Z</time>
      </trkpt>
      <trkpt lat="43.10516" lon="1.17479">
        <ele>409</ele>
        <time>2021-01-29T12:39:01Z</time>
      </trkpt>
      <trkpt lat="43.10491" lon="1.17447">
        <ele>413</ele>
        <time>2021-01-29T12:39:07Z</time>
      </trkpt>
      <trkpt lat="43.10467" lon="1.17432">
        <ele>417</ele>
        <time>2021-01-29T12:39:12Z</time>
      </trkpt>
      <trkpt lat="43.10443" lon="1.17433">
        <ele>418</ele>
        <time>2021-01-29T12:39:16Z</time>
      </trkpt>
      <trkpt lat="43.10415" lon="1.17442">
        <ele>418</ele>
        <time>2021-01-29T12:39:21Z</time>
      </trkpt>
      <trkpt lat="43.10394" lon="1.17463">
        <ele>419</ele>
        <time>2021-01-29T12:39:26Z</time>
      </trkpt>
      <trkpt lat="43.10317" lon="1.1756">
        <ele>422</ele>
        <time>2021-01-29T12:39:44Z</time>
      </trkpt>
      <trkpt lat="43.10295" lon="1.17571">
        <ele>423</ele>
        <time>2021-01-29T12:39:48Z</time>
      </trkpt>
      <trkpt lat="43.10271" lon="1.17573">
        <ele>424</ele>
        <time>2021-01-29T12:39:53Z</time>
      </trkpt>
      <trkpt lat="43.10236" lon="1.17568">
        <ele>426</ele>
        <time>2021-01-29T12:39:59Z</time>
      </trkpt>
      <trkpt lat="43.10211" lon="1.17571">
        <ele>426</ele>
        <time>2021-01-29T12:40:03Z</time>
      </trkpt>
      <trkpt lat="43.10196" lon="1.17579">
        <ele>427</ele>
        <time>2021-01-29T12:40:06Z</time>
      </trkpt>
      <trkpt lat="43.1018" lon="1.17596">
        <ele>427</ele>
        <time>2021-01-29T12:40:10Z</time>
      </trkpt>
      <trkpt lat="43.10169" lon="1.17602">
        <ele>427</ele>
        <time>2021-01-29T12:40:12Z</time>
      </trkpt>
      <trkpt lat="43.10157" lon="1.17598">
        <ele>427</ele>
        <time>2021-01-29T12:40:14Z</time>
      </trkpt>
      <trkpt lat="43.10151" lon="1.17591">
        <ele>427</ele>
        <time>2021-01-29T12:40:16Z</time>
      </trkpt>
      <trkpt lat="43.10152" lon="1.17573">
        <ele>427</ele>
        <time>2021-01-29T12:40:18Z</time>
      </trkpt>
      <trkpt lat="43.10176" lon="1.17519">
        <ele>425</ele>
        <time>2021-01-29T12:40:26Z</time>
      </trkpt>
      <trkpt lat="43.10256" lon="1.17315">
        <ele>424</ele>
        <time>2021-01-29T12:40:56Z</time>
      </trkpt>
      <trkpt lat="43.10271" lon="1.17253">
        <ele>422</ele>
        <time>2021-01-29T12:41:05Z</time>
      </trkpt>
      <trkpt lat="43.10287" lon="1.17125">
        <ele>424</ele>
        <time>2021-01-29T12:41:22Z</time>
      </trkpt>
      <trkpt lat="43.10286" lon="1.17093">
        <ele>424</ele>
        <time>2021-01-29T12:41:26Z</time>
      </trkpt>
      <trkpt lat="43.10279" lon="1.17071">
        <ele>423</ele>
        <time>2021-01-29T12:41:29Z</time>
      </trkpt>
      <trkpt lat="43.10251" lon="1.17029">
        <ele>419</ele>
        <time>2021-01-29T12:41:36Z</time>
      </trkpt>
      <trkpt lat="43.1019" lon="1.16961">
        <ele>415</ele>
        <time>2021-01-29T12:41:50Z</time>
      </trkpt>
      <trkpt lat="43.10137" lon="1.16915">
        <ele>414</ele>
        <time>2021-01-29T12:42:01Z</time>
      </trkpt>
      <trkpt lat="43.09902" lon="1.16765">
        <ele>409</ele>
        <time>2021-01-29T12:42:48Z</time>
      </trkpt>
      <trkpt lat="43.0987" lon="1.16757">
        <ele>409</ele>
        <time>2021-01-29T12:42:53Z</time>
      </trkpt>
      <trkpt lat="43.09817" lon="1.16761">
        <ele>411</ele>
        <time>2021-01-29T12:43:03Z</time>
      </trkpt>
      <trkpt lat="43.09787" lon="1.1675">
        <ele>411</ele>
        <time>2021-01-29T12:43:08Z</time>
      </trkpt>
      <trkpt lat="43.09769" lon="1.16728">
        <ele>411</ele>
        <time>2021-01-29T12:43:13Z</time>
      </trkpt>
      <trkpt lat="43.09763" lon="1.16704">
        <ele>412</ele>
        <time>2021-01-29T12:43:16Z</time>
      </trkpt>
      <trkpt lat="43.09763" lon="1.16651">
        <ele>414</ele>
        <time>2021-01-29T12:43:23Z</time>
      </trkpt>
      <trkpt lat="43.09778" lon="1.16561">
        <ele>417</ele>
        <time>2021-01-29T12:43:35Z</time>
      </trkpt>
      <trkpt lat="43.09786" lon="1.16476">
        <ele>422</ele>
        <time>2021-01-29T12:43:46Z</time>
      </trkpt>
      <trkpt lat="43.09781" lon="1.16409">
        <ele>426</ele>
        <time>2021-01-29T12:43:55Z</time>
      </trkpt>
      <trkpt lat="43.09767" lon="1.1635">
        <ele>432</ele>
        <time>2021-01-29T12:44:03Z</time>
      </trkpt>
      <trkpt lat="43.09757" lon="1.16296">
        <ele>438</ele>
        <time>2021-01-29T12:44:10Z</time>
      </trkpt>
      <trkpt lat="43.09747" lon="1.16267">
        <ele>441</ele>
        <time>2021-01-29T12:44:14Z</time>
      </trkpt>
      <trkpt lat="43.09727" lon="1.16239">
        <ele>444</ele>
        <time>2021-01-29T12:44:19Z</time>
      </trkpt>
      <trkpt lat="43.09709" lon="1.16224">
        <ele>446</ele>
        <time>2021-01-29T12:44:23Z</time>
      </trkpt>
      <trkpt lat="43.09681" lon="1.16208">
        <ele>449</ele>
        <time>2021-01-29T12:44:28Z</time>
      </trkpt>
      <trkpt lat="43.09654" lon="1.16212">
        <ele>447</ele>
        <time>2021-01-29T12:44:33Z</time>
      </trkpt>
      <trkpt lat="43.09625" lon="1.16213">
        <ele>445</ele>
        <time>2021-01-29T12:44:38Z</time>
      </trkpt>
      <trkpt lat="43.09474" lon="1.16133">
        <ele>451</ele>
        <time>2021-01-29T12:45:07Z</time>
      </trkpt>
      <trkpt lat="43.09449" lon="1.16127">
        <ele>453</ele>
        <time>2021-01-29T12:45:12Z</time>
      </trkpt>
      <trkpt lat="43.09426" lon="1.16132">
        <ele>453</ele>
        <time>2021-01-29T12:45:16Z</time>
      </trkpt>
      <trkpt lat="43.09398" lon="1.16141">
        <ele>453</ele>
        <time>2021-01-29T12:45:21Z</time>
      </trkpt>
      <trkpt lat="43.09374" lon="1.16145">
        <ele>454</ele>
        <time>2021-01-29T12:45:25Z</time>
      </trkpt>
      <trkpt lat="43.09353" lon="1.16141">
        <ele>456</ele>
        <time>2021-01-29T12:45:29Z</time>
      </trkpt>
      <trkpt lat="43.09313" lon="1.16127">
        <ele>456</ele>
        <time>2021-01-29T12:45:36Z</time>
      </trkpt>
      <trkpt lat="43.093" lon="1.16128">
        <ele>455</ele>
        <time>2021-01-29T12:45:39Z</time>
      </trkpt>
      <trkpt lat="43.09362" lon="1.1583">
        <ele>440</ele>
        <time>2021-01-29T12:46:19Z</time>
      </trkpt>
      <trkpt lat="43.09376" lon="1.15795">
        <ele>439</ele>
        <time>2021-01-29T12:46:24Z</time>
      </trkpt>
      <trkpt lat="43.09397" lon="1.15755">
        <ele>438</ele>
        <time>2021-01-29T12:46:31Z</time>
      </trkpt>
      <trkpt lat="43.09403" lon="1.15732">
        <ele>438</ele>
        <time>2021-01-29T12:46:34Z</time>
      </trkpt>
      <trkpt lat="43.09401" lon="1.15699">
        <ele>437</ele>
        <time>2021-01-29T12:46:38Z</time>
      </trkpt>
      <trkpt lat="43.09393" lon="1.15653">
        <ele>436</ele>
        <time>2021-01-29T12:46:44Z</time>
      </trkpt>
      <trkpt lat="43.09392" lon="1.15603">
        <ele>435</ele>
        <time>2021-01-29T12:46:51Z</time>
      </trkpt>
      <trkpt lat="43.09398" lon="1.1555">
        <ele>435</ele>
        <time>2021-01-29T12:46:58Z</time>
      </trkpt>
      <trkpt lat="43.09409" lon="1.15487">
        <ele>438</ele>
        <time>2021-01-29T12:47:06Z</time>
      </trkpt>
      <trkpt lat="43.0941" lon="1.15449">
        <ele>439</ele>
        <time>2021-01-29T12:47:11Z</time>
      </trkpt>
      <trkpt lat="43.09399" lon="1.15395">
        <ele>438</ele>
        <time>2021-01-29T12:47:18Z</time>
      </trkpt>
      <trkpt lat="43.094" lon="1.15376">
        <ele>438</ele>
        <time>2021-01-29T12:47:21Z</time>
      </trkpt>
      <trkpt lat="43.09424" lon="1.15259">
        <ele>438</ele>
        <time>2021-01-29T12:47:37Z</time>
      </trkpt>
      <trkpt lat="43.09439" lon="1.15162">
        <ele>438</ele>
        <time>2021-01-29T12:47:49Z</time>
      </trkpt>
      <trkpt lat="43.0945" lon="1.15103">
        <ele>435</ele>
        <time>2021-01-29T12:47:57Z</time>
      </trkpt>
      <trkpt lat="43.0945" lon="1.15063">
        <ele>433</ele>
        <time>2021-01-29T12:48:03Z</time>
      </trkpt>
      <trkpt lat="43.09445" lon="1.15013">
        <ele>431</ele>
        <time>2021-01-29T12:48:09Z</time>
      </trkpt>
      <trkpt lat="43.09446" lon="1.14982">
        <ele>429</ele>
        <time>2021-01-29T12:48:13Z</time>
      </trkpt>
      <trkpt lat="43.09455" lon="1.14962">
        <ele>428</ele>
        <time>2021-01-29T12:48:16Z</time>
      </trkpt>
      <trkpt lat="43.09476" lon="1.14929">
        <ele>426</ele>
        <time>2021-01-29T12:48:22Z</time>
      </trkpt>
      <trkpt lat="43.0948" lon="1.14909">
        <ele>425</ele>
        <time>2021-01-29T12:48:25Z</time>
      </trkpt>
      <trkpt lat="43.09485" lon="1.1487">
        <ele>424</ele>
        <time>2021-01-29T12:48:30Z</time>
      </trkpt>
      <trkpt lat="43.09498" lon="1.14821">
        <ele>422</ele>
        <time>2021-01-29T12:48:36Z</time>
      </trkpt>
      <trkpt lat="43.09497" lon="1.14741">
        <ele>420</ele>
        <time>2021-01-29T12:48:47Z</time>
      </trkpt>
      <trkpt lat="43.09503" lon="1.14683">
        <ele>422</ele>
        <time>2021-01-29T12:48:54Z</time>
      </trkpt>
      <trkpt lat="43.09504" lon="1.14643">
        <ele>422</ele>
        <time>2021-01-29T12:49:00Z</time>
      </trkpt>
      <trkpt lat="43.09512" lon="1.14616">
        <ele>422</ele>
        <time>2021-01-29T12:49:03Z</time>
      </trkpt>
      <trkpt lat="43.09567" lon="1.14496">
        <ele>424</ele>
        <time>2021-01-29T12:49:22Z</time>
      </trkpt>
      <trkpt lat="43.09573" lon="1.14469">
        <ele>423</ele>
        <time>2021-01-29T12:49:26Z</time>
      </trkpt>
      <trkpt lat="43.09584" lon="1.14305">
        <ele>418</ele>
        <time>2021-01-29T12:49:47Z</time>
      </trkpt>
      <trkpt lat="43.09583" lon="1.14258">
        <ele>416</ele>
        <time>2021-01-29T12:49:53Z</time>
      </trkpt>
      <trkpt lat="43.09571" lon="1.14205">
        <ele>414</ele>
        <time>2021-01-29T12:50:00Z</time>
      </trkpt>
      <trkpt lat="43.0956" lon="1.14168">
        <ele>412</ele>
        <time>2021-01-29T12:50:05Z</time>
      </trkpt>
      <trkpt lat="43.09558" lon="1.14137">
        <ele>411</ele>
        <time>2021-01-29T12:50:09Z</time>
      </trkpt>
      <trkpt lat="43.09581" lon="1.14009">
        <ele>405</ele>
        <time>2021-01-29T12:50:27Z</time>
      </trkpt>
      <trkpt lat="43.09585" lon="1.13974">
        <ele>404</ele>
        <time>2021-01-29T12:50:31Z</time>
      </trkpt>
      <trkpt lat="43.09585" lon="1.13943">
        <ele>403</ele>
        <time>2021-01-29T12:50:35Z</time>
      </trkpt>
      <trkpt lat="43.0956" lon="1.13823">
        <ele>401</ele>
        <time>2021-01-29T12:50:51Z</time>
      </trkpt>
      <trkpt lat="43.09557" lon="1.13796">
        <ele>400</ele>
        <time>2021-01-29T12:50:55Z</time>
      </trkpt>
      <trkpt lat="43.09561" lon="1.1373">
        <ele>398</ele>
        <time>2021-01-29T12:51:04Z</time>
      </trkpt>
      <trkpt lat="43.09559" lon="1.13701">
        <ele>397</ele>
        <time>2021-01-29T12:51:07Z</time>
      </trkpt>
      <trkpt lat="43.09551" lon="1.13679">
        <ele>396</ele>
        <time>2021-01-29T12:51:11Z</time>
      </trkpt>
      <trkpt lat="43.09532" lon="1.1365">
        <ele>394</ele>
        <time>2021-01-29T12:51:16Z</time>
      </trkpt>
      <trkpt lat="43.0952" lon="1.13626">
        <ele>393</ele>
        <time>2021-01-29T12:51:19Z</time>
      </trkpt>
      <trkpt lat="43.09476" lon="1.13482">
        <ele>390</ele>
        <time>2021-01-29T12:51:40Z</time>
      </trkpt>
      <trkpt lat="43.09449" lon="1.13431">
        <ele>390</ele>
        <time>2021-01-29T12:51:48Z</time>
      </trkpt>
      <trkpt lat="43.09446" lon="1.13402">
        <ele>389</ele>
        <time>2021-01-29T12:51:52Z</time>
      </trkpt>
      <trkpt lat="43.09439" lon="1.13367">
        <ele>388</ele>
        <time>2021-01-29T12:51:56Z</time>
      </trkpt>
      <trkpt lat="43.0943" lon="1.1333">
        <ele>386</ele>
        <time>2021-01-29T12:52:01Z</time>
      </trkpt>
      <trkpt lat="43.09418" lon="1.13308">
        <ele>385</ele>
        <time>2021-01-29T12:52:05Z</time>
      </trkpt>
      <trkpt lat="43.09397" lon="1.13277">
        <ele>383</ele>
        <time>2021-01-29T12:52:11Z</time>
      </trkpt>
      <trkpt lat="43.09387" lon="1.13252">
        <ele>382</ele>
        <time>2021-01-29T12:52:14Z</time>
      </trkpt>
      <trkpt lat="43.09378" lon="1.13213">
        <ele>381</ele>
        <time>2021-01-29T12:52:20Z</time>
      </trkpt>
      <trkpt lat="43.09365" lon="1.13134">
        <ele>380</ele>
        <time>2021-01-29T12:52:30Z</time>
      </trkpt>
      <trkpt lat="43.09353" lon="1.12991">
        <ele>378</ele>
        <time>2021-01-29T12:52:49Z</time>
      </trkpt>
      <trkpt lat="43.09348" lon="1.12861">
        <ele>376</ele>
        <time>2021-01-29T12:53:06Z</time>
      </trkpt>
      <trkpt lat="43.09362" lon="1.12722">
        <ele>375</ele>
        <time>2021-01-29T12:53:24Z</time>
      </trkpt>
      <trkpt lat="43.09366" lon="1.1267">
        <ele>374</ele>
        <time>2021-01-29T12:53:31Z</time>
      </trkpt>
      <trkpt lat="43.09358" lon="1.12568">
        <ele>371</ele>
        <time>2021-01-29T12:53:44Z</time>
      </trkpt>
      <trkpt lat="43.09362" lon="1.1254">
        <ele>370</ele>
        <time>2021-01-29T12:53:48Z</time>
      </trkpt>
      <trkpt lat="43.09374" lon="1.12504">
        <ele>369</ele>
        <time>2021-01-29T12:53:53Z</time>
      </trkpt>
      <trkpt lat="43.09387" lon="1.12476">
        <ele>368</ele>
        <time>2021-01-29T12:53:57Z</time>
      </trkpt>
      <trkpt lat="43.09385" lon="1.12453">
        <ele>367</ele>
        <time>2021-01-29T12:54:00Z</time>
      </trkpt>
      <trkpt lat="43.09377" lon="1.12441">
        <ele>366</ele>
        <time>2021-01-29T12:54:02Z</time>
      </trkpt>
      <trkpt lat="43.09371" lon="1.12432">
        <ele>366</ele>
        <time>2021-01-29T12:54:04Z</time>
      </trkpt>
      <trkpt lat="43.09362" lon="1.12422">
        <ele>365</ele>
        <time>2021-01-29T12:54:06Z</time>
      </trkpt>
      <trkpt lat="43.09357" lon="1.12419">
        <ele>365</ele>
        <time>2021-01-29T12:54:07Z</time>
      </trkpt>
      <trkpt lat="43.09344" lon="1.12413">
        <ele>364</ele>
        <time>2021-01-29T12:54:09Z</time>
      </trkpt>
      <trkpt lat="43.09317" lon="1.12408">
        <ele>365</ele>
        <time>2021-01-29T12:54:14Z</time>
      </trkpt>
      <trkpt lat="43.0928" lon="1.12397">
        <ele>367</ele>
        <time>2021-01-29T12:54:21Z</time>
      </trkpt>
      <trkpt lat="43.09259" lon="1.1238">
        <ele>368</ele>
        <time>2021-01-29T12:54:25Z</time>
      </trkpt>
      <trkpt lat="43.09257" lon="1.12359">
        <ele>368</ele>
        <time>2021-01-29T12:54:28Z</time>
      </trkpt>
      <trkpt lat="43.09249" lon="1.12327">
        <ele>368</ele>
        <time>2021-01-29T12:54:32Z</time>
      </trkpt>
      <trkpt lat="43.09237" lon="1.12297">
        <ele>369</ele>
        <time>2021-01-29T12:54:37Z</time>
      </trkpt>
      <trkpt lat="43.09164" lon="1.1219">
        <ele>381</ele>
        <time>2021-01-29T12:54:56Z</time>
      </trkpt>
      <trkpt lat="43.09118" lon="1.12153">
        <ele>386</ele>
        <time>2021-01-29T12:55:05Z</time>
      </trkpt>
      <trkpt lat="43.09076" lon="1.12107">
        <ele>391</ele>
        <time>2021-01-29T12:55:15Z</time>
      </trkpt>
      <trkpt lat="43.09055" lon="1.12078">
        <ele>393</ele>
        <time>2021-01-29T12:55:20Z</time>
      </trkpt>
      <trkpt lat="43.09031" lon="1.12027">
        <ele>395</ele>
        <time>2021-01-29T12:55:28Z</time>
      </trkpt>
      <trkpt lat="43.09006" lon="1.12002">
        <ele>397</ele>
        <time>2021-01-29T12:55:34Z</time>
      </trkpt>
      <trkpt lat="43.08976" lon="1.11985">
        <ele>400</ele>
        <time>2021-01-29T12:55:39Z</time>
      </trkpt>
      <trkpt lat="43.08897" lon="1.12033">
        <ele>404</ele>
        <time>2021-01-29T12:55:55Z</time>
      </trkpt>
      <trkpt lat="43.08814" lon="1.12103">
        <ele>404</ele>
        <time>2021-01-29T12:56:12Z</time>
      </trkpt>
      <trkpt lat="43.08792" lon="1.12106">
        <ele>404</ele>
        <time>2021-01-29T12:56:16Z</time>
      </trkpt>
      <trkpt lat="43.08771" lon="1.12098">
        <ele>405</ele>
        <time>2021-01-29T12:56:20Z</time>
      </trkpt>
      <trkpt lat="43.08755" lon="1.12088">
        <ele>406</ele>
        <time>2021-01-29T12:56:23Z</time>
      </trkpt>
      <trkpt lat="43.08677" lon="1.12023">
        <ele>415</ele>
        <time>2021-01-29T12:56:39Z</time>
      </trkpt>
      <trkpt lat="43.08639" lon="1.12023">
        <ele>413</ele>
        <time>2021-01-29T12:56:46Z</time>
      </trkpt>
      <trkpt lat="43.08598" lon="1.12046">
        <ele>405</ele>
        <time>2021-01-29T12:56:54Z</time>
      </trkpt>
      <trkpt lat="43.08562" lon="1.12046">
        <ele>402</ele>
        <time>2021-01-29T12:57:00Z</time>
      </trkpt>
      <trkpt lat="43.08542" lon="1.12036">
        <ele>402</ele>
        <time>2021-01-29T12:57:04Z</time>
      </trkpt>
      <trkpt lat="43.08522" lon="1.12028">
        <ele>402</ele>
        <time>2021-01-29T12:57:08Z</time>
      </trkpt>
      <trkpt lat="43.08404" lon="1.12032">
        <ele>396</ele>
        <time>2021-01-29T12:57:29Z</time>
      </trkpt>
      <trkpt lat="43.08361" lon="1.12019">
        <ele>395</ele>
        <time>2021-01-29T12:57:37Z</time>
      </trkpt>
      <trkpt lat="43.08344" lon="1.12025">
        <ele>394</ele>
        <time>2021-01-29T12:57:40Z</time>
      </trkpt>
      <trkpt lat="43.08318" lon="1.12047">
        <ele>390</ele>
        <time>2021-01-29T12:57:45Z</time>
      </trkpt>
      <trkpt lat="43.08299" lon="1.1206">
        <ele>389</ele>
        <time>2021-01-29T12:57:49Z</time>
      </trkpt>
      <trkpt lat="43.08216" lon="1.12084">
        <ele>389</ele>
        <time>2021-01-29T12:58:04Z</time>
      </trkpt>
      <trkpt lat="43.08157" lon="1.12104">
        <ele>392</ele>
        <time>2021-01-29T12:58:15Z</time>
      </trkpt>
      <trkpt lat="43.08059" lon="1.12173">
        <ele>393</ele>
        <time>2021-01-29T12:58:35Z</time>
      </trkpt>
      <trkpt lat="43.0801" lon="1.12179">
        <ele>396</ele>
        <time>2021-01-29T12:58:43Z</time>
      </trkpt>
      <trkpt lat="43.07991" lon="1.12185">
        <ele>397</ele>
        <time>2021-01-29T12:58:47Z</time>
      </trkpt>
      <trkpt lat="43.07921" lon="1.12253">
        <ele>400</ele>
        <time>2021-01-29T12:59:02Z</time>
      </trkpt>
      <trkpt lat="43.07765" lon="1.12434">
        <ele>406</ele>
        <time>2021-01-29T12:59:38Z</time>
      </trkpt>
      <trkpt lat="43.07746" lon="1.12451">
        <ele>405</ele>
        <time>2021-01-29T12:59:43Z</time>
      </trkpt>
      <trkpt lat="43.07733" lon="1.12455">
        <ele>404</ele>
        <time>2021-01-29T12:59:45Z</time>
      </trkpt>
      <trkpt lat="43.07726" lon="1.12454">
        <ele>403</ele>
        <time>2021-01-29T12:59:46Z</time>
      </trkpt>
      <trkpt lat="43.07719" lon="1.12451">
        <ele>403</ele>
        <time>2021-01-29T12:59:47Z</time>
      </trkpt>
      <trkpt lat="43.07711" lon="1.12445">
        <ele>403</ele>
        <time>2021-01-29T12:59:49Z</time>
      </trkpt>
      <trkpt lat="43.07705" lon="1.12436">
        <ele>404</ele>
        <time>2021-01-29T12:59:51Z</time>
      </trkpt>
      <trkpt lat="43.07697" lon="1.12414">
        <ele>405</ele>
        <time>2021-01-29T12:59:54Z</time>
      </trkpt>
      <trkpt lat="43.07688" lon="1.12325">
        <ele>410</ele>
        <time>2021-01-29T13:00:06Z</time>
      </trkpt>
      <trkpt lat="43.07685" lon="1.12317">
        <ele>410</ele>
        <time>2021-01-29T13:00:07Z</time>
      </trkpt>
      <trkpt lat="43.0768" lon="1.12312">
        <ele>410</ele>
        <time>2021-01-29T13:00:08Z</time>
      </trkpt>
      <trkpt lat="43.07666" lon="1.12308">
        <ele>410</ele>
        <time>2021-01-29T13:00:10Z</time>
      </trkpt>
      <trkpt lat="43.07654" lon="1.12312">
        <ele>413</ele>
        <time>2021-01-29T13:00:13Z</time>
      </trkpt>
      <trkpt lat="43.07639" lon="1.12325">
        <ele>416</ele>
        <time>2021-01-29T13:00:16Z</time>
      </trkpt>
      <trkpt lat="43.07581" lon="1.12413">
        <ele>419</ele>
        <time>2021-01-29T13:00:31Z</time>
      </trkpt>
      <trkpt lat="43.07571" lon="1.12432">
        <ele>420</ele>
        <time>2021-01-29T13:00:34Z</time>
      </trkpt>
      <trkpt lat="43.07528" lon="1.12543">
        <ele>421</ele>
        <time>2021-01-29T13:00:50Z</time>
      </trkpt>
      <trkpt lat="43.07518" lon="1.12558">
        <ele>420</ele>
        <time>2021-01-29T13:00:53Z</time>
      </trkpt>
      <trkpt lat="43.07509" lon="1.12564">
        <ele>421</ele>
        <time>2021-01-29T13:00:55Z</time>
      </trkpt>
      <trkpt lat="43.075" lon="1.12567">
        <ele>422</ele>
        <time>2021-01-29T13:00:57Z</time>
      </trkpt>
      <trkpt lat="43.0749" lon="1.12565">
        <ele>422</ele>
        <time>2021-01-29T13:00:58Z</time>
      </trkpt>
      <trkpt lat="43.0739" lon="1.12512">
        <ele>435</ele>
        <time>2021-01-29T13:01:17Z</time>
      </trkpt>
      <trkpt lat="43.07363" lon="1.12503">
        <ele>438</ele>
        <time>2021-01-29T13:01:22Z</time>
      </trkpt>
      <trkpt lat="43.07348" lon="1.12502">
        <ele>438</ele>
        <time>2021-01-29T13:01:25Z</time>
      </trkpt>
      <trkpt lat="43.07284" lon="1.12509">
        <ele>433</ele>
        <time>2021-01-29T13:01:36Z</time>
      </trkpt>
      <trkpt lat="43.07274" lon="1.12508">
        <ele>432</ele>
        <time>2021-01-29T13:01:38Z</time>
      </trkpt>
      <trkpt lat="43.0726" lon="1.12501">
        <ele>433</ele>
        <time>2021-01-29T13:01:41Z</time>
      </trkpt>
      <trkpt lat="43.07251" lon="1.12495">
        <ele>434</ele>
        <time>2021-01-29T13:01:43Z</time>
      </trkpt>
      <trkpt lat="43.07244" lon="1.12486">
        <ele>436</ele>
        <time>2021-01-29T13:01:44Z</time>
      </trkpt>
      <trkpt lat="43.07229" lon="1.12458">
        <ele>441</ele>
        <time>2021-01-29T13:01:49Z</time>
      </trkpt>
      <trkpt lat="43.07151" lon="1.12282">
        <ele>456</ele>
        <time>2021-01-29T13:02:16Z</time>
      </trkpt>
      <trkpt lat="43.07132" lon="1.12224">
        <ele>460</ele>
        <time>2021-01-29T13:02:24Z</time>
      </trkpt>
      <trkpt lat="43.07124" lon="1.12203">
        <ele>461</ele>
        <time>2021-01-29T13:02:27Z</time>
      </trkpt>
      <trkpt lat="43.07104" lon="1.12167">
        <ele>460</ele>
        <time>2021-01-29T13:02:33Z</time>
      </trkpt>
      <trkpt lat="43.07079" lon="1.12137">
        <ele>456</ele>
        <time>2021-01-29T13:02:39Z</time>
      </trkpt>
      <trkpt lat="43.0707" lon="1.1212">
        <ele>457</ele>
        <time>2021-01-29T13:02:42Z</time>
      </trkpt>
      <trkpt lat="43.07055" lon="1.12088">
        <ele>459</ele>
        <time>2021-01-29T13:02:46Z</time>
      </trkpt>
      <trkpt lat="43.0702" lon="1.12035">
        <ele>456</ele>
        <time>2021-01-29T13:02:56Z</time>
      </trkpt>
      <trkpt lat="43.07015" lon="1.12018">
        <ele>457</ele>
        <time>2021-01-29T13:02:58Z</time>
      </trkpt>
      <trkpt lat="43.07012" lon="1.11993">
        <ele>458</ele>
        <time>2021-01-29T13:03:01Z</time>
      </trkpt>
      <trkpt lat="43.07009" lon="1.11981">
        <ele>459</ele>
        <time>2021-01-29T13:03:03Z</time>
      </trkpt>
      <trkpt lat="43.07004" lon="1.11968">
        <ele>459</ele>
        <time>2021-01-29T13:03:05Z</time>
      </trkpt>
      <trkpt lat="43.06993" lon="1.11954">
        <ele>459</ele>
        <time>2021-01-29T13:03:08Z</time>
      </trkpt>
      <trkpt lat="43.06984" lon="1.11947">
        <ele>459</ele>
        <time>2021-01-29T13:03:10Z</time>
      </trkpt>
      <trkpt lat="43.06963" lon="1.11936">
        <ele>458</ele>
        <time>2021-01-29T13:03:14Z</time>
      </trkpt>
      <trkpt lat="43.06953" lon="1.11929">
        <ele>458</ele>
        <time>2021-01-29T13:03:16Z</time>
      </trkpt>
      <trkpt lat="43.06945" lon="1.11915">
        <ele>458</ele>
        <time>2021-01-29T13:03:18Z</time>
      </trkpt>
      <trkpt lat="43.06943" lon="1.11895">
        <ele>458</ele>
        <time>2021-01-29T13:03:20Z</time>
      </trkpt>
      <trkpt lat="43.06947" lon="1.11878">
        <ele>460</ele>
        <time>2021-01-29T13:03:23Z</time>
      </trkpt>
      <trkpt lat="43.06958" lon="1.11845">
        <ele>464</ele>
        <time>2021-01-29T13:03:27Z</time>
      </trkpt>
      <trkpt lat="43.06959" lon="1.11832">
        <ele>465</ele>
        <time>2021-01-29T13:03:29Z</time>
      </trkpt>
      <trkpt lat="43.06958" lon="1.11822">
        <ele>465</ele>
        <time>2021-01-29T13:03:30Z</time>
      </trkpt>
      <trkpt lat="43.06955" lon="1.11809">
        <ele>465</ele>
        <time>2021-01-29T13:03:32Z</time>
      </trkpt>
      <trkpt lat="43.06948" lon="1.11792">
        <ele>464</ele>
        <time>2021-01-29T13:03:35Z</time>
      </trkpt>
      <trkpt lat="43.06946" lon="1.11781">
        <ele>464</ele>
        <time>2021-01-29T13:03:36Z</time>
      </trkpt>
      <trkpt lat="43.06946" lon="1.1177">
        <ele>464</ele>
        <time>2021-01-29T13:03:38Z</time>
      </trkpt>
      <trkpt lat="43.06957" lon="1.11733">
        <ele>468</ele>
        <time>2021-01-29T13:03:43Z</time>
      </trkpt>
      <trkpt lat="43.0696" lon="1.11707">
        <ele>470</ele>
        <time>2021-01-29T13:03:46Z</time>
      </trkpt>
      <trkpt lat="43.0696" lon="1.11681">
        <ele>470</ele>
        <time>2021-01-29T13:03:50Z</time>
      </trkpt>
      <trkpt lat="43.06956" lon="1.11635">
        <ele>470</ele>
        <time>2021-01-29T13:03:56Z</time>
      </trkpt>
      <trkpt lat="43.06958" lon="1.11601">
        <ele>471</ele>
        <time>2021-01-29T13:04:00Z</time>
      </trkpt>
      <trkpt lat="43.06967" lon="1.11577">
        <ele>473</ele>
        <time>2021-01-29T13:04:04Z</time>
      </trkpt>
      <trkpt lat="43.06993" lon="1.11537">
        <ele>479</ele>
        <time>2021-01-29T13:04:11Z</time>
      </trkpt>
      <trkpt lat="43.06999" lon="1.11519">
        <ele>480</ele>
        <time>2021-01-29T13:04:13Z</time>
      </trkpt>
      <trkpt lat="43.06998" lon="1.11499">
        <ele>481</ele>
        <time>2021-01-29T13:04:16Z</time>
      </trkpt>
      <trkpt lat="43.06991" lon="1.11486">
        <ele>483</ele>
        <time>2021-01-29T13:04:18Z</time>
      </trkpt>
      <trkpt lat="43.06981" lon="1.11478">
        <ele>483</ele>
        <time>2021-01-29T13:04:20Z</time>
      </trkpt>
      <trkpt lat="43.06969" lon="1.11477">
        <ele>482</ele>
        <time>2021-01-29T13:04:22Z</time>
      </trkpt>
      <trkpt lat="43.06947" lon="1.11479">
        <ele>479</ele>
        <time>2021-01-29T13:04:26Z</time>
      </trkpt>
      <trkpt lat="43.06936" lon="1.11475">
        <ele>478</ele>
        <time>2021-01-29T13:04:28Z</time>
      </trkpt>
      <trkpt lat="43.06925" lon="1.11467">
        <ele>478</ele>
        <time>2021-01-29T13:04:30Z</time>
      </trkpt>
      <trkpt lat="43.06917" lon="1.11456">
        <ele>479</ele>
        <time>2021-01-29T13:04:32Z</time>
      </trkpt>
      <trkpt lat="43.06914" lon="1.11439">
        <ele>481</ele>
        <time>2021-01-29T13:04:35Z</time>
      </trkpt>
      <trkpt lat="43.06914" lon="1.11415">
        <ele>485</ele>
        <time>2021-01-29T13:04:38Z</time>
      </trkpt>
      <trkpt lat="43.0691" lon="1.11401">
        <ele>486</ele>
        <time>2021-01-29T13:04:40Z</time>
      </trkpt>
      <trkpt lat="43.06898" lon="1.11382">
        <ele>486</ele>
        <time>2021-01-29T13:04:43Z</time>
      </trkpt>
      <trkpt lat="43.06886" lon="1.11368">
        <ele>485</ele>
        <time>2021-01-29T13:04:46Z</time>
      </trkpt>
      <trkpt lat="43.06859" lon="1.11348">
        <ele>483</ele>
        <time>2021-01-29T13:04:51Z</time>
      </trkpt>
      <trkpt lat="43.06829" lon="1.11271">
        <ele>487</ele>
        <time>2021-01-29T13:05:03Z</time>
      </trkpt>
      <trkpt lat="43.0682" lon="1.11243">
        <ele>489</ele>
        <time>2021-01-29T13:05:06Z</time>
      </trkpt>
      <trkpt lat="43.06822" lon="1.11225">
        <ele>489</ele>
        <time>2021-01-29T13:05:09Z</time>
      </trkpt>
      <trkpt lat="43.06826" lon="1.11209">
        <ele>490</ele>
        <time>2021-01-29T13:05:11Z</time>
      </trkpt>
      <trkpt lat="43.06845" lon="1.11177">
        <ele>495</ele>
        <time>2021-01-29T13:05:16Z</time>
      </trkpt>
      <trkpt lat="43.06854" lon="1.11158">
        <ele>498</ele>
        <time>2021-01-29T13:05:19Z</time>
      </trkpt>
      <trkpt lat="43.06856" lon="1.11143">
        <ele>500</ele>
        <time>2021-01-29T13:05:21Z</time>
      </trkpt>
      <trkpt lat="43.06852" lon="1.11127">
        <ele>500</ele>
        <time>2021-01-29T13:05:24Z</time>
      </trkpt>
      <trkpt lat="43.06817" lon="1.11103">
        <ele>496</ele>
        <time>2021-01-29T13:05:30Z</time>
      </trkpt>
      <trkpt lat="43.06806" lon="1.11087">
        <ele>496</ele>
        <time>2021-01-29T13:05:33Z</time>
      </trkpt>
      <trkpt lat="43.06771" lon="1.10997">
        <ele>499</ele>
        <time>2021-01-29T13:05:47Z</time>
      </trkpt>
      <trkpt lat="43.06766" lon="1.10974">
        <ele>499</ele>
        <time>2021-01-29T13:05:50Z</time>
      </trkpt>
      <trkpt lat="43.06766" lon="1.1095">
        <ele>500</ele>
        <time>2021-01-29T13:05:53Z</time>
      </trkpt>
      <trkpt lat="43.06784" lon="1.10874">
        <ele>509</ele>
        <time>2021-01-29T13:06:03Z</time>
      </trkpt>
      <trkpt lat="43.06785" lon="1.10848">
        <ele>510</ele>
        <time>2021-01-29T13:06:07Z</time>
      </trkpt>
      <trkpt lat="43.06781" lon="1.10822">
        <ele>511</ele>
        <time>2021-01-29T13:06:10Z</time>
      </trkpt>
      <trkpt lat="43.06767" lon="1.10799">
        <ele>509</ele>
        <time>2021-01-29T13:06:14Z</time>
      </trkpt>
      <trkpt lat="43.06748" lon="1.1078">
        <ele>508</ele>
        <time>2021-01-29T13:06:18Z</time>
      </trkpt>
      <trkpt lat="43.06718" lon="1.10767">
        <ele>511</ele>
        <time>2021-01-29T13:06:24Z</time>
      </trkpt>
      <trkpt lat="43.06707" lon="1.10767">
        <ele>511</ele>
        <time>2021-01-29T13:06:26Z</time>
      </trkpt>
      <trkpt lat="43.06687" lon="1.10777">
        <ele>511</ele>
        <time>2021-01-29T13:06:29Z</time>
      </trkpt>
      <trkpt lat="43.06651" lon="1.10799">
        <ele>508</ele>
        <time>2021-01-29T13:06:36Z</time>
      </trkpt>
      <trkpt lat="43.06635" lon="1.10802">
        <ele>507</ele>
        <time>2021-01-29T13:06:39Z</time>
      </trkpt>
      <trkpt lat="43.0662" lon="1.10796">
        <ele>508</ele>
        <time>2021-01-29T13:06:42Z</time>
      </trkpt>
      <trkpt lat="43.06545" lon="1.10676">
        <ele>523</ele>
        <time>2021-01-29T13:07:03Z</time>
      </trkpt>
      <trkpt lat="43.06527" lon="1.10667">
        <ele>523</ele>
        <time>2021-01-29T13:07:06Z</time>
      </trkpt>
      <trkpt lat="43.06513" lon="1.10667">
        <ele>523</ele>
        <time>2021-01-29T13:07:09Z</time>
      </trkpt>
      <trkpt lat="43.06501" lon="1.10673">
        <ele>523</ele>
        <time>2021-01-29T13:07:11Z</time>
      </trkpt>
      <trkpt lat="43.06489" lon="1.10693">
        <ele>525</ele>
        <time>2021-01-29T13:07:14Z</time>
      </trkpt>
      <trkpt lat="43.06479" lon="1.10717">
        <ele>527</ele>
        <time>2021-01-29T13:07:18Z</time>
      </trkpt>
      <trkpt lat="43.06459" lon="1.10778">
        <ele>530</ele>
        <time>2021-01-29T13:07:27Z</time>
      </trkpt>
      <trkpt lat="43.06446" lon="1.10833">
        <ele>531</ele>
        <time>2021-01-29T13:07:34Z</time>
      </trkpt>
      <trkpt lat="43.06433" lon="1.10916">
        <ele>532</ele>
        <time>2021-01-29T13:07:45Z</time>
      </trkpt>
      <trkpt lat="43.06422" lon="1.11005">
        <ele>524</ele>
        <time>2021-01-29T13:07:57Z</time>
      </trkpt>
      <trkpt lat="43.06417" lon="1.11027">
        <ele>521</ele>
        <time>2021-01-29T13:08:00Z</time>
      </trkpt>
      <trkpt lat="43.06411" lon="1.11042">
        <ele>518</ele>
        <time>2021-01-29T13:08:02Z</time>
      </trkpt>
      <trkpt lat="43.06403" lon="1.11052">
        <ele>516</ele>
        <time>2021-01-29T13:08:04Z</time>
      </trkpt>
      <trkpt lat="43.06392" lon="1.11058">
        <ele>516</ele>
        <time>2021-01-29T13:08:06Z</time>
      </trkpt>
      <trkpt lat="43.06384" lon="1.11056">
        <ele>516</ele>
        <time>2021-01-29T13:08:07Z</time>
      </trkpt>
      <trkpt lat="43.06334" lon="1.11017">
        <ele>524</ele>
        <time>2021-01-29T13:08:18Z</time>
      </trkpt>
      <trkpt lat="43.06311" lon="1.10995">
        <ele>527</ele>
        <time>2021-01-29T13:08:23Z</time>
      </trkpt>
      <trkpt lat="43.063" lon="1.10978">
        <ele>528</ele>
        <time>2021-01-29T13:08:26Z</time>
      </trkpt>
      <trkpt lat="43.06296" lon="1.10959">
        <ele>529</ele>
        <time>2021-01-29T13:08:28Z</time>
      </trkpt>
      <trkpt lat="43.063" lon="1.10866">
        <ele>527</ele>
        <time>2021-01-29T13:08:40Z</time>
      </trkpt>
      <trkpt lat="43.06299" lon="1.10816">
        <ele>525</ele>
        <time>2021-01-29T13:08:47Z</time>
      </trkpt>
      <trkpt lat="43.0629" lon="1.10728">
        <ele>520</ele>
        <time>2021-01-29T13:08:58Z</time>
      </trkpt>
      <trkpt lat="43.06282" lon="1.10673">
        <ele>516</ele>
        <time>2021-01-29T13:09:06Z</time>
      </trkpt>
      <trkpt lat="43.06212" lon="1.10472">
        <ele>500</ele>
        <time>2021-01-29T13:09:35Z</time>
      </trkpt>
      <trkpt lat="43.06209" lon="1.1045">
        <ele>500</ele>
        <time>2021-01-29T13:09:38Z</time>
      </trkpt>
      <trkpt lat="43.0621" lon="1.10433">
        <ele>500</ele>
        <time>2021-01-29T13:09:40Z</time>
      </trkpt>
      <trkpt lat="43.06214" lon="1.1041">
        <ele>500</ele>
        <time>2021-01-29T13:09:43Z</time>
      </trkpt>
      <trkpt lat="43.06259" lon="1.10313">
        <ele>496</ele>
        <time>2021-01-29T13:09:58Z</time>
      </trkpt>
      <trkpt lat="43.06272" lon="1.10268">
        <ele>494</ele>
        <time>2021-01-29T13:10:04Z</time>
      </trkpt>
      <trkpt lat="43.06274" lon="1.10237">
        <ele>493</ele>
        <time>2021-01-29T13:10:08Z</time>
      </trkpt>
      <trkpt lat="43.06264" lon="1.10147">
        <ele>495</ele>
        <time>2021-01-29T13:10:20Z</time>
      </trkpt>
      <trkpt lat="43.06259" lon="1.10131">
        <ele>495</ele>
        <time>2021-01-29T13:10:22Z</time>
      </trkpt>
      <trkpt lat="43.06254" lon="1.10127">
        <ele>495</ele>
        <time>2021-01-29T13:10:23Z</time>
      </trkpt>
      <trkpt lat="43.06248" lon="1.10128">
        <ele>494</ele>
        <time>2021-01-29T13:10:24Z</time>
      </trkpt>
      <trkpt lat="43.06241" lon="1.10142">
        <ele>492</ele>
        <time>2021-01-29T13:10:27Z</time>
      </trkpt>
      <trkpt lat="43.06232" lon="1.10174">
        <ele>490</ele>
        <time>2021-01-29T13:10:31Z</time>
      </trkpt>
      <trkpt lat="43.06215" lon="1.10217">
        <ele>486</ele>
        <time>2021-01-29T13:10:37Z</time>
      </trkpt>
      <trkpt lat="43.06193" lon="1.10265">
        <ele>484</ele>
        <time>2021-01-29T13:10:45Z</time>
      </trkpt>
      <trkpt lat="43.06183" lon="1.10281">
        <ele>483</ele>
        <time>2021-01-29T13:10:47Z</time>
      </trkpt>
      <trkpt lat="43.06168" lon="1.10289">
        <ele>482</ele>
        <time>2021-01-29T13:10:50Z</time>
      </trkpt>
      <trkpt lat="43.06087" lon="1.10255">
        <ele>469</ele>
        <time>2021-01-29T13:11:05Z</time>
      </trkpt>
      <trkpt lat="43.06067" lon="1.10258">
        <ele>468</ele>
        <time>2021-01-29T13:11:09Z</time>
      </trkpt>
      <trkpt lat="43.06051" lon="1.1027">
        <ele>467</ele>
        <time>2021-01-29T13:11:12Z</time>
      </trkpt>
      <trkpt lat="43.06026" lon="1.10298">
        <ele>467</ele>
        <time>2021-01-29T13:11:18Z</time>
      </trkpt>
      <trkpt lat="43.05997" lon="1.10321">
        <ele>465</ele>
        <time>2021-01-29T13:11:24Z</time>
      </trkpt>
      <trkpt lat="43.05967" lon="1.10332">
        <ele>462</ele>
        <time>2021-01-29T13:11:29Z</time>
      </trkpt>
      <trkpt lat="43.05938" lon="1.10334">
        <ele>459</ele>
        <time>2021-01-29T13:11:35Z</time>
      </trkpt>
      <trkpt lat="43.05905" lon="1.10322">
        <ele>456</ele>
        <time>2021-01-29T13:11:41Z</time>
      </trkpt>
      <trkpt lat="43.05776" lon="1.10263">
        <ele>449</ele>
        <time>2021-01-29T13:12:05Z</time>
      </trkpt>
      <trkpt lat="43.0575" lon="1.1026">
        <ele>448</ele>
        <time>2021-01-29T13:12:10Z</time>
      </trkpt>
      <trkpt lat="43.05727" lon="1.10271">
        <ele>450</ele>
        <time>2021-01-29T13:12:14Z</time>
      </trkpt>
      <trkpt lat="43.05706" lon="1.10285">
        <ele>450</ele>
        <time>2021-01-29T13:12:18Z</time>
      </trkpt>
      <trkpt lat="43.0566" lon="1.10324">
        <ele>450</ele>
        <time>2021-01-29T13:12:28Z</time>
      </trkpt>
      <trkpt lat="43.05644" lon="1.10331">
        <ele>451</ele>
        <time>2021-01-29T13:12:31Z</time>
      </trkpt>
      <trkpt lat="43.05574" lon="1.10347">
        <ele>452</ele>
        <time>2021-01-29T13:12:43Z</time>
      </trkpt>
      <trkpt lat="43.05556" lon="1.10346">
        <ele>453</ele>
        <time>2021-01-29T13:12:46Z</time>
      </trkpt>
      <trkpt lat="43.0554" lon="1.10342">
        <ele>454</ele>
        <time>2021-01-29T13:12:49Z</time>
      </trkpt>
      <trkpt lat="43.05522" lon="1.10334">
        <ele>456</ele>
        <time>2021-01-29T13:12:53Z</time>
      </trkpt>
      <trkpt lat="43.05507" lon="1.1033">
        <ele>457</ele>
        <time>2021-01-29T13:12:55Z</time>
      </trkpt>
      <trkpt lat="43.05495" lon="1.10334">
        <ele>456</ele>
        <time>2021-01-29T13:12:58Z</time>
      </trkpt>
      <trkpt lat="43.05454" lon="1.10374">
        <ele>450</ele>
        <time>2021-01-29T13:13:07Z</time>
      </trkpt>
      <trkpt lat="43.05441" lon="1.10381">
        <ele>449</ele>
        <time>2021-01-29T13:13:09Z</time>
      </trkpt>
      <trkpt lat="43.05428" lon="1.10378">
        <ele>450</ele>
        <time>2021-01-29T13:13:11Z</time>
      </trkpt>
      <trkpt lat="43.05418" lon="1.10366">
        <ele>451</ele>
        <time>2021-01-29T13:13:14Z</time>
      </trkpt>
      <trkpt lat="43.0541" lon="1.10337">
        <ele>453</ele>
        <time>2021-01-29T13:13:18Z</time>
      </trkpt>
      <trkpt lat="43.05389" lon="1.1029">
        <ele>454</ele>
        <time>2021-01-29T13:13:25Z</time>
      </trkpt>
      <trkpt lat="43.05377" lon="1.10257">
        <ele>456</ele>
        <time>2021-01-29T13:13:30Z</time>
      </trkpt>
      <trkpt lat="43.05369" lon="1.10219">
        <ele>456</ele>
        <time>2021-01-29T13:13:35Z</time>
      </trkpt>
      <trkpt lat="43.05343" lon="1.10192">
        <ele>454</ele>
        <time>2021-01-29T13:13:41Z</time>
      </trkpt>
      <trkpt lat="43.05331" lon="1.10183">
        <ele>453</ele>
        <time>2021-01-29T13:13:43Z</time>
      </trkpt>
      <trkpt lat="43.05304" lon="1.10179">
        <ele>452</ele>
        <time>2021-01-29T13:13:48Z</time>
      </trkpt>
      <trkpt lat="43.05282" lon="1.10181">
        <ele>451</ele>
        <time>2021-01-29T13:13:52Z</time>
      </trkpt>
      <trkpt lat="43.05221" lon="1.1021">
        <ele>445</ele>
        <time>2021-01-29T13:14:03Z</time>
      </trkpt>
      <trkpt lat="43.0521" lon="1.10206">
        <ele>444</ele>
        <time>2021-01-29T13:14:05Z</time>
      </trkpt>
      <trkpt lat="43.05195" lon="1.10212">
        <ele>442</ele>
        <time>2021-01-29T13:14:08Z</time>
      </trkpt>
      <trkpt lat="43.05098" lon="1.10246">
        <ele>439</ele>
        <time>2021-01-29T13:14:26Z</time>
      </trkpt>
      <trkpt lat="43.05075" lon="1.10259">
        <ele>438</ele>
        <time>2021-01-29T13:14:30Z</time>
      </trkpt>
      <trkpt lat="43.05039" lon="1.1029">
        <ele>437</ele>
        <time>2021-01-29T13:14:38Z</time>
      </trkpt>
      <trkpt lat="43.0502" lon="1.10298">
        <ele>438</ele>
        <time>2021-01-29T13:14:42Z</time>
      </trkpt>
      <trkpt lat="43.04989" lon="1.10308">
        <ele>439</ele>
        <time>2021-01-29T13:14:47Z</time>
      </trkpt>
      <trkpt lat="43.04974" lon="1.10309">
        <ele>439</ele>
        <time>2021-01-29T13:14:50Z</time>
      </trkpt>
      <trkpt lat="43.0496" lon="1.10311">
        <ele>439</ele>
        <time>2021-01-29T13:14:52Z</time>
      </trkpt>
      <trkpt lat="43.04873" lon="1.10287">
        <ele>441</ele>
        <time>2021-01-29T13:15:08Z</time>
      </trkpt>
      <trkpt lat="43.04856" lon="1.10292">
        <ele>441</ele>
        <time>2021-01-29T13:15:11Z</time>
      </trkpt>
      <trkpt lat="43.04847" lon="1.103">
        <ele>440</ele>
        <time>2021-01-29T13:15:13Z</time>
      </trkpt>
      <trkpt lat="43.04822" lon="1.10328">
        <ele>439</ele>
        <time>2021-01-29T13:15:19Z</time>
      </trkpt>
      <trkpt lat="43.04806" lon="1.10335">
        <ele>439</ele>
        <time>2021-01-29T13:15:22Z</time>
      </trkpt>
      <trkpt lat="43.0479" lon="1.10334">
        <ele>439</ele>
        <time>2021-01-29T13:15:25Z</time>
      </trkpt>
      <trkpt lat="43.04756" lon="1.10308">
        <ele>441</ele>
        <time>2021-01-29T13:15:32Z</time>
      </trkpt>
      <trkpt lat="43.04741" lon="1.10309">
        <ele>441</ele>
        <time>2021-01-29T13:15:34Z</time>
      </trkpt>
      <trkpt lat="43.04727" lon="1.1032">
        <ele>442</ele>
        <time>2021-01-29T13:15:37Z</time>
      </trkpt>
      <trkpt lat="43.04716" lon="1.1034">
        <ele>442</ele>
        <time>2021-01-29T13:15:41Z</time>
      </trkpt>
      <trkpt lat="43.04695" lon="1.10394">
        <ele>440</ele>
        <time>2021-01-29T13:15:48Z</time>
      </trkpt>
      <trkpt lat="43.04686" lon="1.10403">
        <ele>440</ele>
        <time>2021-01-29T13:15:50Z</time>
      </trkpt>
      <trkpt lat="43.0467" lon="1.10407">
        <ele>441</ele>
        <time>2021-01-29T13:15:53Z</time>
      </trkpt>
      <trkpt lat="43.04643" lon="1.10403">
        <ele>443</ele>
        <time>2021-01-29T13:15:58Z</time>
      </trkpt>
      <trkpt lat="43.04629" lon="1.10407">
        <ele>444</ele>
        <time>2021-01-29T13:16:01Z</time>
      </trkpt>
      <trkpt lat="43.04592" lon="1.1045">
        <ele>443</ele>
        <time>2021-01-29T13:16:09Z</time>
      </trkpt>
      <trkpt lat="43.04575" lon="1.10462">
        <ele>441</ele>
        <time>2021-01-29T13:16:13Z</time>
      </trkpt>
      <trkpt lat="43.0456" lon="1.10463">
        <ele>439</ele>
        <time>2021-01-29T13:16:15Z</time>
      </trkpt>
      <trkpt lat="43.04545" lon="1.10455">
        <ele>438</ele>
        <time>2021-01-29T13:16:18Z</time>
      </trkpt>
      <trkpt lat="43.04533" lon="1.10441">
        <ele>436</ele>
        <time>2021-01-29T13:16:21Z</time>
      </trkpt>
      <trkpt lat="43.04519" lon="1.10411">
        <ele>435</ele>
        <time>2021-01-29T13:16:26Z</time>
      </trkpt>
      <trkpt lat="43.04513" lon="1.10394">
        <ele>434</ele>
        <time>2021-01-29T13:16:28Z</time>
      </trkpt>
      <trkpt lat="43.04505" lon="1.10361">
        <ele>434</ele>
        <time>2021-01-29T13:16:33Z</time>
      </trkpt>
      <trkpt lat="43.04497" lon="1.10344">
        <ele>433</ele>
        <time>2021-01-29T13:16:35Z</time>
      </trkpt>
      <trkpt lat="43.04487" lon="1.10333">
        <ele>432</ele>
        <time>2021-01-29T13:16:38Z</time>
      </trkpt>
      <trkpt lat="43.04467" lon="1.1032">
        <ele>428</ele>
        <time>2021-01-29T13:16:42Z</time>
      </trkpt>
      <trkpt lat="43.04441" lon="1.10317">
        <ele>425</ele>
        <time>2021-01-29T13:16:46Z</time>
      </trkpt>
      <trkpt lat="43.04353" lon="1.10331">
        <ele>428</ele>
        <time>2021-01-29T13:17:02Z</time>
      </trkpt>
      <trkpt lat="43.04333" lon="1.10342">
        <ele>429</ele>
        <time>2021-01-29T13:17:06Z</time>
      </trkpt>
      <trkpt lat="43.04319" lon="1.10365">
        <ele>426</ele>
        <time>2021-01-29T13:17:10Z</time>
      </trkpt>
      <trkpt lat="43.04274" lon="1.10462">
        <ele>425</ele>
        <time>2021-01-29T13:17:25Z</time>
      </trkpt>
      <trkpt lat="43.04252" lon="1.10504">
        <ele>426</ele>
        <time>2021-01-29T13:17:31Z</time>
      </trkpt>
      <trkpt lat="43.04226" lon="1.10598">
        <ele>415</ele>
        <time>2021-01-29T13:17:44Z</time>
      </trkpt>
      <trkpt lat="43.04216" lon="1.10622">
        <ele>413</ele>
        <time>2021-01-29T13:17:48Z</time>
      </trkpt>
      <trkpt lat="43.04202" lon="1.10632">
        <ele>412</ele>
        <time>2021-01-29T13:17:51Z</time>
      </trkpt>
      <trkpt lat="43.04186" lon="1.10632">
        <ele>413</ele>
        <time>2021-01-29T13:17:54Z</time>
      </trkpt>
      <trkpt lat="43.04158" lon="1.10625">
        <ele>413</ele>
        <time>2021-01-29T13:17:59Z</time>
      </trkpt>
      <trkpt lat="43.04125" lon="1.1063">
        <ele>407</ele>
        <time>2021-01-29T13:18:05Z</time>
      </trkpt>
      <trkpt lat="43.04108" lon="1.10625">
        <ele>404</ele>
        <time>2021-01-29T13:18:08Z</time>
      </trkpt>
      <trkpt lat="43.04095" lon="1.10615">
        <ele>403</ele>
        <time>2021-01-29T13:18:10Z</time>
      </trkpt>
      <trkpt lat="43.04087" lon="1.10601">
        <ele>403</ele>
        <time>2021-01-29T13:18:13Z</time>
      </trkpt>
      <trkpt lat="43.0408" lon="1.10578">
        <ele>404</ele>
        <time>2021-01-29T13:18:16Z</time>
      </trkpt>
      <trkpt lat="43.04076" lon="1.10553">
        <ele>404</ele>
        <time>2021-01-29T13:18:19Z</time>
      </trkpt>
      <trkpt lat="43.04067" lon="1.1053">
        <ele>403</ele>
        <time>2021-01-29T13:18:23Z</time>
      </trkpt>
      <trkpt lat="43.04056" lon="1.10517">
        <ele>401</ele>
        <time>2021-01-29T13:18:25Z</time>
      </trkpt>
      <trkpt lat="43.04036" lon="1.10499">
        <ele>397</ele>
        <time>2021-01-29T13:18:30Z</time>
      </trkpt>
      <trkpt lat="43.04025" lon="1.10484">
        <ele>394</ele>
        <time>2021-01-29T13:18:32Z</time>
      </trkpt>
      <trkpt lat="43.04004" lon="1.10443">
        <ele>391</ele>
        <time>2021-01-29T13:18:39Z</time>
      </trkpt>
      <trkpt lat="43.04" lon="1.10425">
        <ele>391</ele>
        <time>2021-01-29T13:18:41Z</time>
      </trkpt>
      <trkpt lat="43.04002" lon="1.10408">
        <ele>391</ele>
        <time>2021-01-29T13:18:43Z</time>
      </trkpt>
      <trkpt lat="43.04017" lon="1.10373">
        <ele>394</ele>
        <time>2021-01-29T13:18:49Z</time>
      </trkpt>
      <trkpt lat="43.0402" lon="1.10359">
        <ele>394</ele>
        <time>2021-01-29T13:18:51Z</time>
      </trkpt>
      <trkpt lat="43.04018" lon="1.10344">
        <ele>394</ele>
        <time>2021-01-29T13:18:53Z</time>
      </trkpt>
      <trkpt lat="43.04008" lon="1.10334">
        <ele>393</ele>
        <time>2021-01-29T13:18:55Z</time>
      </trkpt>
      <trkpt lat="43.03995" lon="1.1033">
        <ele>392</ele>
        <time>2021-01-29T13:18:57Z</time>
      </trkpt>
      <trkpt lat="43.03925" lon="1.10323">
        <ele>387</ele>
        <time>2021-01-29T13:19:10Z</time>
      </trkpt>
      <trkpt lat="43.03863" lon="1.10335">
        <ele>381</ele>
        <time>2021-01-29T13:19:21Z</time>
      </trkpt>
      <trkpt lat="43.0385" lon="1.10336">
        <ele>380</ele>
        <time>2021-01-29T13:19:23Z</time>
      </trkpt>
      <trkpt lat="43.03838" lon="1.10335">
        <ele>379</ele>
        <time>2021-01-29T13:19:25Z</time>
      </trkpt>
      <trkpt lat="43.0381" lon="1.10324">
        <ele>378</ele>
        <time>2021-01-29T13:19:30Z</time>
      </trkpt>
      <trkpt lat="43.03789" lon="1.10311">
        <ele>376</ele>
        <time>2021-01-29T13:19:35Z</time>
      </trkpt>
      <trkpt lat="43.03768" lon="1.10296">
        <ele>374</ele>
        <time>2021-01-29T13:19:39Z</time>
      </trkpt>
      <trkpt lat="43.03747" lon="1.10273">
        <ele>373</ele>
        <time>2021-01-29T13:19:44Z</time>
      </trkpt>
      <trkpt lat="43.0373" lon="1.10245">
        <ele>372</ele>
        <time>2021-01-29T13:19:48Z</time>
      </trkpt>
      <trkpt lat="43.03709" lon="1.10204">
        <ele>369</ele>
        <time>2021-01-29T13:19:55Z</time>
      </trkpt>
      <trkpt lat="43.037" lon="1.10176">
        <ele>367</ele>
        <time>2021-01-29T13:19:59Z</time>
      </trkpt>
      <trkpt lat="43.03695" lon="1.10135">
        <ele>365</ele>
        <time>2021-01-29T13:20:04Z</time>
      </trkpt>
      <trkpt lat="43.03691" lon="1.10127">
        <ele>364</ele>
        <time>2021-01-29T13:20:05Z</time>
      </trkpt>
      <trkpt lat="43.03685" lon="1.10122">
        <ele>363</ele>
        <time>2021-01-29T13:20:07Z</time>
      </trkpt>
      <trkpt lat="43.03672" lon="1.1012">
        <ele>362</ele>
        <time>2021-01-29T13:20:09Z</time>
      </trkpt>
      <trkpt lat="43.03656" lon="1.10117">
        <ele>361</ele>
        <time>2021-01-29T13:20:12Z</time>
      </trkpt>
      <trkpt lat="43.03646" lon="1.10117">
        <ele>361</ele>
        <time>2021-01-29T13:20:14Z</time>
      </trkpt>
      <trkpt lat="43.03634" lon="1.10126">
        <ele>361</ele>
        <time>2021-01-29T13:20:16Z</time>
      </trkpt>
      <trkpt lat="43.03624" lon="1.10141">
        <ele>362</ele>
        <time>2021-01-29T13:20:19Z</time>
      </trkpt>
      <trkpt lat="43.03613" lon="1.10173">
        <ele>362</ele>
        <time>2021-01-29T13:20:23Z</time>
      </trkpt>
      <trkpt lat="43.03596" lon="1.1028">
        <ele>368</ele>
        <time>2021-01-29T13:20:38Z</time>
      </trkpt>
      <trkpt lat="43.0354" lon="1.10405">
        <ele>371</ele>
        <time>2021-01-29T13:20:57Z</time>
      </trkpt>
      <trkpt lat="43.03497" lon="1.10511">
        <ele>368</ele>
        <time>2021-01-29T13:21:12Z</time>
      </trkpt>
      <trkpt lat="43.03471" lon="1.1056">
        <ele>371</ele>
        <time>2021-01-29T13:21:20Z</time>
      </trkpt>
      <trkpt lat="43.03383" lon="1.10696">
        <ele>369</ele>
        <time>2021-01-29T13:21:44Z</time>
      </trkpt>
      <trkpt lat="43.03318" lon="1.10758">
        <ele>364</ele>
        <time>2021-01-29T13:21:58Z</time>
      </trkpt>
      <trkpt lat="43.03124" lon="1.10909">
        <ele>361</ele>
        <time>2021-01-29T13:22:38Z</time>
      </trkpt>
      <trkpt lat="43.03044" lon="1.1096">
        <ele>360</ele>
        <time>2021-01-29T13:22:53Z</time>
      </trkpt>
      <trkpt lat="43.02965" lon="1.11016">
        <ele>363</ele>
        <time>2021-01-29T13:23:09Z</time>
      </trkpt>
      <trkpt lat="43.02921" lon="1.11056">
        <ele>363</ele>
        <time>2021-01-29T13:23:19Z</time>
      </trkpt>
      <trkpt lat="43.02881" lon="1.11096">
        <ele>363</ele>
        <time>2021-01-29T13:23:28Z</time>
      </trkpt>
      <trkpt lat="43.02827" lon="1.11172">
        <ele>363</ele>
        <time>2021-01-29T13:23:41Z</time>
      </trkpt>
      <trkpt lat="43.02767" lon="1.11268">
        <ele>365</ele>
        <time>2021-01-29T13:23:58Z</time>
      </trkpt>
      <trkpt lat="43.02681" lon="1.11351">
        <ele>367</ele>
        <time>2021-01-29T13:24:16Z</time>
      </trkpt>
      <trkpt lat="43.0258" lon="1.11405">
        <ele>366</ele>
        <time>2021-01-29T13:24:36Z</time>
      </trkpt>
      <trkpt lat="43.02505" lon="1.11468">
        <ele>365</ele>
        <time>2021-01-29T13:24:51Z</time>
      </trkpt>
      <trkpt lat="43.02498" lon="1.11474">
        <ele>365</ele>
        <time>2021-01-29T13:24:53Z</time>
      </trkpt>
      <trkpt lat="43.02302" lon="1.11637">
        <ele>368</ele>
        <time>2021-01-29T13:25:34Z</time>
      </trkpt>
      <trkpt lat="43.02211" lon="1.11707">
        <ele>368</ele>
        <time>2021-01-29T13:25:52Z</time>
      </trkpt>
      <trkpt lat="43.02138" lon="1.11755">
        <ele>367</ele>
        <time>2021-01-29T13:26:07Z</time>
      </trkpt>
      <trkpt lat="43.02087" lon="1.11792">
        <ele>368</ele>
        <time>2021-01-29T13:26:17Z</time>
      </trkpt>
      <trkpt lat="43.0201" lon="1.11859">
        <ele>368</ele>
        <time>2021-01-29T13:26:33Z</time>
      </trkpt>
      <trkpt lat="43.01943" lon="1.11903">
        <ele>368</ele>
        <time>2021-01-29T13:26:46Z</time>
      </trkpt>
      <trkpt lat="43.01589" lon="1.12213">
        <ele>372</ele>
        <time>2021-01-29T13:28:01Z</time>
      </trkpt>
      <trkpt lat="43.01425" lon="1.1238">
        <ele>372</ele>
        <time>2021-01-29T13:28:38Z</time>
      </trkpt>
      <trkpt lat="43.01287" lon="1.12513">
        <ele>372</ele>
        <time>2021-01-29T13:29:08Z</time>
      </trkpt>
      <trkpt lat="43.0121" lon="1.12603">
        <ele>372</ele>
        <time>2021-01-29T13:29:26Z</time>
      </trkpt>
      <trkpt lat="43.01123" lon="1.12693">
        <ele>376</ele>
        <time>2021-01-29T13:29:45Z</time>
      </trkpt>
      <trkpt lat="43.01031" lon="1.12783">
        <ele>377</ele>
        <time>2021-01-29T13:30:05Z</time>
      </trkpt>
      <trkpt lat="43.00908" lon="1.12863">
        <ele>375</ele>
        <time>2021-01-29T13:30:29Z</time>
      </trkpt>
      <trkpt lat="43.00755" lon="1.13003">
        <ele>375</ele>
        <time>2021-01-29T13:31:02Z</time>
      </trkpt>
      <trkpt lat="43.00579" lon="1.13202">
        <ele>379</ele>
        <time>2021-01-29T13:31:43Z</time>
      </trkpt>
      <trkpt lat="43.00531" lon="1.13247">
        <ele>380</ele>
        <time>2021-01-29T13:31:53Z</time>
      </trkpt>
      <trkpt lat="43.00518" lon="1.13259">
        <ele>380</ele>
        <time>2021-01-29T13:31:56Z</time>
      </trkpt>
      <trkpt lat="43.00498" lon="1.13279">
        <ele>381</ele>
        <time>2021-01-29T13:32:00Z</time>
      </trkpt>
      <trkpt lat="43.00415" lon="1.13371">
        <ele>386</ele>
        <time>2021-01-29T13:32:19Z</time>
      </trkpt>
      <trkpt lat="43.00395" lon="1.13385">
        <ele>388</ele>
        <time>2021-01-29T13:32:23Z</time>
      </trkpt>
      <trkpt lat="43.00363" lon="1.13401">
        <ele>390</ele>
        <time>2021-01-29T13:32:29Z</time>
      </trkpt>
      <trkpt lat="43.00335" lon="1.13409">
        <ele>392</ele>
        <time>2021-01-29T13:32:35Z</time>
      </trkpt>
      <trkpt lat="43.00269" lon="1.13411">
        <ele>389</ele>
        <time>2021-01-29T13:32:46Z</time>
      </trkpt>
      <trkpt lat="43.00242" lon="1.13417">
        <ele>389</ele>
        <time>2021-01-29T13:32:51Z</time>
      </trkpt>
      <trkpt lat="43.00116" lon="1.13498">
        <ele>390</ele>
        <time>2021-01-29T13:33:16Z</time>
      </trkpt>
      <trkpt lat="43.00107" lon="1.13502">
        <ele>389</ele>
        <time>2021-01-29T13:33:18Z</time>
      </trkpt>
      <trkpt lat="43.0006" lon="1.13503">
        <ele>386</ele>
        <time>2021-01-29T13:33:26Z</time>
      </trkpt>
      <trkpt lat="43.00051" lon="1.13508">
        <ele>386</ele>
        <time>2021-01-29T13:33:28Z</time>
      </trkpt>
      <trkpt lat="43.00046" lon="1.13503">
        <ele>385</ele>
        <time>2021-01-29T13:33:29Z</time>
      </trkpt>
      <trkpt lat="43.00032" lon="1.13449">
        <ele>390</ele>
        <time>2021-01-29T13:33:36Z</time>
      </trkpt>
      <trkpt lat="42.9985" lon="1.13519">
        <ele>386</ele>
        <time>2021-01-29T13:34:10Z</time>
      </trkpt>
      <trkpt lat="42.99716" lon="1.13584">
        <ele>388</ele>
        <time>2021-01-29T13:34:35Z</time>
      </trkpt>
      <trkpt lat="42.99639" lon="1.13617">
        <ele>391</ele>
        <time>2021-01-29T13:34:50Z</time>
      </trkpt>
      <trkpt lat="42.99533" lon="1.13647">
        <ele>390</ele>
        <time>2021-01-29T13:35:09Z</time>
      </trkpt>
      <trkpt lat="42.99326" lon="1.13715">
        <ele>388</ele>
        <time>2021-01-29T13:35:47Z</time>
      </trkpt>
      <trkpt lat="42.99323" lon="1.13713">
        <ele>388</ele>
        <time>2021-01-29T13:35:47Z</time>
      </trkpt>
      <trkpt lat="42.9925" lon="1.13746">
        <ele>388</ele>
        <time>2021-01-29T13:36:01Z</time>
      </trkpt>
      <trkpt lat="42.99227" lon="1.13757">
        <ele>388</ele>
        <time>2021-01-29T13:36:05Z</time>
      </trkpt>
      <trkpt lat="42.99222" lon="1.13759">
        <ele>388</ele>
        <time>2021-01-29T13:36:06Z</time>
      </trkpt>
      <trkpt lat="42.99151" lon="1.13793">
        <ele>388</ele>
        <time>2021-01-29T13:36:20Z</time>
      </trkpt>
      <trkpt lat="42.99052" lon="1.13872">
        <ele>388</ele>
        <time>2021-01-29T13:36:40Z</time>
      </trkpt>
      <trkpt lat="42.99014" lon="1.13891">
        <ele>388</ele>
        <time>2021-01-29T13:36:47Z</time>
      </trkpt>
      <trkpt lat="42.98969" lon="1.13908">
        <ele>389</ele>
        <time>2021-01-29T13:36:55Z</time>
      </trkpt>
      <trkpt lat="42.98941" lon="1.13918">
        <ele>390</ele>
        <time>2021-01-29T13:37:01Z</time>
      </trkpt>
      <trkpt lat="42.98906" lon="1.13931">
        <ele>391</ele>
        <time>2021-01-29T13:37:07Z</time>
      </trkpt>
      <trkpt lat="42.98876" lon="1.13941">
        <ele>391</ele>
        <time>2021-01-29T13:37:13Z</time>
      </trkpt>
      <trkpt lat="42.98858" lon="1.13947">
        <ele>392</ele>
        <time>2021-01-29T13:37:16Z</time>
      </trkpt>
      <trkpt lat="42.98837" lon="1.13957">
        <ele>392</ele>
        <time>2021-01-29T13:37:20Z</time>
      </trkpt>
      <trkpt lat="42.98814" lon="1.13965">
        <ele>392</ele>
        <time>2021-01-29T13:37:24Z</time>
      </trkpt>
      <trkpt lat="42.98806" lon="1.13968">
        <ele>392</ele>
        <time>2021-01-29T13:37:26Z</time>
      </trkpt>
      <trkpt lat="42.98778" lon="1.13979">
        <ele>392</ele>
        <time>2021-01-29T13:37:31Z</time>
      </trkpt>
      <trkpt lat="42.98744" lon="1.13991">
        <ele>392</ele>
        <time>2021-01-29T13:37:37Z</time>
      </trkpt>
      <trkpt lat="42.9874" lon="1.13992">
        <ele>392</ele>
        <time>2021-01-29T13:37:38Z</time>
      </trkpt>
      <trkpt lat="42.98713" lon="1.14003">
        <ele>392</ele>
        <time>2021-01-29T13:37:43Z</time>
      </trkpt>
      <trkpt lat="42.98674" lon="1.14015">
        <ele>392</ele>
        <time>2021-01-29T13:37:50Z</time>
      </trkpt>
      <trkpt lat="42.98671" lon="1.14015">
        <ele>391</ele>
        <time>2021-01-29T13:37:50Z</time>
      </trkpt>
      <trkpt lat="42.98657" lon="1.14018">
        <ele>391</ele>
        <time>2021-01-29T13:37:53Z</time>
      </trkpt>
      <trkpt lat="42.98632" lon="1.14016">
        <ele>390</ele>
        <time>2021-01-29T13:37:57Z</time>
      </trkpt>
      <trkpt lat="42.98618" lon="1.14014">
        <ele>390</ele>
        <time>2021-01-29T13:38:00Z</time>
      </trkpt>
      <trkpt lat="42.98614" lon="1.14011">
        <ele>390</ele>
        <time>2021-01-29T13:38:01Z</time>
      </trkpt>
      <trkpt lat="42.98609" lon="1.14011">
        <ele>390</ele>
        <time>2021-01-29T13:38:02Z</time>
      </trkpt>
      <trkpt lat="42.98583" lon="1.1401">
        <ele>389</ele>
        <time>2021-01-29T13:38:06Z</time>
      </trkpt>
      <trkpt lat="42.98553" lon="1.1403">
        <ele>390</ele>
        <time>2021-01-29T13:38:12Z</time>
      </trkpt>
      <trkpt lat="42.98517" lon="1.14052">
        <ele>392</ele>
        <time>2021-01-29T13:38:19Z</time>
      </trkpt>
      <trkpt lat="42.98498" lon="1.14064">
        <ele>393</ele>
        <time>2021-01-29T13:38:23Z</time>
      </trkpt>
      <trkpt lat="42.98493" lon="1.14067">
        <ele>393</ele>
        <time>2021-01-29T13:38:24Z</time>
      </trkpt>
      <trkpt lat="42.98489" lon="1.1407">
        <ele>393</ele>
        <time>2021-01-29T13:38:25Z</time>
      </trkpt>
      <trkpt lat="42.98467" lon="1.14085">
        <ele>393</ele>
        <time>2021-01-29T13:38:29Z</time>
      </trkpt>
      <trkpt lat="42.98461" lon="1.1409">
        <ele>394</ele>
        <time>2021-01-29T13:38:30Z</time>
      </trkpt>
      <trkpt lat="42.98452" lon="1.14095">
        <ele>394</ele>
        <time>2021-01-29T13:38:32Z</time>
      </trkpt>
      <trkpt lat="42.98443" lon="1.14101">
        <ele>394</ele>
        <time>2021-01-29T13:38:34Z</time>
      </trkpt>
      <trkpt lat="42.98425" lon="1.14114">
        <ele>394</ele>
        <time>2021-01-29T13:38:37Z</time>
      </trkpt>
      <trkpt lat="42.98419" lon="1.14119">
        <ele>394</ele>
        <time>2021-01-29T13:38:39Z</time>
      </trkpt>
      <trkpt lat="42.98417" lon="1.1412">
        <ele>394</ele>
        <time>2021-01-29T13:38:39Z</time>
      </trkpt>
      <trkpt lat="42.98414" lon="1.14122">
        <ele>394</ele>
        <time>2021-01-29T13:38:40Z</time>
      </trkpt>
      <trkpt lat="42.98388" lon="1.14139">
        <ele>395</ele>
        <time>2021-01-29T13:38:45Z</time>
      </trkpt>
      <trkpt lat="42.98374" lon="1.14148">
        <ele>396</ele>
        <time>2021-01-29T13:38:47Z</time>
      </trkpt>
      <trkpt lat="42.98367" lon="1.14153">
        <ele>396</ele>
        <time>2021-01-29T13:38:49Z</time>
      </trkpt>
      <trkpt lat="42.98357" lon="1.1416">
        <ele>396</ele>
        <time>2021-01-29T13:38:51Z</time>
      </trkpt>
      <trkpt lat="42.98349" lon="1.14165">
        <ele>396</ele>
        <time>2021-01-29T13:38:52Z</time>
      </trkpt>
      <trkpt lat="42.98341" lon="1.14171">
        <ele>397</ele>
        <time>2021-01-29T13:38:54Z</time>
      </trkpt>
      <trkpt lat="42.98331" lon="1.14176">
        <ele>397</ele>
        <time>2021-01-29T13:38:56Z</time>
      </trkpt>
      <trkpt lat="42.98323" lon="1.1418">
        <ele>397</ele>
        <time>2021-01-29T13:38:57Z</time>
      </trkpt>
      <trkpt lat="42.98317" lon="1.14184">
        <ele>398</ele>
        <time>2021-01-29T13:38:59Z</time>
      </trkpt>
      <trkpt lat="42.98218" lon="1.14224">
        <ele>402</ele>
        <time>2021-01-29T13:39:17Z</time>
      </trkpt>
      <trkpt lat="42.98169" lon="1.14247">
        <ele>405</ele>
        <time>2021-01-29T13:39:26Z</time>
      </trkpt>
      <trkpt lat="42.98163" lon="1.1425">
        <ele>405</ele>
        <time>2021-01-29T13:39:27Z</time>
      </trkpt>
      <trkpt lat="42.98143" lon="1.14262">
        <ele>405</ele>
        <time>2021-01-29T13:39:31Z</time>
      </trkpt>
      <trkpt lat="42.9812" lon="1.14279">
        <ele>404</ele>
        <time>2021-01-29T13:39:36Z</time>
      </trkpt>
      <trkpt lat="42.98102" lon="1.14296">
        <ele>402</ele>
        <time>2021-01-29T13:39:40Z</time>
      </trkpt>
      <trkpt lat="42.9807" lon="1.14334">
        <ele>399</ele>
        <time>2021-01-29T13:39:47Z</time>
      </trkpt>
      <trkpt lat="42.98052" lon="1.14362">
        <ele>399</ele>
        <time>2021-01-29T13:39:52Z</time>
      </trkpt>
      <trkpt lat="42.98021" lon="1.14397">
        <ele>399</ele>
        <time>2021-01-29T13:39:59Z</time>
      </trkpt>
      <trkpt lat="42.98021" lon="1.14407">
        <ele>398</ele>
        <time>2021-01-29T13:40:01Z</time>
      </trkpt>
      <trkpt lat="42.98024" lon="1.14411">
        <ele>398</ele>
        <time>2021-01-29T13:40:01Z</time>
      </trkpt>
      <trkpt lat="42.98018" lon="1.1443">
        <ele>397</ele>
        <time>2021-01-29T13:40:04Z</time>
      </trkpt>
      <trkpt lat="42.98013" lon="1.14453">
        <ele>396</ele>
        <time>2021-01-29T13:40:07Z</time>
      </trkpt>
      <trkpt lat="42.98003" lon="1.1449">
        <ele>395</ele>
        <time>2021-01-29T13:40:12Z</time>
      </trkpt>
      <trkpt lat="42.97997" lon="1.14523">
        <ele>395</ele>
        <time>2021-01-29T13:40:17Z</time>
      </trkpt>
      <trkpt lat="42.97994" lon="1.14561">
        <ele>395</ele>
        <time>2021-01-29T13:40:22Z</time>
      </trkpt>
      <trkpt lat="42.97993" lon="1.14594">
        <ele>394</ele>
        <time>2021-01-29T13:40:26Z</time>
      </trkpt>
      <trkpt lat="42.97995" lon="1.1463">
        <ele>394</ele>
        <time>2021-01-29T13:40:31Z</time>
      </trkpt>
      <trkpt lat="42.97999" lon="1.14676">
        <ele>393</ele>
        <time>2021-01-29T13:40:37Z</time>
      </trkpt>
      <trkpt lat="42.98006" lon="1.14751">
        <ele>392</ele>
        <time>2021-01-29T13:40:47Z</time>
      </trkpt>
      <trkpt lat="42.98007" lon="1.14761">
        <ele>393</ele>
        <time>2021-01-29T13:40:48Z</time>
      </trkpt>
      <trkpt lat="42.9801" lon="1.14801">
        <ele>394</ele>
        <time>2021-01-29T13:40:53Z</time>
      </trkpt>
      <trkpt lat="42.9801" lon="1.14801">
        <ele>394</ele>
        <time>2021-01-29T13:40:53Z</time>
      </trkpt>
      <trkpt lat="42.98013" lon="1.14828">
        <ele>395</ele>
        <time>2021-01-29T13:40:57Z</time>
      </trkpt>
      <trkpt lat="42.98015" lon="1.1484">
        <ele>395</ele>
        <time>2021-01-29T13:40:58Z</time>
      </trkpt>
      <trkpt lat="42.98022" lon="1.14865">
        <ele>396</ele>
        <time>2021-01-29T13:41:02Z</time>
      </trkpt>
      <trkpt lat="42.98026" lon="1.14876">
        <ele>396</ele>
        <time>2021-01-29T13:41:03Z</time>
      </trkpt>
      <trkpt lat="42.98029" lon="1.14885">
        <ele>396</ele>
        <time>2021-01-29T13:41:05Z</time>
      </trkpt>
      <trkpt lat="42.98036" lon="1.14913">
        <ele>397</ele>
        <time>2021-01-29T13:41:09Z</time>
      </trkpt>
      <trkpt lat="42.9806" lon="1.14968">
        <ele>397</ele>
        <time>2021-01-29T13:41:17Z</time>
      </trkpt>
      <trkpt lat="42.98061" lon="1.14972">
        <ele>397</ele>
        <time>2021-01-29T13:41:17Z</time>
      </trkpt>
      <trkpt lat="42.9808" lon="1.15008">
        <ele>397</ele>
        <time>2021-01-29T13:41:23Z</time>
      </trkpt>
      <trkpt lat="42.98103" lon="1.15042">
        <ele>396</ele>
        <time>2021-01-29T13:41:29Z</time>
      </trkpt>
      <trkpt lat="42.98108" lon="1.15048">
        <ele>396</ele>
        <time>2021-01-29T13:41:30Z</time>
      </trkpt>
      <trkpt lat="42.98105" lon="1.15056">
        <ele>396</ele>
        <time>2021-01-29T13:41:32Z</time>
      </trkpt>
      <trkpt lat="42.98105" lon="1.15064">
        <ele>396</ele>
        <time>2021-01-29T13:41:33Z</time>
      </trkpt>
      <trkpt lat="42.98108" lon="1.15072">
        <ele>396</ele>
        <time>2021-01-29T13:41:34Z</time>
      </trkpt>
      <trkpt lat="42.98078" lon="1.15098">
        <ele>396</ele>
        <time>2021-01-29T13:41:40Z</time>
      </trkpt>
      <trkpt lat="42.98043" lon="1.15134">
        <ele>397</ele>
        <time>2021-01-29T13:41:48Z</time>
      </trkpt>
      <trkpt lat="42.97963" lon="1.15221">
        <ele>398</ele>
        <time>2021-01-29T13:42:06Z</time>
      </trkpt>
      <trkpt lat="42.97776" lon="1.15408">
        <ele>399</ele>
        <time>2021-01-29T13:42:47Z</time>
      </trkpt>
      <trkpt lat="42.97725" lon="1.15465">
        <ele>401</ele>
        <time>2021-01-29T13:42:59Z</time>
      </trkpt>
      <trkpt lat="42.97701" lon="1.15501">
        <ele>401</ele>
        <time>2021-01-29T13:43:05Z</time>
      </trkpt>
      <trkpt lat="42.97677" lon="1.15545">
        <ele>402</ele>
        <time>2021-01-29T13:43:13Z</time>
      </trkpt>
      <trkpt lat="42.97661" lon="1.15591">
        <ele>402</ele>
        <time>2021-01-29T13:43:19Z</time>
      </trkpt>
      <trkpt lat="42.97651" lon="1.1564">
        <ele>404</ele>
        <time>2021-01-29T13:43:26Z</time>
      </trkpt>
      <trkpt lat="42.97628" lon="1.15792">
        <ele>408</ele>
        <time>2021-01-29T13:43:46Z</time>
      </trkpt>
      <trkpt lat="42.976" lon="1.1593">
        <ele>409</ele>
        <time>2021-01-29T13:44:05Z</time>
      </trkpt>
      <trkpt lat="42.97556" lon="1.16071">
        <ele>407</ele>
        <time>2021-01-29T13:44:25Z</time>
      </trkpt>
      <trkpt lat="42.97545" lon="1.1609">
        <ele>406</ele>
        <time>2021-01-29T13:44:28Z</time>
      </trkpt>
      <trkpt lat="42.97526" lon="1.16115">
        <ele>404</ele>
        <time>2021-01-29T13:44:32Z</time>
      </trkpt>
      <trkpt lat="42.97456" lon="1.16199">
        <ele>401</ele>
        <time>2021-01-29T13:44:49Z</time>
      </trkpt>
      <trkpt lat="42.97403" lon="1.1626">
        <ele>401</ele>
        <time>2021-01-29T13:45:01Z</time>
      </trkpt>
      <trkpt lat="42.97329" lon="1.16336">
        <ele>403</ele>
        <time>2021-01-29T13:45:18Z</time>
      </trkpt>
      <trkpt lat="42.97292" lon="1.1637">
        <ele>405</ele>
        <time>2021-01-29T13:45:26Z</time>
      </trkpt>
      <trkpt lat="42.97237" lon="1.16414">
        <ele>407</ele>
        <time>2021-01-29T13:45:37Z</time>
      </trkpt>
      <trkpt lat="42.97145" lon="1.16497">
        <ele>405</ele>
        <time>2021-01-29T13:45:57Z</time>
      </trkpt>
      <trkpt lat="42.97119" lon="1.16523">
        <ele>406</ele>
        <time>2021-01-29T13:46:02Z</time>
      </trkpt>
      <trkpt lat="42.96933" lon="1.1674">
        <ele>406</ele>
        <time>2021-01-29T13:46:46Z</time>
      </trkpt>
      <trkpt lat="42.96792" lon="1.16899">
        <ele>408</ele>
        <time>2021-01-29T13:47:19Z</time>
      </trkpt>
      <trkpt lat="42.96766" lon="1.16924">
        <ele>408</ele>
        <time>2021-01-29T13:47:24Z</time>
      </trkpt>
      <trkpt lat="42.96502" lon="1.17109">
        <ele>410</ele>
        <time>2021-01-29T13:48:17Z</time>
      </trkpt>
      <trkpt lat="42.96464" lon="1.17142">
        <ele>410</ele>
        <time>2021-01-29T13:48:25Z</time>
      </trkpt>
      <trkpt lat="42.96415" lon="1.17198">
        <ele>409</ele>
        <time>2021-01-29T13:48:36Z</time>
      </trkpt>
      <trkpt lat="42.96285" lon="1.17382">
        <ele>420</ele>
        <time>2021-01-29T13:49:10Z</time>
      </trkpt>
      <trkpt lat="42.96258" lon="1.17416">
        <ele>422</ele>
        <time>2021-01-29T13:49:16Z</time>
      </trkpt>
      <trkpt lat="42.9623" lon="1.17443">
        <ele>424</ele>
        <time>2021-01-29T13:49:22Z</time>
      </trkpt>
      <trkpt lat="42.96207" lon="1.17462">
        <ele>422</ele>
        <time>2021-01-29T13:49:27Z</time>
      </trkpt>
      <trkpt lat="42.96162" lon="1.17494">
        <ele>415</ele>
        <time>2021-01-29T13:49:36Z</time>
      </trkpt>
      <trkpt lat="42.96134" lon="1.17509">
        <ele>416</ele>
        <time>2021-01-29T13:49:41Z</time>
      </trkpt>
      <trkpt lat="42.96106" lon="1.17519">
        <ele>416</ele>
        <time>2021-01-29T13:49:47Z</time>
      </trkpt>
      <trkpt lat="42.96012" lon="1.17535">
        <ele>417</ele>
        <time>2021-01-29T13:50:03Z</time>
      </trkpt>
      <trkpt lat="42.95814" lon="1.17605">
        <ele>417</ele>
        <time>2021-01-29T13:50:40Z</time>
      </trkpt>
      <trkpt lat="42.95751" lon="1.1763">
        <ele>417</ele>
        <time>2021-01-29T13:50:51Z</time>
      </trkpt>
      <trkpt lat="42.95727" lon="1.17642">
        <ele>416</ele>
        <time>2021-01-29T13:50:56Z</time>
      </trkpt>
      <trkpt lat="42.95676" lon="1.17672">
        <ele>415</ele>
        <time>2021-01-29T13:51:06Z</time>
      </trkpt>
      <trkpt lat="42.95678" lon="1.17684">
        <ele>415</ele>
        <time>2021-01-29T13:51:08Z</time>
      </trkpt>
      <trkpt lat="42.95677" lon="1.17693">
        <ele>416</ele>
        <time>2021-01-29T13:51:09Z</time>
      </trkpt>
      <trkpt lat="42.95667" lon="1.17715">
        <ele>416</ele>
        <time>2021-01-29T13:51:12Z</time>
      </trkpt>
      <trkpt lat="42.95658" lon="1.17729">
        <ele>417</ele>
        <time>2021-01-29T13:51:15Z</time>
      </trkpt>
      <trkpt lat="42.95634" lon="1.17744">
        <ele>418</ele>
        <time>2021-01-29T13:51:19Z</time>
      </trkpt>
      <trkpt lat="42.95625" lon="1.17752">
        <ele>418</ele>
        <time>2021-01-29T13:51:21Z</time>
      </trkpt>
      <trkpt lat="42.95624" lon="1.17754">
        <ele>418</ele>
        <time>2021-01-29T13:51:21Z</time>
      </trkpt>
      <trkpt lat="42.95616" lon="1.17766">
        <ele>419</ele>
        <time>2021-01-29T13:51:24Z</time>
      </trkpt>
      <trkpt lat="42.9561" lon="1.17807">
        <ele>423</ele>
        <time>2021-01-29T13:51:29Z</time>
      </trkpt>
      <trkpt lat="42.9561" lon="1.17843">
        <ele>427</ele>
        <time>2021-01-29T13:51:34Z</time>
      </trkpt>
      <trkpt lat="42.95613" lon="1.17895">
        <ele>432</ele>
        <time>2021-01-29T13:51:40Z</time>
      </trkpt>
      <trkpt lat="42.95628" lon="1.17993">
        <ele>442</ele>
        <time>2021-01-29T13:51:54Z</time>
      </trkpt>
      <trkpt lat="42.95632" lon="1.18015">
        <ele>443</ele>
        <time>2021-01-29T13:51:56Z</time>
      </trkpt>
      <trkpt lat="42.95647" lon="1.18119">
        <ele>447</ele>
        <time>2021-01-29T13:52:10Z</time>
      </trkpt>
      <trkpt lat="42.95651" lon="1.18168">
        <ele>448</ele>
        <time>2021-01-29T13:52:17Z</time>
      </trkpt>
      <trkpt lat="42.9565" lon="1.18199">
        <ele>448</ele>
        <time>2021-01-29T13:52:21Z</time>
      </trkpt>
      <trkpt lat="42.95669" lon="1.18293">
        <ele>443</ele>
        <time>2021-01-29T13:52:33Z</time>
      </trkpt>
      <trkpt lat="42.95682" lon="1.18342">
        <ele>447</ele>
        <time>2021-01-29T13:52:40Z</time>
      </trkpt>
      <trkpt lat="42.95693" lon="1.18365">
        <ele>451</ele>
        <time>2021-01-29T13:52:44Z</time>
      </trkpt>
      <trkpt lat="42.95713" lon="1.18395">
        <ele>454</ele>
        <time>2021-01-29T13:52:49Z</time>
      </trkpt>
      <trkpt lat="42.9573" lon="1.18437">
        <ele>453</ele>
        <time>2021-01-29T13:52:55Z</time>
      </trkpt>
      <trkpt lat="42.95732" lon="1.18469">
        <ele>451</ele>
        <time>2021-01-29T13:53:00Z</time>
      </trkpt>
      <trkpt lat="42.95729" lon="1.18487">
        <ele>449</ele>
        <time>2021-01-29T13:53:02Z</time>
      </trkpt>
      <trkpt lat="42.95711" lon="1.18532">
        <ele>450</ele>
        <time>2021-01-29T13:53:09Z</time>
      </trkpt>
      <trkpt lat="42.95705" lon="1.18559">
        <ele>451</ele>
        <time>2021-01-29T13:53:12Z</time>
      </trkpt>
      <trkpt lat="42.95703" lon="1.18584">
        <ele>452</ele>
        <time>2021-01-29T13:53:16Z</time>
      </trkpt>
      <trkpt lat="42.95709" lon="1.18608">
        <ele>452</ele>
        <time>2021-01-29T13:53:19Z</time>
      </trkpt>
      <trkpt lat="42.95728" lon="1.18669">
        <ele>452</ele>
        <time>2021-01-29T13:53:27Z</time>
      </trkpt>
      <trkpt lat="42.95732" lon="1.18694">
        <ele>451</ele>
        <time>2021-01-29T13:53:31Z</time>
      </trkpt>
      <trkpt lat="42.95718" lon="1.1878">
        <ele>452</ele>
        <time>2021-01-29T13:53:42Z</time>
      </trkpt>
      <trkpt lat="42.95675" lon="1.1899">
        <ele>453</ele>
        <time>2021-01-29T13:54:11Z</time>
      </trkpt>
      <trkpt lat="42.95671" lon="1.19021">
        <ele>453</ele>
        <time>2021-01-29T13:54:15Z</time>
      </trkpt>
      <trkpt lat="42.9567" lon="1.19037">
        <ele>453</ele>
        <time>2021-01-29T13:54:17Z</time>
      </trkpt>
      <trkpt lat="42.95674" lon="1.19049">
        <ele>454</ele>
        <time>2021-01-29T13:54:19Z</time>
      </trkpt>
      <trkpt lat="42.95689" lon="1.19073">
        <ele>456</ele>
        <time>2021-01-29T13:54:23Z</time>
      </trkpt>
      <trkpt lat="42.95722" lon="1.19111">
        <ele>458</ele>
        <time>2021-01-29T13:54:30Z</time>
      </trkpt>
      <trkpt lat="42.95751" lon="1.1915">
        <ele>456</ele>
        <time>2021-01-29T13:54:38Z</time>
      </trkpt>
      <trkpt lat="42.95755" lon="1.19167">
        <ele>457</ele>
        <time>2021-01-29T13:54:40Z</time>
      </trkpt>
      <trkpt lat="42.95753" lon="1.19186">
        <ele>457</ele>
        <time>2021-01-29T13:54:42Z</time>
      </trkpt>
      <trkpt lat="42.95741" lon="1.19256">
        <ele>457</ele>
        <time>2021-01-29T13:54:52Z</time>
      </trkpt>
      <trkpt lat="42.95738" lon="1.19285">
        <ele>459</ele>
        <time>2021-01-29T13:54:56Z</time>
      </trkpt>
      <trkpt lat="42.95738" lon="1.19308">
        <ele>460</ele>
        <time>2021-01-29T13:54:59Z</time>
      </trkpt>
      <trkpt lat="42.95743" lon="1.19333">
        <ele>460</ele>
        <time>2021-01-29T13:55:02Z</time>
      </trkpt>
      <trkpt lat="42.95771" lon="1.19445">
        <ele>465</ele>
        <time>2021-01-29T13:55:17Z</time>
      </trkpt>
      <trkpt lat="42.95774" lon="1.19474">
        <ele>464</ele>
        <time>2021-01-29T13:55:21Z</time>
      </trkpt>
      <trkpt lat="42.95775" lon="1.19567">
        <ele>460</ele>
        <time>2021-01-29T13:55:33Z</time>
      </trkpt>
      <trkpt lat="42.9576" lon="1.19656">
        <ele>464</ele>
        <time>2021-01-29T13:55:45Z</time>
      </trkpt>
      <trkpt lat="42.95748" lon="1.19701">
        <ele>465</ele>
        <time>2021-01-29T13:55:51Z</time>
      </trkpt>
      <trkpt lat="42.95715" lon="1.19762">
        <ele>468</ele>
        <time>2021-01-29T13:56:01Z</time>
      </trkpt>
      <trkpt lat="42.95711" lon="1.19793">
        <ele>467</ele>
        <time>2021-01-29T13:56:05Z</time>
      </trkpt>
      <trkpt lat="42.95715" lon="1.19837">
        <ele>467</ele>
        <time>2021-01-29T13:56:11Z</time>
      </trkpt>
      <trkpt lat="42.95753" lon="1.20004">
        <ele>459</ele>
        <time>2021-01-29T13:56:34Z</time>
      </trkpt>
      <trkpt lat="42.95768" lon="1.20078">
        <ele>464</ele>
        <time>2021-01-29T13:56:44Z</time>
      </trkpt>
      <trkpt lat="42.95769" lon="1.20101">
        <ele>466</ele>
        <time>2021-01-29T13:56:47Z</time>
      </trkpt>
      <trkpt lat="42.95766" lon="1.20135">
        <ele>468</ele>
        <time>2021-01-29T13:56:51Z</time>
      </trkpt>
      <trkpt lat="42.9576" lon="1.20172">
        <ele>468</ele>
        <time>2021-01-29T13:56:56Z</time>
      </trkpt>
      <trkpt lat="42.95756" lon="1.20206">
        <ele>467</ele>
        <time>2021-01-29T13:57:01Z</time>
      </trkpt>
      <trkpt lat="42.95736" lon="1.20327">
        <ele>470</ele>
        <time>2021-01-29T13:57:17Z</time>
      </trkpt>
      <trkpt lat="42.95727" lon="1.20437">
        <ele>475</ele>
        <time>2021-01-29T13:57:31Z</time>
      </trkpt>
      <trkpt lat="42.9572" lon="1.20468">
        <ele>475</ele>
        <time>2021-01-29T13:57:36Z</time>
      </trkpt>
      <trkpt lat="42.957" lon="1.20528">
        <ele>475</ele>
        <time>2021-01-29T13:57:44Z</time>
      </trkpt>
      <trkpt lat="42.95688" lon="1.20573">
        <ele>476</ele>
        <time>2021-01-29T13:57:50Z</time>
      </trkpt>
      <trkpt lat="42.95683" lon="1.20609">
        <ele>477</ele>
        <time>2021-01-29T13:57:55Z</time>
      </trkpt>
      <trkpt lat="42.95676" lon="1.20688">
        <ele>480</ele>
        <time>2021-01-29T13:58:06Z</time>
      </trkpt>
      <trkpt lat="42.95667" lon="1.20745">
        <ele>476</ele>
        <time>2021-01-29T13:58:13Z</time>
      </trkpt>
      <trkpt lat="42.95661" lon="1.20767">
        <ele>477</ele>
        <time>2021-01-29T13:58:16Z</time>
      </trkpt>
      <trkpt lat="42.95648" lon="1.208">
        <ele>477</ele>
        <time>2021-01-29T13:58:21Z</time>
      </trkpt>
      <trkpt lat="42.95635" lon="1.20823">
        <ele>476</ele>
        <time>2021-01-29T13:58:25Z</time>
      </trkpt>
      <trkpt lat="42.95628" lon="1.20845">
        <ele>476</ele>
        <time>2021-01-29T13:58:28Z</time>
      </trkpt>
      <trkpt lat="42.95625" lon="1.20866">
        <ele>477</ele>
        <time>2021-01-29T13:58:31Z</time>
      </trkpt>
      <trkpt lat="42.95622" lon="1.20898">
        <ele>478</ele>
        <time>2021-01-29T13:58:35Z</time>
      </trkpt>
      <trkpt lat="42.95639" lon="1.21006">
        <ele>481</ele>
        <time>2021-01-29T13:58:49Z</time>
      </trkpt>
      <trkpt lat="42.95636" lon="1.21058">
        <ele>483</ele>
        <time>2021-01-29T13:58:56Z</time>
      </trkpt>
      <trkpt lat="42.95635" lon="1.21082">
        <ele>484</ele>
        <time>2021-01-29T13:58:59Z</time>
      </trkpt>
      <trkpt lat="42.95623" lon="1.21196">
        <ele>489</ele>
        <time>2021-01-29T13:59:14Z</time>
      </trkpt>
      <trkpt lat="42.95619" lon="1.21219">
        <ele>490</ele>
        <time>2021-01-29T13:59:17Z</time>
      </trkpt>
      <trkpt lat="42.95595" lon="1.21302">
        <ele>484</ele>
        <time>2021-01-29T13:59:29Z</time>
      </trkpt>
      <trkpt lat="42.95593" lon="1.21321">
        <ele>484</ele>
        <time>2021-01-29T13:59:32Z</time>
      </trkpt>
      <trkpt lat="42.95594" lon="1.21342">
        <ele>485</ele>
        <time>2021-01-29T13:59:34Z</time>
      </trkpt>
      <trkpt lat="42.95606" lon="1.21389">
        <ele>490</ele>
        <time>2021-01-29T13:59:41Z</time>
      </trkpt>
      <trkpt lat="42.95645" lon="1.21522">
        <ele>498</ele>
        <time>2021-01-29T13:59:59Z</time>
      </trkpt>
      <trkpt lat="42.95651" lon="1.21548">
        <ele>498</ele>
        <time>2021-01-29T14:00:03Z</time>
      </trkpt>
      <trkpt lat="42.95654" lon="1.2158">
        <ele>496</ele>
        <time>2021-01-29T14:00:07Z</time>
      </trkpt>
      <trkpt lat="42.95659" lon="1.2169">
        <ele>495</ele>
        <time>2021-01-29T14:00:22Z</time>
      </trkpt>
      <trkpt lat="42.95664" lon="1.21764">
        <ele>496</ele>
        <time>2021-01-29T14:00:31Z</time>
      </trkpt>
      <trkpt lat="42.95674" lon="1.21957">
        <ele>493</ele>
        <time>2021-01-29T14:00:56Z</time>
      </trkpt>
      <trkpt lat="42.95677" lon="1.22078">
        <ele>497</ele>
        <time>2021-01-29T14:01:12Z</time>
      </trkpt>
      <trkpt lat="42.95682" lon="1.22108">
        <ele>499</ele>
        <time>2021-01-29T14:01:16Z</time>
      </trkpt>
      <trkpt lat="42.95709" lon="1.2218">
        <ele>507</ele>
        <time>2021-01-29T14:01:27Z</time>
      </trkpt>
      <trkpt lat="42.95715" lon="1.22202">
        <ele>508</ele>
        <time>2021-01-29T14:01:30Z</time>
      </trkpt>
      <trkpt lat="42.95725" lon="1.22311">
        <ele>509</ele>
        <time>2021-01-29T14:01:44Z</time>
      </trkpt>
      <trkpt lat="42.95722" lon="1.22346">
        <ele>508</ele>
        <time>2021-01-29T14:01:49Z</time>
      </trkpt>
      <trkpt lat="42.9572" lon="1.22361">
        <ele>508</ele>
        <time>2021-01-29T14:01:51Z</time>
      </trkpt>
      <trkpt lat="42.95703" lon="1.22461">
        <ele>508</ele>
        <time>2021-01-29T14:02:04Z</time>
      </trkpt>
      <trkpt lat="42.95695" lon="1.22499">
        <ele>508</ele>
        <time>2021-01-29T14:02:09Z</time>
      </trkpt>
      <trkpt lat="42.95686" lon="1.22525">
        <ele>505</ele>
        <time>2021-01-29T14:02:13Z</time>
      </trkpt>
      <trkpt lat="42.95654" lon="1.22648">
        <ele>503</ele>
        <time>2021-01-29T14:02:30Z</time>
      </trkpt>
      <trkpt lat="42.95653" lon="1.22663">
        <ele>503</ele>
        <time>2021-01-29T14:02:32Z</time>
      </trkpt>
      <trkpt lat="42.95655" lon="1.22681">
        <ele>504</ele>
        <time>2021-01-29T14:02:34Z</time>
      </trkpt>
      <trkpt lat="42.95662" lon="1.22699">
        <ele>505</ele>
        <time>2021-01-29T14:02:37Z</time>
      </trkpt>
      <trkpt lat="42.95705" lon="1.22785">
        <ele>513</ele>
        <time>2021-01-29T14:02:50Z</time>
      </trkpt>
      <trkpt lat="42.95711" lon="1.22804">
        <ele>515</ele>
        <time>2021-01-29T14:02:53Z</time>
      </trkpt>
      <trkpt lat="42.95718" lon="1.22845">
        <ele>518</ele>
        <time>2021-01-29T14:02:59Z</time>
      </trkpt>
      <trkpt lat="42.95729" lon="1.22878">
        <ele>516</ele>
        <time>2021-01-29T14:03:03Z</time>
      </trkpt>
      <trkpt lat="42.9574" lon="1.22896">
        <ele>514</ele>
        <time>2021-01-29T14:03:06Z</time>
      </trkpt>
      <trkpt lat="42.95741" lon="1.22904">
        <ele>514</ele>
        <time>2021-01-29T14:03:07Z</time>
      </trkpt>
      <trkpt lat="42.95745" lon="1.22954">
        <ele>512</ele>
        <time>2021-01-29T14:03:14Z</time>
      </trkpt>
      <trkpt lat="42.95762" lon="1.23126">
        <ele>509</ele>
        <time>2021-01-29T14:03:37Z</time>
      </trkpt>
      <trkpt lat="42.95759" lon="1.23143">
        <ele>508</ele>
        <time>2021-01-29T14:03:39Z</time>
      </trkpt>
      <trkpt lat="42.95755" lon="1.23153">
        <ele>507</ele>
        <time>2021-01-29T14:03:40Z</time>
      </trkpt>
      <trkpt lat="42.95707" lon="1.23223">
        <ele>521</ele>
        <time>2021-01-29T14:03:53Z</time>
      </trkpt>
      <trkpt lat="42.95705" lon="1.23234">
        <ele>522</ele>
        <time>2021-01-29T14:03:54Z</time>
      </trkpt>
      <trkpt lat="42.95704" lon="1.23248">
        <ele>523</ele>
        <time>2021-01-29T14:03:56Z</time>
      </trkpt>
      <trkpt lat="42.95709" lon="1.23273">
        <ele>523</ele>
        <time>2021-01-29T14:04:00Z</time>
      </trkpt>
      <trkpt lat="42.95726" lon="1.23328">
        <ele>521</ele>
        <time>2021-01-29T14:04:07Z</time>
      </trkpt>
      <trkpt lat="42.95736" lon="1.23367">
        <ele>518</ele>
        <time>2021-01-29T14:04:13Z</time>
      </trkpt>
      <trkpt lat="42.95739" lon="1.23384">
        <ele>517</ele>
        <time>2021-01-29T14:04:15Z</time>
      </trkpt>
      <trkpt lat="42.95731" lon="1.23439">
        <ele>520</ele>
        <time>2021-01-29T14:04:22Z</time>
      </trkpt>
      <trkpt lat="42.95754" lon="1.23648">
        <ele>522</ele>
        <time>2021-01-29T14:04:50Z</time>
      </trkpt>
      <trkpt lat="42.95754" lon="1.23696">
        <ele>524</ele>
        <time>2021-01-29T14:04:56Z</time>
      </trkpt>
      <trkpt lat="42.95748" lon="1.23765">
        <ele>528</ele>
        <time>2021-01-29T14:05:05Z</time>
      </trkpt>
      <trkpt lat="42.95756" lon="1.23844">
        <ele>527</ele>
        <time>2021-01-29T14:05:15Z</time>
      </trkpt>
      <trkpt lat="42.95754" lon="1.23875">
        <ele>529</ele>
        <time>2021-01-29T14:05:20Z</time>
      </trkpt>
      <trkpt lat="42.95757" lon="1.23902">
        <ele>530</ele>
        <time>2021-01-29T14:05:23Z</time>
      </trkpt>
      <trkpt lat="42.95767" lon="1.23926">
        <ele>530</ele>
        <time>2021-01-29T14:05:27Z</time>
      </trkpt>
      <trkpt lat="42.95804" lon="1.23985">
        <ele>525</ele>
        <time>2021-01-29T14:05:37Z</time>
      </trkpt>
      <trkpt lat="42.95809" lon="1.24001">
        <ele>525</ele>
        <time>2021-01-29T14:05:39Z</time>
      </trkpt>
      <trkpt lat="42.95812" lon="1.2404">
        <ele>524</ele>
        <time>2021-01-29T14:05:44Z</time>
      </trkpt>
      <trkpt lat="42.95805" lon="1.24084">
        <ele>527</ele>
        <time>2021-01-29T14:05:50Z</time>
      </trkpt>
      <trkpt lat="42.95796" lon="1.24106">
        <ele>530</ele>
        <time>2021-01-29T14:05:53Z</time>
      </trkpt>
      <trkpt lat="42.95793" lon="1.2412">
        <ele>530</ele>
        <time>2021-01-29T14:05:55Z</time>
      </trkpt>
      <trkpt lat="42.95794" lon="1.24147">
        <ele>530</ele>
        <time>2021-01-29T14:05:59Z</time>
      </trkpt>
      <trkpt lat="42.95802" lon="1.24182">
        <ele>528</ele>
        <time>2021-01-29T14:06:04Z</time>
      </trkpt>
      <trkpt lat="42.95806" lon="1.24257">
        <ele>526</ele>
        <time>2021-01-29T14:06:13Z</time>
      </trkpt>
      <trkpt lat="42.95803" lon="1.24294">
        <ele>527</ele>
        <time>2021-01-29T14:06:18Z</time>
      </trkpt>
      <trkpt lat="42.9579" lon="1.24331">
        <ele>527</ele>
        <time>2021-01-29T14:06:23Z</time>
      </trkpt>
      <trkpt lat="42.95772" lon="1.24365">
        <ele>530</ele>
        <time>2021-01-29T14:06:29Z</time>
      </trkpt>
      <trkpt lat="42.9575" lon="1.24419">
        <ele>533</ele>
        <time>2021-01-29T14:06:37Z</time>
      </trkpt>
      <trkpt lat="42.95735" lon="1.24503">
        <ele>545</ele>
        <time>2021-01-29T14:06:48Z</time>
      </trkpt>
      <trkpt lat="42.95733" lon="1.24557">
        <ele>548</ele>
        <time>2021-01-29T14:06:55Z</time>
      </trkpt>
      <trkpt lat="42.95743" lon="1.24606">
        <ele>546</ele>
        <time>2021-01-29T14:07:02Z</time>
      </trkpt>
      <trkpt lat="42.95743" lon="1.24632">
        <ele>546</ele>
        <time>2021-01-29T14:07:05Z</time>
      </trkpt>
      <trkpt lat="42.95728" lon="1.24677">
        <ele>553</ele>
        <time>2021-01-29T14:07:12Z</time>
      </trkpt>
      <trkpt lat="42.9572" lon="1.24718">
        <ele>558</ele>
        <time>2021-01-29T14:07:17Z</time>
      </trkpt>
      <trkpt lat="42.95719" lon="1.24761">
        <ele>562</ele>
        <time>2021-01-29T14:07:23Z</time>
      </trkpt>
      <trkpt lat="42.95728" lon="1.24813">
        <ele>560</ele>
        <time>2021-01-29T14:07:30Z</time>
      </trkpt>
      <trkpt lat="42.95724" lon="1.24839">
        <ele>562</ele>
        <time>2021-01-29T14:07:33Z</time>
      </trkpt>
      <trkpt lat="42.95718" lon="1.24858">
        <ele>562</ele>
        <time>2021-01-29T14:07:36Z</time>
      </trkpt>
      <trkpt lat="42.95697" lon="1.24889">
        <ele>567</ele>
        <time>2021-01-29T14:07:41Z</time>
      </trkpt>
      <trkpt lat="42.95691" lon="1.24911">
        <ele>568</ele>
        <time>2021-01-29T14:07:45Z</time>
      </trkpt>
      <trkpt lat="42.9569" lon="1.24975">
        <ele>566</ele>
        <time>2021-01-29T14:07:53Z</time>
      </trkpt>
      <trkpt lat="42.95684" lon="1.25014">
        <ele>566</ele>
        <time>2021-01-29T14:07:58Z</time>
      </trkpt>
      <trkpt lat="42.95679" lon="1.25059">
        <ele>566</ele>
        <time>2021-01-29T14:08:04Z</time>
      </trkpt>
      <trkpt lat="42.95659" lon="1.25128">
        <ele>571</ele>
        <time>2021-01-29T14:08:14Z</time>
      </trkpt>
      <trkpt lat="42.95661" lon="1.25144">
        <ele>571</ele>
        <time>2021-01-29T14:08:16Z</time>
      </trkpt>
      <trkpt lat="42.95669" lon="1.25161">
        <ele>568</ele>
        <time>2021-01-29T14:08:18Z</time>
      </trkpt>
      <trkpt lat="42.95692" lon="1.25177">
        <ele>567</ele>
        <time>2021-01-29T14:08:23Z</time>
      </trkpt>
      <trkpt lat="42.95764" lon="1.25214">
        <ele>562</ele>
        <time>2021-01-29T14:08:37Z</time>
      </trkpt>
      <trkpt lat="42.95774" lon="1.25226">
        <ele>564</ele>
        <time>2021-01-29T14:08:39Z</time>
      </trkpt>
      <trkpt lat="42.95778" lon="1.2525">
        <ele>565</ele>
        <time>2021-01-29T14:08:42Z</time>
      </trkpt>
      <trkpt lat="42.9578" lon="1.25308">
        <ele>570</ele>
        <time>2021-01-29T14:08:50Z</time>
      </trkpt>
      <trkpt lat="42.95774" lon="1.25352">
        <ele>571</ele>
        <time>2021-01-29T14:08:56Z</time>
      </trkpt>
      <trkpt lat="42.95763" lon="1.25404">
        <ele>569</ele>
        <time>2021-01-29T14:09:03Z</time>
      </trkpt>
      <trkpt lat="42.95757" lon="1.2546">
        <ele>568</ele>
        <time>2021-01-29T14:09:10Z</time>
      </trkpt>
      <trkpt lat="42.95753" lon="1.25472">
        <ele>567</ele>
        <time>2021-01-29T14:09:12Z</time>
      </trkpt>
      <trkpt lat="42.95726" lon="1.25506">
        <ele>580</ele>
        <time>2021-01-29T14:09:18Z</time>
      </trkpt>
      <trkpt lat="42.9572" lon="1.25524">
        <ele>584</ele>
        <time>2021-01-29T14:09:21Z</time>
      </trkpt>
      <trkpt lat="42.95714" lon="1.25558">
        <ele>588</ele>
        <time>2021-01-29T14:09:25Z</time>
      </trkpt>
      <trkpt lat="42.95714" lon="1.25576">
        <ele>588</ele>
        <time>2021-01-29T14:09:28Z</time>
      </trkpt>
      <trkpt lat="42.9572" lon="1.25595">
        <ele>585</ele>
        <time>2021-01-29T14:09:30Z</time>
      </trkpt>
      <trkpt lat="42.95741" lon="1.25635">
        <ele>573</ele>
        <time>2021-01-29T14:09:37Z</time>
      </trkpt>
      <trkpt lat="42.95784" lon="1.25689">
        <ele>571</ele>
        <time>2021-01-29T14:09:47Z</time>
      </trkpt>
      <trkpt lat="42.95791" lon="1.25713">
        <ele>569</ele>
        <time>2021-01-29T14:09:51Z</time>
      </trkpt>
      <trkpt lat="42.95792" lon="1.25735">
        <ele>568</ele>
        <time>2021-01-29T14:09:54Z</time>
      </trkpt>
      <trkpt lat="42.9579" lon="1.25763">
        <ele>566</ele>
        <time>2021-01-29T14:09:57Z</time>
      </trkpt>
      <trkpt lat="42.95773" lon="1.25817">
        <ele>568</ele>
        <time>2021-01-29T14:10:05Z</time>
      </trkpt>
      <trkpt lat="42.9576" lon="1.25851">
        <ele>568</ele>
        <time>2021-01-29T14:10:10Z</time>
      </trkpt>
      <trkpt lat="42.95755" lon="1.25871">
        <ele>566</ele>
        <time>2021-01-29T14:10:13Z</time>
      </trkpt>
      <trkpt lat="42.95736" lon="1.26054">
        <ele>563</ele>
        <time>2021-01-29T14:10:37Z</time>
      </trkpt>
      <trkpt lat="42.95727" lon="1.26108">
        <ele>567</ele>
        <time>2021-01-29T14:10:44Z</time>
      </trkpt>
      <trkpt lat="42.9572" lon="1.26137">
        <ele>571</ele>
        <time>2021-01-29T14:10:48Z</time>
      </trkpt>
      <trkpt lat="42.95719" lon="1.26156">
        <ele>572</ele>
        <time>2021-01-29T14:10:50Z</time>
      </trkpt>
      <trkpt lat="42.9573" lon="1.26253">
        <ele>571</ele>
        <time>2021-01-29T14:11:03Z</time>
      </trkpt>
      <trkpt lat="42.9574" lon="1.26281">
        <ele>567</ele>
        <time>2021-01-29T14:11:07Z</time>
      </trkpt>
      <trkpt lat="42.95751" lon="1.26319">
        <ele>565</ele>
        <time>2021-01-29T14:11:12Z</time>
      </trkpt>
      <trkpt lat="42.95751" lon="1.26344">
        <ele>566</ele>
        <time>2021-01-29T14:11:16Z</time>
      </trkpt>
      <trkpt lat="42.95748" lon="1.26361">
        <ele>567</ele>
        <time>2021-01-29T14:11:18Z</time>
      </trkpt>
      <trkpt lat="42.95737" lon="1.26391">
        <ele>573</ele>
        <time>2021-01-29T14:11:22Z</time>
      </trkpt>
      <trkpt lat="42.95734" lon="1.26406">
        <ele>575</ele>
        <time>2021-01-29T14:11:24Z</time>
      </trkpt>
      <trkpt lat="42.95737" lon="1.2646">
        <ele>582</ele>
        <time>2021-01-29T14:11:31Z</time>
      </trkpt>
      <trkpt lat="42.95744" lon="1.26487">
        <ele>583</ele>
        <time>2021-01-29T14:11:35Z</time>
      </trkpt>
      <trkpt lat="42.95765" lon="1.26547">
        <ele>588</ele>
        <time>2021-01-29T14:11:44Z</time>
      </trkpt>
      <trkpt lat="42.95769" lon="1.26565">
        <ele>590</ele>
        <time>2021-01-29T14:11:46Z</time>
      </trkpt>
      <trkpt lat="42.95764" lon="1.26627">
        <ele>592</ele>
        <time>2021-01-29T14:11:54Z</time>
      </trkpt>
      <trkpt lat="42.95755" lon="1.26716">
        <ele>593</ele>
        <time>2021-01-29T14:12:06Z</time>
      </trkpt>
      <trkpt lat="42.95759" lon="1.268">
        <ele>593</ele>
        <time>2021-01-29T14:12:17Z</time>
      </trkpt>
      <trkpt lat="42.95745" lon="1.26889">
        <ele>591</ele>
        <time>2021-01-29T14:12:29Z</time>
      </trkpt>
      <trkpt lat="42.95746" lon="1.26904">
        <ele>590</ele>
        <time>2021-01-29T14:12:31Z</time>
      </trkpt>
      <trkpt lat="42.95754" lon="1.26917">
        <ele>587</ele>
        <time>2021-01-29T14:12:33Z</time>
      </trkpt>
      <trkpt lat="42.95761" lon="1.26938">
        <ele>587</ele>
        <time>2021-01-29T14:12:36Z</time>
      </trkpt>
      <trkpt lat="42.95762" lon="1.26951">
        <ele>586</ele>
        <time>2021-01-29T14:12:38Z</time>
      </trkpt>
      <trkpt lat="42.95758" lon="1.26973">
        <ele>584</ele>
        <time>2021-01-29T14:12:41Z</time>
      </trkpt>
      <trkpt lat="42.95744" lon="1.27015">
        <ele>584</ele>
        <time>2021-01-29T14:12:47Z</time>
      </trkpt>
      <trkpt lat="42.95709" lon="1.27094">
        <ele>591</ele>
        <time>2021-01-29T14:12:59Z</time>
      </trkpt>
      <trkpt lat="42.95704" lon="1.27112">
        <ele>593</ele>
        <time>2021-01-29T14:13:01Z</time>
      </trkpt>
      <trkpt lat="42.95707" lon="1.27172">
        <ele>593</ele>
        <time>2021-01-29T14:13:09Z</time>
      </trkpt>
      <trkpt lat="42.95702" lon="1.27229">
        <ele>598</ele>
        <time>2021-01-29T14:13:17Z</time>
      </trkpt>
      <trkpt lat="42.95697" lon="1.27244">
        <ele>598</ele>
        <time>2021-01-29T14:13:19Z</time>
      </trkpt>
      <trkpt lat="42.95686" lon="1.27261">
        <ele>599</ele>
        <time>2021-01-29T14:13:22Z</time>
      </trkpt>
      <trkpt lat="42.95668" lon="1.27276">
        <ele>599</ele>
        <time>2021-01-29T14:13:25Z</time>
      </trkpt>
      <trkpt lat="42.9562" lon="1.273">
        <ele>603</ele>
        <time>2021-01-29T14:13:35Z</time>
      </trkpt>
      <trkpt lat="42.95606" lon="1.27311">
        <ele>602</ele>
        <time>2021-01-29T14:13:37Z</time>
      </trkpt>
      <trkpt lat="42.95588" lon="1.2733">
        <ele>598</ele>
        <time>2021-01-29T14:13:42Z</time>
      </trkpt>
      <trkpt lat="42.95563" lon="1.27371">
        <ele>608</ele>
        <time>2021-01-29T14:13:48Z</time>
      </trkpt>
      <trkpt lat="42.95514" lon="1.27431">
        <ele>603</ele>
        <time>2021-01-29T14:14:00Z</time>
      </trkpt>
      <trkpt lat="42.95508" lon="1.27438">
        <ele>602</ele>
        <time>2021-01-29T14:14:02Z</time>
      </trkpt>
      <trkpt lat="42.95462" lon="1.27546">
        <ele>612</ele>
        <time>2021-01-29T14:14:18Z</time>
      </trkpt>
      <trkpt lat="42.95453" lon="1.27588">
        <ele>615</ele>
        <time>2021-01-29T14:14:24Z</time>
      </trkpt>
      <trkpt lat="42.95447" lon="1.27597">
        <ele>615</ele>
        <time>2021-01-29T14:14:25Z</time>
      </trkpt>
      <trkpt lat="42.95416" lon="1.27623">
        <ele>610</ele>
        <time>2021-01-29T14:14:32Z</time>
      </trkpt>
      <trkpt lat="42.95343" lon="1.27754">
        <ele>616</ele>
        <time>2021-01-29T14:14:53Z</time>
      </trkpt>
      <trkpt lat="42.95335" lon="1.2778">
        <ele>616</ele>
        <time>2021-01-29T14:14:57Z</time>
      </trkpt>
      <trkpt lat="42.95323" lon="1.27855">
        <ele>624</ele>
        <time>2021-01-29T14:15:07Z</time>
      </trkpt>
      <trkpt lat="42.95313" lon="1.27902">
        <ele>626</ele>
        <time>2021-01-29T14:15:13Z</time>
      </trkpt>
      <trkpt lat="42.95294" lon="1.27958">
        <ele>625</ele>
        <time>2021-01-29T14:15:21Z</time>
      </trkpt>
      <trkpt lat="42.95292" lon="1.2798">
        <ele>627</ele>
        <time>2021-01-29T14:15:24Z</time>
      </trkpt>
      <trkpt lat="42.95292" lon="1.27999">
        <ele>629</ele>
        <time>2021-01-29T14:15:26Z</time>
      </trkpt>
      <trkpt lat="42.95295" lon="1.28024">
        <ele>632</ele>
        <time>2021-01-29T14:15:30Z</time>
      </trkpt>
      <trkpt lat="42.9531" lon="1.28076">
        <ele>642</ele>
        <time>2021-01-29T14:15:37Z</time>
      </trkpt>
      <trkpt lat="42.9532" lon="1.28104">
        <ele>649</ele>
        <time>2021-01-29T14:15:41Z</time>
      </trkpt>
      <trkpt lat="42.95318" lon="1.28117">
        <ele>651</ele>
        <time>2021-01-29T14:15:43Z</time>
      </trkpt>
      <trkpt lat="42.95315" lon="1.28123">
        <ele>651</ele>
        <time>2021-01-29T14:15:44Z</time>
      </trkpt>
      <trkpt lat="42.95309" lon="1.28127">
        <ele>650</ele>
        <time>2021-01-29T14:15:45Z</time>
      </trkpt>
      <trkpt lat="42.95303" lon="1.28127">
        <ele>648</ele>
        <time>2021-01-29T14:15:46Z</time>
      </trkpt>
      <trkpt lat="42.95292" lon="1.28124">
        <ele>645</ele>
        <time>2021-01-29T14:15:48Z</time>
      </trkpt>
      <trkpt lat="42.95276" lon="1.28114">
        <ele>638</ele>
        <time>2021-01-29T14:15:51Z</time>
      </trkpt>
      <trkpt lat="42.95268" lon="1.28115">
        <ele>635</ele>
        <time>2021-01-29T14:15:53Z</time>
      </trkpt>
      <trkpt lat="42.95253" lon="1.28128">
        <ele>635</ele>
        <time>2021-01-29T14:15:56Z</time>
      </trkpt>
      <trkpt lat="42.95223" lon="1.28179">
        <ele>641</ele>
        <time>2021-01-29T14:16:04Z</time>
      </trkpt>
      <trkpt lat="42.95206" lon="1.28231">
        <ele>646</ele>
        <time>2021-01-29T14:16:12Z</time>
      </trkpt>
      <trkpt lat="42.95204" lon="1.2825">
        <ele>650</ele>
        <time>2021-01-29T14:16:14Z</time>
      </trkpt>
      <trkpt lat="42.9521" lon="1.28305">
        <ele>662</ele>
        <time>2021-01-29T14:16:21Z</time>
      </trkpt>
      <trkpt lat="42.95208" lon="1.28315">
        <ele>663</ele>
        <time>2021-01-29T14:16:23Z</time>
      </trkpt>
      <trkpt lat="42.95204" lon="1.28323">
        <ele>664</ele>
        <time>2021-01-29T14:16:24Z</time>
      </trkpt>
      <trkpt lat="42.95197" lon="1.28327">
        <ele>663</ele>
        <time>2021-01-29T14:16:25Z</time>
      </trkpt>
      <trkpt lat="42.95165" lon="1.28331">
        <ele>657</ele>
        <time>2021-01-29T14:16:31Z</time>
      </trkpt>
      <trkpt lat="42.95142" lon="1.28339">
        <ele>655</ele>
        <time>2021-01-29T14:16:35Z</time>
      </trkpt>
      <trkpt lat="42.9513" lon="1.28351">
        <ele>656</ele>
        <time>2021-01-29T14:16:38Z</time>
      </trkpt>
      <trkpt lat="42.95122" lon="1.28368">
        <ele>659</ele>
        <time>2021-01-29T14:16:41Z</time>
      </trkpt>
      <trkpt lat="42.95123" lon="1.28383">
        <ele>663</ele>
        <time>2021-01-29T14:16:43Z</time>
      </trkpt>
      <trkpt lat="42.95127" lon="1.28386">
        <ele>665</ele>
        <time>2021-01-29T14:16:43Z</time>
      </trkpt>
      <trkpt lat="42.95133" lon="1.28385">
        <ele>666</ele>
        <time>2021-01-29T14:16:44Z</time>
      </trkpt>
      <trkpt lat="42.95136" lon="1.2838">
        <ele>665</ele>
        <time>2021-01-29T14:16:45Z</time>
      </trkpt>
      <trkpt lat="42.95138" lon="1.28371">
        <ele>663</ele>
        <time>2021-01-29T14:16:47Z</time>
      </trkpt>
      <trkpt lat="42.95143" lon="1.28364">
        <ele>662</ele>
        <time>2021-01-29T14:16:48Z</time>
      </trkpt>
      <trkpt lat="42.9515" lon="1.28359">
        <ele>662</ele>
        <time>2021-01-29T14:16:49Z</time>
      </trkpt>
      <trkpt lat="42.9516" lon="1.28358">
        <ele>664</ele>
        <time>2021-01-29T14:16:51Z</time>
      </trkpt>
      <trkpt lat="42.95196" lon="1.2836">
        <ele>671</ele>
        <time>2021-01-29T14:16:57Z</time>
      </trkpt>
      <trkpt lat="42.95232" lon="1.28366">
        <ele>679</ele>
        <time>2021-01-29T14:17:04Z</time>
      </trkpt>
      <trkpt lat="42.95241" lon="1.28365">
        <ele>680</ele>
        <time>2021-01-29T14:17:05Z</time>
      </trkpt>
      <trkpt lat="42.95248" lon="1.28359">
        <ele>680</ele>
        <time>2021-01-29T14:17:07Z</time>
      </trkpt>
      <trkpt lat="42.95252" lon="1.28346">
        <ele>678</ele>
        <time>2021-01-29T14:17:09Z</time>
      </trkpt>
      <trkpt lat="42.95254" lon="1.28297">
        <ele>671</ele>
        <time>2021-01-29T14:17:15Z</time>
      </trkpt>
      <trkpt lat="42.95258" lon="1.28282">
        <ele>671</ele>
        <time>2021-01-29T14:17:17Z</time>
      </trkpt>
      <trkpt lat="42.95265" lon="1.2827">
        <ele>671</ele>
        <time>2021-01-29T14:17:19Z</time>
      </trkpt>
      <trkpt lat="42.95278" lon="1.28263">
        <ele>673</ele>
        <time>2021-01-29T14:17:22Z</time>
      </trkpt>
      <trkpt lat="42.95343" lon="1.28244">
        <ele>684</ele>
        <time>2021-01-29T14:17:34Z</time>
      </trkpt>
      <trkpt lat="42.95361" lon="1.28245">
        <ele>687</ele>
        <time>2021-01-29T14:17:37Z</time>
      </trkpt>
      <trkpt lat="42.95393" lon="1.28253">
        <ele>691</ele>
        <time>2021-01-29T14:17:43Z</time>
      </trkpt>
      <trkpt lat="42.95398" lon="1.28259">
        <ele>693</ele>
        <time>2021-01-29T14:17:44Z</time>
      </trkpt>
      <trkpt lat="42.95398" lon="1.28265">
        <ele>695</ele>
        <time>2021-01-29T14:17:45Z</time>
      </trkpt>
      <trkpt lat="42.95395" lon="1.2827">
        <ele>696</ele>
        <time>2021-01-29T14:17:45Z</time>
      </trkpt>
      <trkpt lat="42.9539" lon="1.28272">
        <ele>696</ele>
        <time>2021-01-29T14:17:46Z</time>
      </trkpt>
      <trkpt lat="42.95374" lon="1.28268">
        <ele>693</ele>
        <time>2021-01-29T14:17:49Z</time>
      </trkpt>
      <trkpt lat="42.95358" lon="1.28272">
        <ele>693</ele>
        <time>2021-01-29T14:17:52Z</time>
      </trkpt>
      <trkpt lat="42.95348" lon="1.28281">
        <ele>694</ele>
        <time>2021-01-29T14:17:54Z</time>
      </trkpt>
      <trkpt lat="42.95339" lon="1.28294">
        <ele>696</ele>
        <time>2021-01-29T14:17:57Z</time>
      </trkpt>
      <trkpt lat="42.95324" lon="1.28325">
        <ele>700</ele>
        <time>2021-01-29T14:18:01Z</time>
      </trkpt>
      <trkpt lat="42.95319" lon="1.28344">
        <ele>701</ele>
        <time>2021-01-29T14:18:04Z</time>
      </trkpt>
      <trkpt lat="42.95316" lon="1.28366">
        <ele>704</ele>
        <time>2021-01-29T14:18:07Z</time>
      </trkpt>
      <trkpt lat="42.95316" lon="1.28381">
        <ele>706</ele>
        <time>2021-01-29T14:18:09Z</time>
      </trkpt>
      <trkpt lat="42.95319" lon="1.28395">
        <ele>709</ele>
        <time>2021-01-29T14:18:11Z</time>
      </trkpt>
      <trkpt lat="42.9532" lon="1.28412">
        <ele>712</ele>
        <time>2021-01-29T14:18:13Z</time>
      </trkpt>
      <trkpt lat="42.95314" lon="1.28462">
        <ele>721</ele>
        <time>2021-01-29T14:18:20Z</time>
      </trkpt>
      <trkpt lat="42.95311" lon="1.28474">
        <ele>723</ele>
        <time>2021-01-29T14:18:21Z</time>
      </trkpt>
      <trkpt lat="42.95303" lon="1.28492">
        <ele>725</ele>
        <time>2021-01-29T14:18:24Z</time>
      </trkpt>
      <trkpt lat="42.95265" lon="1.28516">
        <ele>724</ele>
        <time>2021-01-29T14:18:31Z</time>
      </trkpt>
      <trkpt lat="42.95217" lon="1.28559">
        <ele>717</ele>
        <time>2021-01-29T14:18:42Z</time>
      </trkpt>
      <trkpt lat="42.95213" lon="1.28565">
        <ele>716</ele>
        <time>2021-01-29T14:18:43Z</time>
      </trkpt>
      <trkpt lat="42.9521" lon="1.28571">
        <ele>716</ele>
        <time>2021-01-29T14:18:44Z</time>
      </trkpt>
      <trkpt lat="42.95212" lon="1.28577">
        <ele>717</ele>
        <time>2021-01-29T14:18:45Z</time>
      </trkpt>
      <trkpt lat="42.95217" lon="1.2858">
        <ele>719</ele>
        <time>2021-01-29T14:18:45Z</time>
      </trkpt>
      <trkpt lat="42.95243" lon="1.28568">
        <ele>726</ele>
        <time>2021-01-29T14:18:50Z</time>
      </trkpt>
      <trkpt lat="42.95271" lon="1.28561">
        <ele>731</ele>
        <time>2021-01-29T14:18:55Z</time>
      </trkpt>
      <trkpt lat="42.95301" lon="1.28562">
        <ele>737</ele>
        <time>2021-01-29T14:19:01Z</time>
      </trkpt>
      <trkpt lat="42.95316" lon="1.28559">
        <ele>739</ele>
        <time>2021-01-29T14:19:03Z</time>
      </trkpt>
      <trkpt lat="42.9534" lon="1.28549">
        <ele>742</ele>
        <time>2021-01-29T14:19:08Z</time>
      </trkpt>
      <trkpt lat="42.95343" lon="1.28548">
        <ele>743</ele>
        <time>2021-01-29T14:19:08Z</time>
      </trkpt>
      <trkpt lat="42.95347" lon="1.28551">
        <ele>745</ele>
        <time>2021-01-29T14:19:09Z</time>
      </trkpt>
      <trkpt lat="42.95349" lon="1.28555">
        <ele>747</ele>
        <time>2021-01-29T14:19:10Z</time>
      </trkpt>
      <trkpt lat="42.95349" lon="1.2856">
        <ele>747</ele>
        <time>2021-01-29T14:19:11Z</time>
      </trkpt>
      <trkpt lat="42.95346" lon="1.28565">
        <ele>747</ele>
        <time>2021-01-29T14:19:11Z</time>
      </trkpt>
      <trkpt lat="42.95298" lon="1.28584">
        <ele>740</ele>
        <time>2021-01-29T14:19:20Z</time>
      </trkpt>
      <trkpt lat="42.95292" lon="1.28592">
        <ele>739</ele>
        <time>2021-01-29T14:19:22Z</time>
      </trkpt>
      <trkpt lat="42.95289" lon="1.28603">
        <ele>739</ele>
        <time>2021-01-29T14:19:23Z</time>
      </trkpt>
      <trkpt lat="42.95289" lon="1.28618">
        <ele>740</ele>
        <time>2021-01-29T14:19:25Z</time>
      </trkpt>
      <trkpt lat="42.95292" lon="1.28646">
        <ele>742</ele>
        <time>2021-01-29T14:19:29Z</time>
      </trkpt>
      <trkpt lat="42.95305" lon="1.28691">
        <ele>746</ele>
        <time>2021-01-29T14:19:35Z</time>
      </trkpt>
      <trkpt lat="42.95328" lon="1.2875">
        <ele>755</ele>
        <time>2021-01-29T14:19:44Z</time>
      </trkpt>
      <trkpt lat="42.95333" lon="1.28775">
        <ele>759</ele>
        <time>2021-01-29T14:19:47Z</time>
      </trkpt>
      <trkpt lat="42.95329" lon="1.28808">
        <ele>761</ele>
        <time>2021-01-29T14:19:52Z</time>
      </trkpt>
      <trkpt lat="42.95324" lon="1.28847">
        <ele>763</ele>
        <time>2021-01-29T14:19:57Z</time>
      </trkpt>
      <trkpt lat="42.95326" lon="1.2888">
        <ele>766</ele>
        <time>2021-01-29T14:20:01Z</time>
      </trkpt>
      <trkpt lat="42.95337" lon="1.28918">
        <ele>773</ele>
        <time>2021-01-29T14:20:06Z</time>
      </trkpt>
      <trkpt lat="42.95339" lon="1.2898">
        <ele>774</ele>
        <time>2021-01-29T14:20:15Z</time>
      </trkpt>
      <trkpt lat="42.95352" lon="1.29007">
        <ele>782</ele>
        <time>2021-01-29T14:20:19Z</time>
      </trkpt>
      <trkpt lat="42.95366" lon="1.2903">
        <ele>790</ele>
        <time>2021-01-29T14:20:23Z</time>
      </trkpt>
      <trkpt lat="42.95372" lon="1.29051">
        <ele>793</ele>
        <time>2021-01-29T14:20:26Z</time>
      </trkpt>
      <trkpt lat="42.95369" lon="1.29066">
        <ele>790</ele>
        <time>2021-01-29T14:20:28Z</time>
      </trkpt>
      <trkpt lat="42.9535" lon="1.29099">
        <ele>782</ele>
        <time>2021-01-29T14:20:33Z</time>
      </trkpt>
      <trkpt lat="42.95347" lon="1.29118">
        <ele>784</ele>
        <time>2021-01-29T14:20:36Z</time>
      </trkpt>
      <trkpt lat="42.95352" lon="1.29155">
        <ele>793</ele>
        <time>2021-01-29T14:20:41Z</time>
      </trkpt>
      <trkpt lat="42.95352" lon="1.29173">
        <ele>796</ele>
        <time>2021-01-29T14:20:43Z</time>
      </trkpt>
      <trkpt lat="42.95343" lon="1.29188">
        <ele>796</ele>
        <time>2021-01-29T14:20:45Z</time>
      </trkpt>
      <trkpt lat="42.9532" lon="1.29207">
        <ele>793</ele>
        <time>2021-01-29T14:20:50Z</time>
      </trkpt>
      <trkpt lat="42.95295" lon="1.29233">
        <ele>792</ele>
        <time>2021-01-29T14:20:56Z</time>
      </trkpt>
      <trkpt lat="42.95259" lon="1.29284">
        <ele>796</ele>
        <time>2021-01-29T14:21:05Z</time>
      </trkpt>
      <trkpt lat="42.95239" lon="1.29307">
        <ele>797</ele>
        <time>2021-01-29T14:21:10Z</time>
      </trkpt>
      <trkpt lat="42.95219" lon="1.29357">
        <ele>798</ele>
        <time>2021-01-29T14:21:17Z</time>
      </trkpt>
      <trkpt lat="42.9522" lon="1.29387">
        <ele>799</ele>
        <time>2021-01-29T14:21:21Z</time>
      </trkpt>
      <trkpt lat="42.95234" lon="1.29418">
        <ele>804</ele>
        <time>2021-01-29T14:21:26Z</time>
      </trkpt>
      <trkpt lat="42.95241" lon="1.29456">
        <ele>807</ele>
        <time>2021-01-29T14:21:31Z</time>
      </trkpt>
      <trkpt lat="42.95237" lon="1.29494">
        <ele>805</ele>
        <time>2021-01-29T14:21:36Z</time>
      </trkpt>
      <trkpt lat="42.9523" lon="1.29513">
        <ele>804</ele>
        <time>2021-01-29T14:21:39Z</time>
      </trkpt>
      <trkpt lat="42.95217" lon="1.29536">
        <ele>801</ele>
        <time>2021-01-29T14:21:42Z</time>
      </trkpt>
      <trkpt lat="42.95212" lon="1.29551">
        <ele>801</ele>
        <time>2021-01-29T14:21:45Z</time>
      </trkpt>
      <trkpt lat="42.9521" lon="1.29564">
        <ele>801</ele>
        <time>2021-01-29T14:21:46Z</time>
      </trkpt>
      <trkpt lat="42.95213" lon="1.29582">
        <ele>803</ele>
        <time>2021-01-29T14:21:49Z</time>
      </trkpt>
      <trkpt lat="42.95223" lon="1.29617">
        <ele>805</ele>
        <time>2021-01-29T14:21:54Z</time>
      </trkpt>
      <trkpt lat="42.95222" lon="1.29636">
        <ele>805</ele>
        <time>2021-01-29T14:21:56Z</time>
      </trkpt>
      <trkpt lat="42.95214" lon="1.29676">
        <ele>801</ele>
        <time>2021-01-29T14:22:01Z</time>
      </trkpt>
      <trkpt lat="42.95214" lon="1.29694">
        <ele>801</ele>
        <time>2021-01-29T14:22:04Z</time>
      </trkpt>
      <trkpt lat="42.9522" lon="1.29735">
        <ele>801</ele>
        <time>2021-01-29T14:22:09Z</time>
      </trkpt>
      <trkpt lat="42.95226" lon="1.29749">
        <ele>803</ele>
        <time>2021-01-29T14:22:11Z</time>
      </trkpt>
      <trkpt lat="42.95257" lon="1.29775">
        <ele>813</ele>
        <time>2021-01-29T14:22:18Z</time>
      </trkpt>
      <trkpt lat="42.95259" lon="1.29783">
        <ele>814</ele>
        <time>2021-01-29T14:22:19Z</time>
      </trkpt>
      <trkpt lat="42.95255" lon="1.29794">
        <ele>814</ele>
        <time>2021-01-29T14:22:21Z</time>
      </trkpt>
      <trkpt lat="42.95213" lon="1.29809">
        <ele>806</ele>
        <time>2021-01-29T14:22:28Z</time>
      </trkpt>
      <trkpt lat="42.95188" lon="1.29854">
        <ele>808</ele>
        <time>2021-01-29T14:22:36Z</time>
      </trkpt>
      <trkpt lat="42.95159" lon="1.29877">
        <ele>805</ele>
        <time>2021-01-29T14:22:42Z</time>
      </trkpt>
      <trkpt lat="42.95155" lon="1.29886">
        <ele>805</ele>
        <time>2021-01-29T14:22:43Z</time>
      </trkpt>
      <trkpt lat="42.95157" lon="1.29893">
        <ele>806</ele>
        <time>2021-01-29T14:22:44Z</time>
      </trkpt>
      <trkpt lat="42.9516" lon="1.29898">
        <ele>808</ele>
        <time>2021-01-29T14:22:45Z</time>
      </trkpt>
      <trkpt lat="42.95165" lon="1.29899">
        <ele>809</ele>
        <time>2021-01-29T14:22:46Z</time>
      </trkpt>
      <trkpt lat="42.95196" lon="1.29869">
        <ele>812</ele>
        <time>2021-01-29T14:22:52Z</time>
      </trkpt>
      <trkpt lat="42.95211" lon="1.29849">
        <ele>811</ele>
        <time>2021-01-29T14:22:56Z</time>
      </trkpt>
      <trkpt lat="42.95228" lon="1.2983">
        <ele>811</ele>
        <time>2021-01-29T14:23:00Z</time>
      </trkpt>
      <trkpt lat="42.95245" lon="1.2983">
        <ele>814</ele>
        <time>2021-01-29T14:23:03Z</time>
      </trkpt>
      <trkpt lat="42.95255" lon="1.29834">
        <ele>816</ele>
        <time>2021-01-29T14:23:05Z</time>
      </trkpt>
      <trkpt lat="42.95271" lon="1.2985">
        <ele>824</ele>
        <time>2021-01-29T14:23:08Z</time>
      </trkpt>
      <trkpt lat="42.9528" lon="1.29853">
        <ele>827</ele>
        <time>2021-01-29T14:23:10Z</time>
      </trkpt>
      <trkpt lat="42.95288" lon="1.29853">
        <ele>829</ele>
        <time>2021-01-29T14:23:12Z</time>
      </trkpt>
      <trkpt lat="42.95297" lon="1.29847">
        <ele>830</ele>
        <time>2021-01-29T14:23:13Z</time>
      </trkpt>
      <trkpt lat="42.95304" lon="1.29849">
        <ele>832</ele>
        <time>2021-01-29T14:23:15Z</time>
      </trkpt>
      <trkpt lat="42.95306" lon="1.29853">
        <ele>833</ele>
        <time>2021-01-29T14:23:15Z</time>
      </trkpt>
      <trkpt lat="42.95305" lon="1.29862">
        <ele>835</ele>
        <time>2021-01-29T14:23:16Z</time>
      </trkpt>
      <trkpt lat="42.953" lon="1.29868">
        <ele>835</ele>
        <time>2021-01-29T14:23:18Z</time>
      </trkpt>
      <trkpt lat="42.95267" lon="1.29864">
        <ele>826</ele>
        <time>2021-01-29T14:23:23Z</time>
      </trkpt>
      <trkpt lat="42.95251" lon="1.29865">
        <ele>822</ele>
        <time>2021-01-29T14:23:26Z</time>
      </trkpt>
      <trkpt lat="42.95234" lon="1.29877">
        <ele>821</ele>
        <time>2021-01-29T14:23:30Z</time>
      </trkpt>
      <trkpt lat="42.95221" lon="1.29896">
        <ele>821</ele>
        <time>2021-01-29T14:23:33Z</time>
      </trkpt>
      <trkpt lat="42.95215" lon="1.29908">
        <ele>822</ele>
        <time>2021-01-29T14:23:35Z</time>
      </trkpt>
      <trkpt lat="42.95212" lon="1.29927">
        <ele>824</ele>
        <time>2021-01-29T14:23:38Z</time>
      </trkpt>
      <trkpt lat="42.95215" lon="1.29946">
        <ele>827</ele>
        <time>2021-01-29T14:23:40Z</time>
      </trkpt>
      <trkpt lat="42.95227" lon="1.29989">
        <ele>835</ele>
        <time>2021-01-29T14:23:46Z</time>
      </trkpt>
      <trkpt lat="42.95229" lon="1.30048">
        <ele>841</ele>
        <time>2021-01-29T14:23:54Z</time>
      </trkpt>
      <trkpt lat="42.95234" lon="1.30064">
        <ele>843</ele>
        <time>2021-01-29T14:23:56Z</time>
      </trkpt>
      <trkpt lat="42.95287" lon="1.30114">
        <ele>856</ele>
        <time>2021-01-29T14:24:07Z</time>
      </trkpt>
      <trkpt lat="42.95296" lon="1.3013">
        <ele>857</ele>
        <time>2021-01-29T14:24:10Z</time>
      </trkpt>
      <trkpt lat="42.95298" lon="1.30143">
        <ele>857</ele>
        <time>2021-01-29T14:24:12Z</time>
      </trkpt>
      <trkpt lat="42.95288" lon="1.30175">
        <ele>852</ele>
        <time>2021-01-29T14:24:16Z</time>
      </trkpt>
      <trkpt lat="42.95284" lon="1.30191">
        <ele>853</ele>
        <time>2021-01-29T14:24:19Z</time>
      </trkpt>
      <trkpt lat="42.95285" lon="1.30204">
        <ele>855</ele>
        <time>2021-01-29T14:24:20Z</time>
      </trkpt>
      <trkpt lat="42.95297" lon="1.30255">
        <ele>862</ele>
        <time>2021-01-29T14:24:27Z</time>
      </trkpt>
      <trkpt lat="42.95298" lon="1.3027">
        <ele>866</ele>
        <time>2021-01-29T14:24:29Z</time>
      </trkpt>
      <trkpt lat="42.95296" lon="1.30279">
        <ele>868</ele>
        <time>2021-01-29T14:24:30Z</time>
      </trkpt>
      <trkpt lat="42.9529" lon="1.30289">
        <ele>869</ele>
        <time>2021-01-29T14:24:32Z</time>
      </trkpt>
      <trkpt lat="42.95282" lon="1.30293">
        <ele>870</ele>
        <time>2021-01-29T14:24:34Z</time>
      </trkpt>
      <trkpt lat="42.95262" lon="1.30291">
        <ele>867</ele>
        <time>2021-01-29T14:24:37Z</time>
      </trkpt>
      <trkpt lat="42.95235" lon="1.30281">
        <ele>867</ele>
        <time>2021-01-29T14:24:42Z</time>
      </trkpt>
      <trkpt lat="42.95186" lon="1.30245">
        <ele>867</ele>
        <time>2021-01-29T14:24:52Z</time>
      </trkpt>
      <trkpt lat="42.95138" lon="1.302">
        <ele>853</ele>
        <time>2021-01-29T14:25:02Z</time>
      </trkpt>
      <trkpt lat="42.9513" lon="1.30198">
        <ele>851</ele>
        <time>2021-01-29T14:25:04Z</time>
      </trkpt>
      <trkpt lat="42.95126" lon="1.30201">
        <ele>851</ele>
        <time>2021-01-29T14:25:05Z</time>
      </trkpt>
      <trkpt lat="42.95123" lon="1.30204">
        <ele>852</ele>
        <time>2021-01-29T14:25:05Z</time>
      </trkpt>
      <trkpt lat="42.95122" lon="1.30213">
        <ele>854</ele>
        <time>2021-01-29T14:25:07Z</time>
      </trkpt>
      <trkpt lat="42.95124" lon="1.30221">
        <ele>856</ele>
        <time>2021-01-29T14:25:08Z</time>
      </trkpt>
      <trkpt lat="42.9513" lon="1.30224">
        <ele>858</ele>
        <time>2021-01-29T14:25:09Z</time>
      </trkpt>
      <trkpt lat="42.95142" lon="1.30227">
        <ele>861</ele>
        <time>2021-01-29T14:25:11Z</time>
      </trkpt>
      <trkpt lat="42.9516" lon="1.30244">
        <ele>869</ele>
        <time>2021-01-29T14:25:15Z</time>
      </trkpt>
      <trkpt lat="42.95221" lon="1.3032">
        <ele>882</ele>
        <time>2021-01-29T14:25:30Z</time>
      </trkpt>
      <trkpt lat="42.95269" lon="1.30365">
        <ele>889</ele>
        <time>2021-01-29T14:25:40Z</time>
      </trkpt>
      <trkpt lat="42.95292" lon="1.30381">
        <ele>893</ele>
        <time>2021-01-29T14:25:44Z</time>
      </trkpt>
      <trkpt lat="42.95308" lon="1.30386">
        <ele>893</ele>
        <time>2021-01-29T14:25:47Z</time>
      </trkpt>
      <trkpt lat="42.95324" lon="1.30384">
        <ele>891</ele>
        <time>2021-01-29T14:25:50Z</time>
      </trkpt>
      <trkpt lat="42.95339" lon="1.30377">
        <ele>890</ele>
        <time>2021-01-29T14:25:53Z</time>
      </trkpt>
      <trkpt lat="42.95356" lon="1.30359">
        <ele>890</ele>
        <time>2021-01-29T14:25:57Z</time>
      </trkpt>
      <trkpt lat="42.95372" lon="1.30338">
        <ele>892</ele>
        <time>2021-01-29T14:26:01Z</time>
      </trkpt>
      <trkpt lat="42.95383" lon="1.30335">
        <ele>895</ele>
        <time>2021-01-29T14:26:03Z</time>
      </trkpt>
      <trkpt lat="42.95387" lon="1.30338">
        <ele>897</ele>
        <time>2021-01-29T14:26:04Z</time>
      </trkpt>
      <trkpt lat="42.9539" lon="1.30344">
        <ele>897</ele>
        <time>2021-01-29T14:26:05Z</time>
      </trkpt>
      <trkpt lat="42.95389" lon="1.30353">
        <ele>897</ele>
        <time>2021-01-29T14:26:06Z</time>
      </trkpt>
      <trkpt lat="42.95378" lon="1.30372">
        <ele>896</ele>
        <time>2021-01-29T14:26:09Z</time>
      </trkpt>
      <trkpt lat="42.95359" lon="1.30398">
        <ele>895</ele>
        <time>2021-01-29T14:26:14Z</time>
      </trkpt>
      <trkpt lat="42.95343" lon="1.30425">
        <ele>897</ele>
        <time>2021-01-29T14:26:18Z</time>
      </trkpt>
      <trkpt lat="42.95331" lon="1.30446">
        <ele>900</ele>
        <time>2021-01-29T14:26:22Z</time>
      </trkpt>
      <trkpt lat="42.95317" lon="1.30463">
        <ele>906</ele>
        <time>2021-01-29T14:26:25Z</time>
      </trkpt>
      <trkpt lat="42.95304" lon="1.30467">
        <ele>909</ele>
        <time>2021-01-29T14:26:27Z</time>
      </trkpt>
      <trkpt lat="42.95293" lon="1.30465">
        <ele>911</ele>
        <time>2021-01-29T14:26:29Z</time>
      </trkpt>
      <trkpt lat="42.95274" lon="1.30456">
        <ele>913</ele>
        <time>2021-01-29T14:26:33Z</time>
      </trkpt>
      <trkpt lat="42.95191" lon="1.30389">
        <ele>907</ele>
        <time>2021-01-29T14:26:50Z</time>
      </trkpt>
      <trkpt lat="42.95173" lon="1.30396">
        <ele>912</ele>
        <time>2021-01-29T14:26:53Z</time>
      </trkpt>
      <trkpt lat="42.95156" lon="1.30417">
        <ele>913</ele>
        <time>2021-01-29T14:26:58Z</time>
      </trkpt>
      <trkpt lat="42.95144" lon="1.30437">
        <ele>912</ele>
        <time>2021-01-29T14:27:01Z</time>
      </trkpt>
      <trkpt lat="42.95136" lon="1.30463">
        <ele>913</ele>
        <time>2021-01-29T14:27:05Z</time>
      </trkpt>
      <trkpt lat="42.95131" lon="1.30489">
        <ele>916</ele>
        <time>2021-01-29T14:27:08Z</time>
      </trkpt>
      <trkpt lat="42.95134" lon="1.30524">
        <ele>924</ele>
        <time>2021-01-29T14:27:13Z</time>
      </trkpt>
      <trkpt lat="42.95132" lon="1.30543">
        <ele>927</ele>
        <time>2021-01-29T14:27:15Z</time>
      </trkpt>
      <trkpt lat="42.95125" lon="1.3056">
        <ele>928</ele>
        <time>2021-01-29T14:27:18Z</time>
      </trkpt>
      <trkpt lat="42.95109" lon="1.30582">
        <ele>927</ele>
        <time>2021-01-29T14:27:22Z</time>
      </trkpt>
      <trkpt lat="42.95087" lon="1.30604">
        <ele>924</ele>
        <time>2021-01-29T14:27:27Z</time>
      </trkpt>
      <trkpt lat="42.95081" lon="1.30614">
        <ele>924</ele>
        <time>2021-01-29T14:27:28Z</time>
      </trkpt>
      <trkpt lat="42.9508" lon="1.30624">
        <ele>925</ele>
        <time>2021-01-29T14:27:30Z</time>
      </trkpt>
      <trkpt lat="42.95084" lon="1.30629">
        <ele>927</ele>
        <time>2021-01-29T14:27:31Z</time>
      </trkpt>
      <trkpt lat="42.95092" lon="1.30629">
        <ele>930</ele>
        <time>2021-01-29T14:27:32Z</time>
      </trkpt>
      <trkpt lat="42.9511" lon="1.30607">
        <ele>932</ele>
        <time>2021-01-29T14:27:36Z</time>
      </trkpt>
      <trkpt lat="42.95135" lon="1.30586">
        <ele>936</ele>
        <time>2021-01-29T14:27:42Z</time>
      </trkpt>
      <trkpt lat="42.95149" lon="1.30567">
        <ele>937</ele>
        <time>2021-01-29T14:27:45Z</time>
      </trkpt>
      <trkpt lat="42.95163" lon="1.30542">
        <ele>938</ele>
        <time>2021-01-29T14:27:49Z</time>
      </trkpt>
      <trkpt lat="42.95175" lon="1.3053">
        <ele>937</ele>
        <time>2021-01-29T14:27:52Z</time>
      </trkpt>
      <trkpt lat="42.95188" lon="1.30522">
        <ele>935</ele>
        <time>2021-01-29T14:27:54Z</time>
      </trkpt>
      <trkpt lat="42.95196" lon="1.30521">
        <ele>935</ele>
        <time>2021-01-29T14:27:56Z</time>
      </trkpt>
      <trkpt lat="42.95204" lon="1.30528">
        <ele>936</ele>
        <time>2021-01-29T14:27:57Z</time>
      </trkpt>
      <trkpt lat="42.95214" lon="1.30551">
        <ele>939</ele>
        <time>2021-01-29T14:28:01Z</time>
      </trkpt>
      <trkpt lat="42.95234" lon="1.30614">
        <ele>948</ele>
        <time>2021-01-29T14:28:10Z</time>
      </trkpt>
      <trkpt lat="42.95234" lon="1.30622">
        <ele>949</ele>
        <time>2021-01-29T14:28:11Z</time>
      </trkpt>
      <trkpt lat="42.95231" lon="1.30629">
        <ele>950</ele>
        <time>2021-01-29T14:28:12Z</time>
      </trkpt>
      <trkpt lat="42.95226" lon="1.30631">
        <ele>951</ele>
        <time>2021-01-29T14:28:13Z</time>
      </trkpt>
      <trkpt lat="42.9522" lon="1.30627">
        <ele>950</ele>
        <time>2021-01-29T14:28:14Z</time>
      </trkpt>
      <trkpt lat="42.95216" lon="1.30604">
        <ele>947</ele>
        <time>2021-01-29T14:28:17Z</time>
      </trkpt>
      <trkpt lat="42.95211" lon="1.30594">
        <ele>946</ele>
        <time>2021-01-29T14:28:19Z</time>
      </trkpt>
      <trkpt lat="42.95206" lon="1.30589">
        <ele>945</ele>
        <time>2021-01-29T14:28:20Z</time>
      </trkpt>
      <trkpt lat="42.95196" lon="1.3059">
        <ele>946</ele>
        <time>2021-01-29T14:28:22Z</time>
      </trkpt>
      <trkpt lat="42.95189" lon="1.30594">
        <ele>947</ele>
        <time>2021-01-29T14:28:23Z</time>
      </trkpt>
      <trkpt lat="42.95156" lon="1.30653">
        <ele>956</ele>
        <time>2021-01-29T14:28:33Z</time>
      </trkpt>
      <trkpt lat="42.95145" lon="1.3069">
        <ele>959</ele>
        <time>2021-01-29T14:28:38Z</time>
      </trkpt>
      <trkpt lat="42.95109" lon="1.30767">
        <ele>959</ele>
        <time>2021-01-29T14:28:50Z</time>
      </trkpt>
      <trkpt lat="42.95104" lon="1.30791">
        <ele>961</ele>
        <time>2021-01-29T14:28:53Z</time>
      </trkpt>
      <trkpt lat="42.95108" lon="1.30842">
        <ele>967</ele>
        <time>2021-01-29T14:29:00Z</time>
      </trkpt>
      <trkpt lat="42.95119" lon="1.3088">
        <ele>969</ele>
        <time>2021-01-29T14:29:05Z</time>
      </trkpt>
      <trkpt lat="42.95125" lon="1.30907">
        <ele>970</ele>
        <time>2021-01-29T14:29:09Z</time>
      </trkpt>
      <trkpt lat="42.95121" lon="1.30923">
        <ele>970</ele>
        <time>2021-01-29T14:29:11Z</time>
      </trkpt>
      <trkpt lat="42.95115" lon="1.30935">
        <ele>970</ele>
        <time>2021-01-29T14:29:13Z</time>
      </trkpt>
      <trkpt lat="42.95099" lon="1.30945">
        <ele>973</ele>
        <time>2021-01-29T14:29:16Z</time>
      </trkpt>
      <trkpt lat="42.9506" lon="1.30958">
        <ele>977</ele>
        <time>2021-01-29T14:29:23Z</time>
      </trkpt>
      <trkpt lat="42.95046" lon="1.30972">
        <ele>979</ele>
        <time>2021-01-29T14:29:26Z</time>
      </trkpt>
      <trkpt lat="42.95028" lon="1.30982">
        <ele>982</ele>
        <time>2021-01-29T14:29:30Z</time>
      </trkpt>
      <trkpt lat="42.94987" lon="1.30999">
        <ele>988</ele>
        <time>2021-01-29T14:29:37Z</time>
      </trkpt>
      <trkpt lat="42.94975" lon="1.31011">
        <ele>988</ele>
        <time>2021-01-29T14:29:40Z</time>
      </trkpt>
      <trkpt lat="42.94964" lon="1.31029">
        <ele>990</ele>
        <time>2021-01-29T14:29:43Z</time>
      </trkpt>
      <trkpt lat="42.94954" lon="1.31041">
        <ele>992</ele>
        <time>2021-01-29T14:29:45Z</time>
      </trkpt>
      <trkpt lat="42.94942" lon="1.31049">
        <ele>995</ele>
        <time>2021-01-29T14:29:48Z</time>
      </trkpt>
      <trkpt lat="42.9494" lon="1.31064">
        <ele>997</ele>
        <time>2021-01-29T14:29:50Z</time>
      </trkpt>
      <trkpt lat="42.94938" lon="1.31075">
        <ele>999</ele>
        <time>2021-01-29T14:29:51Z</time>
      </trkpt>
      <trkpt lat="42.9493" lon="1.31093">
        <ele>1003</ele>
        <time>2021-01-29T14:29:54Z</time>
      </trkpt>
      <trkpt lat="42.94923" lon="1.31149">
        <ele>1005</ele>
        <time>2021-01-29T14:30:01Z</time>
      </trkpt>
      <trkpt lat="42.94931" lon="1.31203">
        <ele>1003</ele>
        <time>2021-01-29T14:30:08Z</time>
      </trkpt>
      <trkpt lat="42.94956" lon="1.3126">
        <ele>991</ele>
        <time>2021-01-29T14:30:17Z</time>
      </trkpt>
      <trkpt lat="42.94974" lon="1.31329">
        <ele>990</ele>
        <time>2021-01-29T14:30:27Z</time>
      </trkpt>
      <trkpt lat="42.95022" lon="1.31394">
        <ele>977</ele>
        <time>2021-01-29T14:30:39Z</time>
      </trkpt>
      <trkpt lat="42.95047" lon="1.31445">
        <ele>973</ele>
        <time>2021-01-29T14:30:47Z</time>
      </trkpt>
      <trkpt lat="42.95064" lon="1.31502">
        <ele>973</ele>
        <time>2021-01-29T14:30:55Z</time>
      </trkpt>
      <trkpt lat="42.95075" lon="1.31571">
        <ele>969</ele>
        <time>2021-01-29T14:31:04Z</time>
      </trkpt>
      <trkpt lat="42.95074" lon="1.31612">
        <ele>966</ele>
        <time>2021-01-29T14:31:09Z</time>
      </trkpt>
      <trkpt lat="42.9507" lon="1.31633">
        <ele>965</ele>
        <time>2021-01-29T14:31:12Z</time>
      </trkpt>
      <trkpt lat="42.95071" lon="1.31641">
        <ele>964</ele>
        <time>2021-01-29T14:31:13Z</time>
      </trkpt>
      <trkpt lat="42.95074" lon="1.31644">
        <ele>962</ele>
        <time>2021-01-29T14:31:14Z</time>
      </trkpt>
      <trkpt lat="42.95078" lon="1.31645">
        <ele>960</ele>
        <time>2021-01-29T14:31:14Z</time>
      </trkpt>
      <trkpt lat="42.95081" lon="1.31642">
        <ele>958</ele>
        <time>2021-01-29T14:31:15Z</time>
      </trkpt>
      <trkpt lat="42.95104" lon="1.31611">
        <ele>957</ele>
        <time>2021-01-29T14:31:21Z</time>
      </trkpt>
      <trkpt lat="42.95112" lon="1.31607">
        <ele>955</ele>
        <time>2021-01-29T14:31:22Z</time>
      </trkpt>
      <trkpt lat="42.95122" lon="1.31611">
        <ele>952</ele>
        <time>2021-01-29T14:31:24Z</time>
      </trkpt>
      <trkpt lat="42.95135" lon="1.31621">
        <ele>949</ele>
        <time>2021-01-29T14:31:27Z</time>
      </trkpt>
      <trkpt lat="42.95145" lon="1.31626">
        <ele>946</ele>
        <time>2021-01-29T14:31:29Z</time>
      </trkpt>
      <trkpt lat="42.95151" lon="1.31625">
        <ele>945</ele>
        <time>2021-01-29T14:31:30Z</time>
      </trkpt>
      <trkpt lat="42.95176" lon="1.31608">
        <ele>941</ele>
        <time>2021-01-29T14:31:35Z</time>
      </trkpt>
      <trkpt lat="42.9519" lon="1.31593">
        <ele>940</ele>
        <time>2021-01-29T14:31:38Z</time>
      </trkpt>
      <trkpt lat="42.95226" lon="1.31535">
        <ele>934</ele>
        <time>2021-01-29T14:31:48Z</time>
      </trkpt>
      <trkpt lat="42.95238" lon="1.31518">
        <ele>931</ele>
        <time>2021-01-29T14:31:51Z</time>
      </trkpt>
      <trkpt lat="42.95245" lon="1.31514">
        <ele>930</ele>
        <time>2021-01-29T14:31:52Z</time>
      </trkpt>
      <trkpt lat="42.95253" lon="1.31514">
        <ele>929</ele>
        <time>2021-01-29T14:31:54Z</time>
      </trkpt>
      <trkpt lat="42.95263" lon="1.3152">
        <ele>928</ele>
        <time>2021-01-29T14:31:56Z</time>
      </trkpt>
      <trkpt lat="42.95282" lon="1.31537">
        <ele>926</ele>
        <time>2021-01-29T14:32:00Z</time>
      </trkpt>
      <trkpt lat="42.95304" lon="1.31552">
        <ele>924</ele>
        <time>2021-01-29T14:32:04Z</time>
      </trkpt>
      <trkpt lat="42.95333" lon="1.31566">
        <ele>923</ele>
        <time>2021-01-29T14:32:10Z</time>
      </trkpt>
      <trkpt lat="42.95397" lon="1.31587">
        <ele>918</ele>
        <time>2021-01-29T14:32:21Z</time>
      </trkpt>
      <trkpt lat="42.95409" lon="1.31585">
        <ele>917</ele>
        <time>2021-01-29T14:32:23Z</time>
      </trkpt>
      <trkpt lat="42.95421" lon="1.31573">
        <ele>914</ele>
        <time>2021-01-29T14:32:26Z</time>
      </trkpt>
      <trkpt lat="42.95428" lon="1.31562">
        <ele>911</ele>
        <time>2021-01-29T14:32:28Z</time>
      </trkpt>
      <trkpt lat="42.95435" lon="1.31535">
        <ele>908</ele>
        <time>2021-01-29T14:32:32Z</time>
      </trkpt>
      <trkpt lat="42.95446" lon="1.31505">
        <ele>905</ele>
        <time>2021-01-29T14:32:36Z</time>
      </trkpt>
      <trkpt lat="42.95453" lon="1.31492">
        <ele>904</ele>
        <time>2021-01-29T14:32:38Z</time>
      </trkpt>
      <trkpt lat="42.95465" lon="1.31477">
        <ele>902</ele>
        <time>2021-01-29T14:32:41Z</time>
      </trkpt>
      <trkpt lat="42.95486" lon="1.31455">
        <ele>901</ele>
        <time>2021-01-29T14:32:46Z</time>
      </trkpt>
      <trkpt lat="42.95501" lon="1.31449">
        <ele>901</ele>
        <time>2021-01-29T14:32:49Z</time>
      </trkpt>
      <trkpt lat="42.9551" lon="1.31448">
        <ele>899</ele>
        <time>2021-01-29T14:32:50Z</time>
      </trkpt>
      <trkpt lat="42.95545" lon="1.31455">
        <ele>894</ele>
        <time>2021-01-29T14:32:56Z</time>
      </trkpt>
      <trkpt lat="42.95553" lon="1.31458">
        <ele>893</ele>
        <time>2021-01-29T14:32:58Z</time>
      </trkpt>
      <trkpt lat="42.95557" lon="1.31462">
        <ele>892</ele>
        <time>2021-01-29T14:32:59Z</time>
      </trkpt>
      <trkpt lat="42.95559" lon="1.31469">
        <ele>892</ele>
        <time>2021-01-29T14:33:00Z</time>
      </trkpt>
      <trkpt lat="42.95559" lon="1.31477">
        <ele>893</ele>
        <time>2021-01-29T14:33:01Z</time>
      </trkpt>
      <trkpt lat="42.95554" lon="1.31484">
        <ele>894</ele>
        <time>2021-01-29T14:33:02Z</time>
      </trkpt>
      <trkpt lat="42.95546" lon="1.31488">
        <ele>895</ele>
        <time>2021-01-29T14:33:04Z</time>
      </trkpt>
      <trkpt lat="42.95537" lon="1.3149">
        <ele>897</ele>
        <time>2021-01-29T14:33:05Z</time>
      </trkpt>
      <trkpt lat="42.9552" lon="1.31501">
        <ele>900</ele>
        <time>2021-01-29T14:33:09Z</time>
      </trkpt>
      <trkpt lat="42.95506" lon="1.31514">
        <ele>901</ele>
        <time>2021-01-29T14:33:12Z</time>
      </trkpt>
      <trkpt lat="42.955" lon="1.31527">
        <ele>901</ele>
        <time>2021-01-29T14:33:14Z</time>
      </trkpt>
      <trkpt lat="42.95498" lon="1.31539">
        <ele>900</ele>
        <time>2021-01-29T14:33:15Z</time>
      </trkpt>
      <trkpt lat="42.955" lon="1.31557">
        <ele>898</ele>
        <time>2021-01-29T14:33:18Z</time>
      </trkpt>
      <trkpt lat="42.95516" lon="1.31599">
        <ele>890</ele>
        <time>2021-01-29T14:33:24Z</time>
      </trkpt>
      <trkpt lat="42.95517" lon="1.31602">
        <ele>889</ele>
        <time>2021-01-29T14:33:24Z</time>
      </trkpt>
      <trkpt lat="42.95523" lon="1.31616">
        <ele>887</ele>
        <time>2021-01-29T14:33:26Z</time>
      </trkpt>
      <trkpt lat="42.95524" lon="1.31629">
        <ele>885</ele>
        <time>2021-01-29T14:33:28Z</time>
      </trkpt>
      <trkpt lat="42.95516" lon="1.31655">
        <ele>884</ele>
        <time>2021-01-29T14:33:32Z</time>
      </trkpt>
      <trkpt lat="42.95511" lon="1.3168">
        <ele>885</ele>
        <time>2021-01-29T14:33:35Z</time>
      </trkpt>
      <trkpt lat="42.95511" lon="1.31686">
        <ele>885</ele>
        <time>2021-01-29T14:33:36Z</time>
      </trkpt>
      <trkpt lat="42.95515" lon="1.31693">
        <ele>885</ele>
        <time>2021-01-29T14:33:37Z</time>
      </trkpt>
      <trkpt lat="42.95522" lon="1.31696">
        <ele>884</ele>
        <time>2021-01-29T14:33:38Z</time>
      </trkpt>
      <trkpt lat="42.95546" lon="1.317">
        <ele>882</ele>
        <time>2021-01-29T14:33:43Z</time>
      </trkpt>
      <trkpt lat="42.95556" lon="1.317">
        <ele>880</ele>
        <time>2021-01-29T14:33:44Z</time>
      </trkpt>
      <trkpt lat="42.95591" lon="1.31674">
        <ele>873</ele>
        <time>2021-01-29T14:33:51Z</time>
      </trkpt>
      <trkpt lat="42.95618" lon="1.31637">
        <ele>872</ele>
        <time>2021-01-29T14:33:58Z</time>
      </trkpt>
      <trkpt lat="42.95628" lon="1.31628">
        <ele>872</ele>
        <time>2021-01-29T14:34:00Z</time>
      </trkpt>
      <trkpt lat="42.95678" lon="1.31605">
        <ele>867</ele>
        <time>2021-01-29T14:34:10Z</time>
      </trkpt>
      <trkpt lat="42.95714" lon="1.31581">
        <ele>864</ele>
        <time>2021-01-29T14:34:17Z</time>
      </trkpt>
      <trkpt lat="42.95751" lon="1.31567">
        <ele>864</ele>
        <time>2021-01-29T14:34:24Z</time>
      </trkpt>
      <trkpt lat="42.95769" lon="1.31564">
        <ele>863</ele>
        <time>2021-01-29T14:34:27Z</time>
      </trkpt>
      <trkpt lat="42.95812" lon="1.31565">
        <ele>860</ele>
        <time>2021-01-29T14:34:35Z</time>
      </trkpt>
      <trkpt lat="42.95823" lon="1.31563">
        <ele>859</ele>
        <time>2021-01-29T14:34:37Z</time>
      </trkpt>
      <trkpt lat="42.95853" lon="1.31552">
        <ele>854</ele>
        <time>2021-01-29T14:34:42Z</time>
      </trkpt>
      <trkpt lat="42.95883" lon="1.31533">
        <ele>845</ele>
        <time>2021-01-29T14:34:48Z</time>
      </trkpt>
      <trkpt lat="42.959" lon="1.31529">
        <ele>841</ele>
        <time>2021-01-29T14:34:51Z</time>
      </trkpt>
      <trkpt lat="42.95929" lon="1.31533">
        <ele>838</ele>
        <time>2021-01-29T14:34:56Z</time>
      </trkpt>
      <trkpt lat="42.95964" lon="1.31543">
        <ele>831</ele>
        <time>2021-01-29T14:35:03Z</time>
      </trkpt>
      <trkpt lat="42.96009" lon="1.31576">
        <ele>828</ele>
        <time>2021-01-29T14:35:12Z</time>
      </trkpt>
      <trkpt lat="42.96065" lon="1.31611">
        <ele>817</ele>
        <time>2021-01-29T14:35:23Z</time>
      </trkpt>
      <trkpt lat="42.96079" lon="1.31627">
        <ele>814</ele>
        <time>2021-01-29T14:35:26Z</time>
      </trkpt>
      <trkpt lat="42.96084" lon="1.31641">
        <ele>814</ele>
        <time>2021-01-29T14:35:28Z</time>
      </trkpt>
      <trkpt lat="42.96087" lon="1.31663">
        <ele>817</ele>
        <time>2021-01-29T14:35:31Z</time>
      </trkpt>
      <trkpt lat="42.96093" lon="1.31675">
        <ele>817</ele>
        <time>2021-01-29T14:35:33Z</time>
      </trkpt>
      <trkpt lat="42.96099" lon="1.31674">
        <ele>816</ele>
        <time>2021-01-29T14:35:34Z</time>
      </trkpt>
      <trkpt lat="42.96101" lon="1.3167">
        <ele>814</ele>
        <time>2021-01-29T14:35:34Z</time>
      </trkpt>
      <trkpt lat="42.96104" lon="1.31664">
        <ele>812</ele>
        <time>2021-01-29T14:35:35Z</time>
      </trkpt>
      <trkpt lat="42.96106" lon="1.31651">
        <ele>810</ele>
        <time>2021-01-29T14:35:37Z</time>
      </trkpt>
      <trkpt lat="42.96102" lon="1.31601">
        <ele>805</ele>
        <time>2021-01-29T14:35:44Z</time>
      </trkpt>
      <trkpt lat="42.961" lon="1.31587">
        <ele>803</ele>
        <time>2021-01-29T14:35:46Z</time>
      </trkpt>
      <trkpt lat="42.96098" lon="1.31574">
        <ele>801</ele>
        <time>2021-01-29T14:35:47Z</time>
      </trkpt>
      <trkpt lat="42.96094" lon="1.31562">
        <ele>799</ele>
        <time>2021-01-29T14:35:49Z</time>
      </trkpt>
      <trkpt lat="42.96087" lon="1.31555">
        <ele>799</ele>
        <time>2021-01-29T14:35:51Z</time>
      </trkpt>
      <trkpt lat="42.96049" lon="1.31534">
        <ele>804</ele>
        <time>2021-01-29T14:35:58Z</time>
      </trkpt>
      <trkpt lat="42.96045" lon="1.31529">
        <ele>804</ele>
        <time>2021-01-29T14:35:59Z</time>
      </trkpt>
      <trkpt lat="42.96044" lon="1.31523">
        <ele>802</ele>
        <time>2021-01-29T14:36:00Z</time>
      </trkpt>
      <trkpt lat="42.96047" lon="1.31517">
        <ele>800</ele>
        <time>2021-01-29T14:36:01Z</time>
      </trkpt>
      <trkpt lat="42.96053" lon="1.31516">
        <ele>798</ele>
        <time>2021-01-29T14:36:02Z</time>
      </trkpt>
      <trkpt lat="42.96071" lon="1.31528">
        <ele>796</ele>
        <time>2021-01-29T14:36:05Z</time>
      </trkpt>
      <trkpt lat="42.96111" lon="1.31535">
        <ele>788</ele>
        <time>2021-01-29T14:36:12Z</time>
      </trkpt>
      <trkpt lat="42.9613" lon="1.31548">
        <ele>787</ele>
        <time>2021-01-29T14:36:16Z</time>
      </trkpt>
      <trkpt lat="42.96144" lon="1.31563">
        <ele>787</ele>
        <time>2021-01-29T14:36:19Z</time>
      </trkpt>
      <trkpt lat="42.9615" lon="1.31586">
        <ele>791</ele>
        <time>2021-01-29T14:36:22Z</time>
      </trkpt>
      <trkpt lat="42.96147" lon="1.31628">
        <ele>797</ele>
        <time>2021-01-29T14:36:28Z</time>
      </trkpt>
      <trkpt lat="42.96146" lon="1.31663">
        <ele>802</ele>
        <time>2021-01-29T14:36:33Z</time>
      </trkpt>
      <trkpt lat="42.96148" lon="1.3168">
        <ele>805</ele>
        <time>2021-01-29T14:36:35Z</time>
      </trkpt>
      <trkpt lat="42.96155" lon="1.31687">
        <ele>805</ele>
        <time>2021-01-29T14:36:36Z</time>
      </trkpt>
      <trkpt lat="42.96164" lon="1.31685">
        <ele>802</ele>
        <time>2021-01-29T14:36:38Z</time>
      </trkpt>
      <trkpt lat="42.96176" lon="1.31677">
        <ele>800</ele>
        <time>2021-01-29T14:36:40Z</time>
      </trkpt>
      <trkpt lat="42.96192" lon="1.31656">
        <ele>797</ele>
        <time>2021-01-29T14:36:44Z</time>
      </trkpt>
      <trkpt lat="42.96245" lon="1.31542">
        <ele>771</ele>
        <time>2021-01-29T14:37:02Z</time>
      </trkpt>
      <trkpt lat="42.96257" lon="1.31529">
        <ele>767</ele>
        <time>2021-01-29T14:37:05Z</time>
      </trkpt>
      <trkpt lat="42.96271" lon="1.31523">
        <ele>765</ele>
        <time>2021-01-29T14:37:07Z</time>
      </trkpt>
      <trkpt lat="42.96311" lon="1.31512">
        <ele>763</ele>
        <time>2021-01-29T14:37:14Z</time>
      </trkpt>
      <trkpt lat="42.96336" lon="1.31501">
        <ele>761</ele>
        <time>2021-01-29T14:37:19Z</time>
      </trkpt>
      <trkpt lat="42.9636" lon="1.31488">
        <ele>756</ele>
        <time>2021-01-29T14:37:24Z</time>
      </trkpt>
      <trkpt lat="42.96372" lon="1.31486">
        <ele>754</ele>
        <time>2021-01-29T14:37:26Z</time>
      </trkpt>
      <trkpt lat="42.96377" lon="1.31486">
        <ele>754</ele>
        <time>2021-01-29T14:37:27Z</time>
      </trkpt>
      <trkpt lat="42.96381" lon="1.31491">
        <ele>755</ele>
        <time>2021-01-29T14:37:28Z</time>
      </trkpt>
      <trkpt lat="42.96386" lon="1.31501">
        <ele>758</ele>
        <time>2021-01-29T14:37:29Z</time>
      </trkpt>
      <trkpt lat="42.96389" lon="1.31525">
        <ele>763</ele>
        <time>2021-01-29T14:37:32Z</time>
      </trkpt>
      <trkpt lat="42.96391" lon="1.31529">
        <ele>764</ele>
        <time>2021-01-29T14:37:33Z</time>
      </trkpt>
      <trkpt lat="42.96396" lon="1.3153">
        <ele>764</ele>
        <time>2021-01-29T14:37:34Z</time>
      </trkpt>
      <trkpt lat="42.96401" lon="1.31526">
        <ele>762</ele>
        <time>2021-01-29T14:37:35Z</time>
      </trkpt>
      <trkpt lat="42.96406" lon="1.31519">
        <ele>761</ele>
        <time>2021-01-29T14:37:36Z</time>
      </trkpt>
      <trkpt lat="42.96411" lon="1.31493">
        <ele>754</ele>
        <time>2021-01-29T14:37:40Z</time>
      </trkpt>
      <trkpt lat="42.96422" lon="1.31471">
        <ele>748</ele>
        <time>2021-01-29T14:37:43Z</time>
      </trkpt>
      <trkpt lat="42.96457" lon="1.31433">
        <ele>740</ele>
        <time>2021-01-29T14:37:51Z</time>
      </trkpt>
      <trkpt lat="42.96503" lon="1.31389">
        <ele>732</ele>
        <time>2021-01-29T14:38:01Z</time>
      </trkpt>
      <trkpt lat="42.9652" lon="1.31379">
        <ele>728</ele>
        <time>2021-01-29T14:38:05Z</time>
      </trkpt>
      <trkpt lat="42.9653" lon="1.31379">
        <ele>728</ele>
        <time>2021-01-29T14:38:06Z</time>
      </trkpt>
      <trkpt lat="42.96536" lon="1.31383">
        <ele>728</ele>
        <time>2021-01-29T14:38:07Z</time>
      </trkpt>
      <trkpt lat="42.96541" lon="1.31392">
        <ele>730</ele>
        <time>2021-01-29T14:38:09Z</time>
      </trkpt>
      <trkpt lat="42.96544" lon="1.31413">
        <ele>735</ele>
        <time>2021-01-29T14:38:12Z</time>
      </trkpt>
      <trkpt lat="42.9655" lon="1.31435">
        <ele>741</ele>
        <time>2021-01-29T14:38:15Z</time>
      </trkpt>
      <trkpt lat="42.96561" lon="1.31448">
        <ele>744</ele>
        <time>2021-01-29T14:38:17Z</time>
      </trkpt>
      <trkpt lat="42.96568" lon="1.31449">
        <ele>743</ele>
        <time>2021-01-29T14:38:19Z</time>
      </trkpt>
      <trkpt lat="42.96575" lon="1.31446">
        <ele>742</ele>
        <time>2021-01-29T14:38:20Z</time>
      </trkpt>
      <trkpt lat="42.96581" lon="1.31441">
        <ele>740</ele>
        <time>2021-01-29T14:38:21Z</time>
      </trkpt>
      <trkpt lat="42.96596" lon="1.31416">
        <ele>736</ele>
        <time>2021-01-29T14:38:25Z</time>
      </trkpt>
      <trkpt lat="42.96613" lon="1.31375">
        <ele>730</ele>
        <time>2021-01-29T14:38:32Z</time>
      </trkpt>
      <trkpt lat="42.96629" lon="1.31327">
        <ele>722</ele>
        <time>2021-01-29T14:38:38Z</time>
      </trkpt>
      <trkpt lat="42.96652" lon="1.31298">
        <ele>720</ele>
        <time>2021-01-29T14:38:44Z</time>
      </trkpt>
      <trkpt lat="42.96659" lon="1.31284">
        <ele>718</ele>
        <time>2021-01-29T14:38:46Z</time>
      </trkpt>
      <trkpt lat="42.96668" lon="1.31224">
        <ele>707</ele>
        <time>2021-01-29T14:38:54Z</time>
      </trkpt>
      <trkpt lat="42.96706" lon="1.31119">
        <ele>696</ele>
        <time>2021-01-29T14:39:09Z</time>
      </trkpt>
      <trkpt lat="42.9673" lon="1.31089">
        <ele>694</ele>
        <time>2021-01-29T14:39:15Z</time>
      </trkpt>
      <trkpt lat="42.96766" lon="1.31053">
        <ele>690</ele>
        <time>2021-01-29T14:39:23Z</time>
      </trkpt>
      <trkpt lat="42.96822" lon="1.31015">
        <ele>686</ele>
        <time>2021-01-29T14:39:34Z</time>
      </trkpt>
      <trkpt lat="42.96901" lon="1.3101">
        <ele>686</ele>
        <time>2021-01-29T14:39:48Z</time>
      </trkpt>
      <trkpt lat="42.96982" lon="1.31021">
        <ele>672</ele>
        <time>2021-01-29T14:40:03Z</time>
      </trkpt>
      <trkpt lat="42.9702" lon="1.3105">
        <ele>668</ele>
        <time>2021-01-29T14:40:11Z</time>
      </trkpt>
      <trkpt lat="42.97074" lon="1.31076">
        <ele>653</ele>
        <time>2021-01-29T14:40:21Z</time>
      </trkpt>
      <trkpt lat="42.97081" lon="1.31077">
        <ele>650</ele>
        <time>2021-01-29T14:40:22Z</time>
      </trkpt>
      <trkpt lat="42.97123" lon="1.3105">
        <ele>639</ele>
        <time>2021-01-29T14:40:30Z</time>
      </trkpt>
      <trkpt lat="42.97149" lon="1.31034">
        <ele>635</ele>
        <time>2021-01-29T14:40:35Z</time>
      </trkpt>
      <trkpt lat="42.97182" lon="1.31005">
        <ele>633</ele>
        <time>2021-01-29T14:40:42Z</time>
      </trkpt>
      <trkpt lat="42.97222" lon="1.30982">
        <ele>627</ele>
        <time>2021-01-29T14:40:50Z</time>
      </trkpt>
      <trkpt lat="42.97282" lon="1.30936">
        <ele>627</ele>
        <time>2021-01-29T14:41:02Z</time>
      </trkpt>
      <trkpt lat="42.97285" lon="1.30933">
        <ele>628</ele>
        <time>2021-01-29T14:41:03Z</time>
      </trkpt>
      <trkpt lat="42.97325" lon="1.30871">
        <ele>625</ele>
        <time>2021-01-29T14:41:14Z</time>
      </trkpt>
      <trkpt lat="42.97377" lon="1.30792">
        <ele>620</ele>
        <time>2021-01-29T14:41:28Z</time>
      </trkpt>
      <trkpt lat="42.97423" lon="1.30706">
        <ele>612</ele>
        <time>2021-01-29T14:41:41Z</time>
      </trkpt>
      <trkpt lat="42.97448" lon="1.30625">
        <ele>604</ele>
        <time>2021-01-29T14:41:53Z</time>
      </trkpt>
      <trkpt lat="42.97474" lon="1.30552">
        <ele>596</ele>
        <time>2021-01-29T14:42:03Z</time>
      </trkpt>
      <trkpt lat="42.97522" lon="1.30441">
        <ele>586</ele>
        <time>2021-01-29T14:42:20Z</time>
      </trkpt>
      <trkpt lat="42.97569" lon="1.30311">
        <ele>574</ele>
        <time>2021-01-29T14:42:39Z</time>
      </trkpt>
      <trkpt lat="42.97585" lon="1.30277">
        <ele>568</ele>
        <time>2021-01-29T14:42:44Z</time>
      </trkpt>
      <trkpt lat="42.97589" lon="1.30268">
        <ele>565</ele>
        <time>2021-01-29T14:42:46Z</time>
      </trkpt>
      <trkpt lat="42.97596" lon="1.3026">
        <ele>562</ele>
        <time>2021-01-29T14:42:47Z</time>
      </trkpt>
      <trkpt lat="42.97602" lon="1.30256">
        <ele>560</ele>
        <time>2021-01-29T14:42:49Z</time>
      </trkpt>
      <trkpt lat="42.97609" lon="1.30259">
        <ele>560</ele>
        <time>2021-01-29T14:42:50Z</time>
      </trkpt>
      <trkpt lat="42.97617" lon="1.30268">
        <ele>561</ele>
        <time>2021-01-29T14:42:52Z</time>
      </trkpt>
      <trkpt lat="42.97637" lon="1.303">
        <ele>566</ele>
        <time>2021-01-29T14:42:57Z</time>
      </trkpt>
      <trkpt lat="42.97658" lon="1.30318">
        <ele>567</ele>
        <time>2021-01-29T14:43:02Z</time>
      </trkpt>
      <trkpt lat="42.97678" lon="1.30329">
        <ele>567</ele>
        <time>2021-01-29T14:43:05Z</time>
      </trkpt>
      <trkpt lat="42.97697" lon="1.30345">
        <ele>570</ele>
        <time>2021-01-29T14:43:09Z</time>
      </trkpt>
      <trkpt lat="42.97719" lon="1.30382">
        <ele>575</ele>
        <time>2021-01-29T14:43:16Z</time>
      </trkpt>
      <trkpt lat="42.97735" lon="1.30415">
        <ele>576</ele>
        <time>2021-01-29T14:43:21Z</time>
      </trkpt>
      <trkpt lat="42.97744" lon="1.30473">
        <ele>574</ele>
        <time>2021-01-29T14:43:28Z</time>
      </trkpt>
      <trkpt lat="42.97747" lon="1.30475">
        <ele>573</ele>
        <time>2021-01-29T14:43:29Z</time>
      </trkpt>
      <trkpt lat="42.97753" lon="1.30474">
        <ele>572</ele>
        <time>2021-01-29T14:43:30Z</time>
      </trkpt>
      <trkpt lat="42.97759" lon="1.30469">
        <ele>575</ele>
        <time>2021-01-29T14:43:31Z</time>
      </trkpt>
      <trkpt lat="42.9776" lon="1.30448">
        <ele>576</ele>
        <time>2021-01-29T14:43:34Z</time>
      </trkpt>
      <trkpt lat="42.97751" lon="1.30346">
        <ele>566</ele>
        <time>2021-01-29T14:43:47Z</time>
      </trkpt>
      <trkpt lat="42.97746" lon="1.30321">
        <ele>564</ele>
        <time>2021-01-29T14:43:51Z</time>
      </trkpt>
      <trkpt lat="42.97733" lon="1.30286">
        <ele>563</ele>
        <time>2021-01-29T14:43:56Z</time>
      </trkpt>
      <trkpt lat="42.97725" lon="1.30239">
        <ele>558</ele>
        <time>2021-01-29T14:44:02Z</time>
      </trkpt>
      <trkpt lat="42.97734" lon="1.3011">
        <ele>549</ele>
        <time>2021-01-29T14:44:19Z</time>
      </trkpt>
      <trkpt lat="42.97742" lon="1.3008">
        <ele>548</ele>
        <time>2021-01-29T14:44:23Z</time>
      </trkpt>
      <trkpt lat="42.97748" lon="1.3007">
        <ele>548</ele>
        <time>2021-01-29T14:44:25Z</time>
      </trkpt>
      <trkpt lat="42.97773" lon="1.30053">
        <ele>556</ele>
        <time>2021-01-29T14:44:30Z</time>
      </trkpt>
      <trkpt lat="42.97777" lon="1.30044">
        <ele>557</ele>
        <time>2021-01-29T14:44:31Z</time>
      </trkpt>
      <trkpt lat="42.97778" lon="1.30033">
        <ele>557</ele>
        <time>2021-01-29T14:44:33Z</time>
      </trkpt>
      <trkpt lat="42.97769" lon="1.3001">
        <ele>552</ele>
        <time>2021-01-29T14:44:36Z</time>
      </trkpt>
      <trkpt lat="42.97767" lon="1.29998">
        <ele>551</ele>
        <time>2021-01-29T14:44:38Z</time>
      </trkpt>
      <trkpt lat="42.97777" lon="1.29883">
        <ele>548</ele>
        <time>2021-01-29T14:44:53Z</time>
      </trkpt>
      <trkpt lat="42.97787" lon="1.29827">
        <ele>548</ele>
        <time>2021-01-29T14:45:00Z</time>
      </trkpt>
      <trkpt lat="42.97801" lon="1.29783">
        <ele>548</ele>
        <time>2021-01-29T14:45:07Z</time>
      </trkpt>
      <trkpt lat="42.9782" lon="1.29742">
        <ele>549</ele>
        <time>2021-01-29T14:45:13Z</time>
      </trkpt>
      <trkpt lat="42.97835" lon="1.29714">
        <ele>548</ele>
        <time>2021-01-29T14:45:17Z</time>
      </trkpt>
      <trkpt lat="42.97846" lon="1.297">
        <ele>548</ele>
        <time>2021-01-29T14:45:20Z</time>
      </trkpt>
      <trkpt lat="42.97858" lon="1.2969">
        <ele>549</ele>
        <time>2021-01-29T14:45:23Z</time>
      </trkpt>
      <trkpt lat="42.97877" lon="1.29687">
        <ele>553</ele>
        <time>2021-01-29T14:45:26Z</time>
      </trkpt>
      <trkpt lat="42.97899" lon="1.29699">
        <ele>559</ele>
        <time>2021-01-29T14:45:30Z</time>
      </trkpt>
      <trkpt lat="42.97905" lon="1.29697">
        <ele>560</ele>
        <time>2021-01-29T14:45:31Z</time>
      </trkpt>
      <trkpt lat="42.97911" lon="1.29691">
        <ele>561</ele>
        <time>2021-01-29T14:45:33Z</time>
      </trkpt>
      <trkpt lat="42.97915" lon="1.29681">
        <ele>560</ele>
        <time>2021-01-29T14:45:34Z</time>
      </trkpt>
      <trkpt lat="42.97915" lon="1.29668">
        <ele>559</ele>
        <time>2021-01-29T14:45:36Z</time>
      </trkpt>
      <trkpt lat="42.97912" lon="1.29656">
        <ele>557</ele>
        <time>2021-01-29T14:45:37Z</time>
      </trkpt>
      <trkpt lat="42.97896" lon="1.29618">
        <ele>552</ele>
        <time>2021-01-29T14:45:43Z</time>
      </trkpt>
      <trkpt lat="42.97894" lon="1.29602">
        <ele>550</ele>
        <time>2021-01-29T14:45:45Z</time>
      </trkpt>
      <trkpt lat="42.97895" lon="1.29586">
        <ele>549</ele>
        <time>2021-01-29T14:45:47Z</time>
      </trkpt>
      <trkpt lat="42.97903" lon="1.2956">
        <ele>548</ele>
        <time>2021-01-29T14:45:51Z</time>
      </trkpt>
      <trkpt lat="42.97924" lon="1.2952">
        <ele>548</ele>
        <time>2021-01-29T14:45:57Z</time>
      </trkpt>
      <trkpt lat="42.97962" lon="1.29464">
        <ele>547</ele>
        <time>2021-01-29T14:46:07Z</time>
      </trkpt>
      <trkpt lat="42.97981" lon="1.29442">
        <ele>547</ele>
        <time>2021-01-29T14:46:12Z</time>
      </trkpt>
      <trkpt lat="42.98004" lon="1.29421">
        <ele>547</ele>
        <time>2021-01-29T14:46:17Z</time>
      </trkpt>
      <trkpt lat="42.98023" lon="1.29408">
        <ele>546</ele>
        <time>2021-01-29T14:46:20Z</time>
      </trkpt>
      <trkpt lat="42.98035" lon="1.29403">
        <ele>546</ele>
        <time>2021-01-29T14:46:23Z</time>
      </trkpt>
      <trkpt lat="42.98057" lon="1.29404">
        <ele>549</ele>
        <time>2021-01-29T14:46:27Z</time>
      </trkpt>
      <trkpt lat="42.98073" lon="1.29416">
        <ele>554</ele>
        <time>2021-01-29T14:46:30Z</time>
      </trkpt>
      <trkpt lat="42.98079" lon="1.29416">
        <ele>554</ele>
        <time>2021-01-29T14:46:31Z</time>
      </trkpt>
      <trkpt lat="42.98085" lon="1.29413">
        <ele>555</ele>
        <time>2021-01-29T14:46:32Z</time>
      </trkpt>
      <trkpt lat="42.98089" lon="1.29404">
        <ele>553</ele>
        <time>2021-01-29T14:46:33Z</time>
      </trkpt>
      <trkpt lat="42.98096" lon="1.29375">
        <ele>548</ele>
        <time>2021-01-29T14:46:37Z</time>
      </trkpt>
      <trkpt lat="42.98103" lon="1.2936">
        <ele>546</ele>
        <time>2021-01-29T14:46:40Z</time>
      </trkpt>
      <trkpt lat="42.98111" lon="1.29347">
        <ele>544</ele>
        <time>2021-01-29T14:46:42Z</time>
      </trkpt>
      <trkpt lat="42.98169" lon="1.29315">
        <ele>549</ele>
        <time>2021-01-29T14:46:53Z</time>
      </trkpt>
      <trkpt lat="42.98235" lon="1.29282">
        <ele>547</ele>
        <time>2021-01-29T14:47:06Z</time>
      </trkpt>
      <trkpt lat="42.98293" lon="1.29273">
        <ele>542</ele>
        <time>2021-01-29T14:47:16Z</time>
      </trkpt>
      <trkpt lat="42.98332" lon="1.29273">
        <ele>539</ele>
        <time>2021-01-29T14:47:23Z</time>
      </trkpt>
      <trkpt lat="42.9835" lon="1.29278">
        <ele>540</ele>
        <time>2021-01-29T14:47:26Z</time>
      </trkpt>
      <trkpt lat="42.98361" lon="1.2929">
        <ele>544</ele>
        <time>2021-01-29T14:47:29Z</time>
      </trkpt>
      <trkpt lat="42.98368" lon="1.29326">
        <ele>557</ele>
        <time>2021-01-29T14:47:34Z</time>
      </trkpt>
      <trkpt lat="42.98375" lon="1.29337">
        <ele>560</ele>
        <time>2021-01-29T14:47:35Z</time>
      </trkpt>
      <trkpt lat="42.98384" lon="1.29341">
        <ele>560</ele>
        <time>2021-01-29T14:47:37Z</time>
      </trkpt>
      <trkpt lat="42.98392" lon="1.29337">
        <ele>558</ele>
        <time>2021-01-29T14:47:39Z</time>
      </trkpt>
      <trkpt lat="42.984" lon="1.29313">
        <ele>549</ele>
        <time>2021-01-29T14:47:42Z</time>
      </trkpt>
      <trkpt lat="42.98406" lon="1.29304">
        <ele>545</ele>
        <time>2021-01-29T14:47:44Z</time>
      </trkpt>
      <trkpt lat="42.98414" lon="1.293">
        <ele>543</ele>
        <time>2021-01-29T14:47:45Z</time>
      </trkpt>
      <trkpt lat="42.98432" lon="1.293">
        <ele>545</ele>
        <time>2021-01-29T14:47:48Z</time>
      </trkpt>
      <trkpt lat="42.98468" lon="1.29284">
        <ele>545</ele>
        <time>2021-01-29T14:47:55Z</time>
      </trkpt>
      <trkpt lat="42.98487" lon="1.29279">
        <ele>546</ele>
        <time>2021-01-29T14:47:59Z</time>
      </trkpt>
      <trkpt lat="42.98493" lon="1.29273">
        <ele>544</ele>
        <time>2021-01-29T14:48:00Z</time>
      </trkpt>
      <trkpt lat="42.98496" lon="1.29256">
        <ele>539</ele>
        <time>2021-01-29T14:48:02Z</time>
      </trkpt>
      <trkpt lat="42.98503" lon="1.29242">
        <ele>537</ele>
        <time>2021-01-29T14:48:04Z</time>
      </trkpt>
      <trkpt lat="42.98515" lon="1.2923">
        <ele>539</ele>
        <time>2021-01-29T14:48:07Z</time>
      </trkpt>
      <trkpt lat="42.98537" lon="1.29218">
        <ele>543</ele>
        <time>2021-01-29T14:48:11Z</time>
      </trkpt>
      <trkpt lat="42.98546" lon="1.29204">
        <ele>542</ele>
        <time>2021-01-29T14:48:14Z</time>
      </trkpt>
      <trkpt lat="42.98549" lon="1.29185">
        <ele>539</ele>
        <time>2021-01-29T14:48:16Z</time>
      </trkpt>
      <trkpt lat="42.98554" lon="1.29174">
        <ele>537</ele>
        <time>2021-01-29T14:48:18Z</time>
      </trkpt>
      <trkpt lat="42.9856" lon="1.29167">
        <ele>537</ele>
        <time>2021-01-29T14:48:19Z</time>
      </trkpt>
      <trkpt lat="42.98584" lon="1.29149">
        <ele>539</ele>
        <time>2021-01-29T14:48:24Z</time>
      </trkpt>
      <trkpt lat="42.98616" lon="1.2912">
        <ele>539</ele>
        <time>2021-01-29T14:48:31Z</time>
      </trkpt>
      <trkpt lat="42.98655" lon="1.29074">
        <ele>536</ele>
        <time>2021-01-29T14:48:40Z</time>
      </trkpt>
      <trkpt lat="42.98728" lon="1.29028">
        <ele>531</ele>
        <time>2021-01-29T14:48:54Z</time>
      </trkpt>
      <trkpt lat="42.98735" lon="1.29029">
        <ele>532</ele>
        <time>2021-01-29T14:48:56Z</time>
      </trkpt>
      <trkpt lat="42.98745" lon="1.29038">
        <ele>534</ele>
        <time>2021-01-29T14:48:58Z</time>
      </trkpt>
      <trkpt lat="42.98749" lon="1.29051">
        <ele>537</ele>
        <time>2021-01-29T14:49:00Z</time>
      </trkpt>
      <trkpt lat="42.98749" lon="1.29103">
        <ele>546</ele>
        <time>2021-01-29T14:49:06Z</time>
      </trkpt>
      <trkpt lat="42.98755" lon="1.29123">
        <ele>550</ele>
        <time>2021-01-29T14:49:09Z</time>
      </trkpt>
      <trkpt lat="42.98762" lon="1.29128">
        <ele>552</ele>
        <time>2021-01-29T14:49:11Z</time>
      </trkpt>
      <trkpt lat="42.98769" lon="1.29126">
        <ele>553</ele>
        <time>2021-01-29T14:49:12Z</time>
      </trkpt>
      <trkpt lat="42.98788" lon="1.29099">
        <ele>551</ele>
        <time>2021-01-29T14:49:17Z</time>
      </trkpt>
      <trkpt lat="42.98804" lon="1.29071">
        <ele>549</ele>
        <time>2021-01-29T14:49:21Z</time>
      </trkpt>
      <trkpt lat="42.98811" lon="1.2905">
        <ele>546</ele>
        <time>2021-01-29T14:49:24Z</time>
      </trkpt>
      <trkpt lat="42.98818" lon="1.2899">
        <ele>538</ele>
        <time>2021-01-29T14:49:32Z</time>
      </trkpt>
      <trkpt lat="42.9883" lon="1.28936">
        <ele>533</ele>
        <time>2021-01-29T14:49:40Z</time>
      </trkpt>
      <trkpt lat="42.98858" lon="1.2884">
        <ele>525</ele>
        <time>2021-01-29T14:49:53Z</time>
      </trkpt>
      <trkpt lat="42.98871" lon="1.28749">
        <ele>519</ele>
        <time>2021-01-29T14:50:05Z</time>
      </trkpt>
      <trkpt lat="42.98882" lon="1.28716">
        <ele>517</ele>
        <time>2021-01-29T14:50:10Z</time>
      </trkpt>
      <trkpt lat="42.9889" lon="1.28705">
        <ele>517</ele>
        <time>2021-01-29T14:50:12Z</time>
      </trkpt>
      <trkpt lat="42.98898" lon="1.28702">
        <ele>518</ele>
        <time>2021-01-29T14:50:13Z</time>
      </trkpt>
      <trkpt lat="42.98908" lon="1.28703">
        <ele>520</ele>
        <time>2021-01-29T14:50:15Z</time>
      </trkpt>
      <trkpt lat="42.98915" lon="1.28708">
        <ele>522</ele>
        <time>2021-01-29T14:50:17Z</time>
      </trkpt>
      <trkpt lat="42.98919" lon="1.28714">
        <ele>523</ele>
        <time>2021-01-29T14:50:18Z</time>
      </trkpt>
      <trkpt lat="42.98937" lon="1.28752">
        <ele>525</ele>
        <time>2021-01-29T14:50:24Z</time>
      </trkpt>
      <trkpt lat="42.98977" lon="1.28835">
        <ele>528</ele>
        <time>2021-01-29T14:50:36Z</time>
      </trkpt>
      <trkpt lat="42.98996" lon="1.28862">
        <ele>529</ele>
        <time>2021-01-29T14:50:41Z</time>
      </trkpt>
      <trkpt lat="42.99031" lon="1.28887">
        <ele>528</ele>
        <time>2021-01-29T14:50:48Z</time>
      </trkpt>
      <trkpt lat="42.99038" lon="1.28892">
        <ele>527</ele>
        <time>2021-01-29T14:50:50Z</time>
      </trkpt>
      <trkpt lat="42.99055" lon="1.28924">
        <ele>527</ele>
        <time>2021-01-29T14:50:55Z</time>
      </trkpt>
      <trkpt lat="42.99086" lon="1.28988">
        <ele>522</ele>
        <time>2021-01-29T14:51:05Z</time>
      </trkpt>
      <trkpt lat="42.99105" lon="1.29027">
        <ele>521</ele>
        <time>2021-01-29T14:51:11Z</time>
      </trkpt>
      <trkpt lat="42.99135" lon="1.29092">
        <ele>516</ele>
        <time>2021-01-29T14:51:21Z</time>
      </trkpt>
      <trkpt lat="42.99141" lon="1.29097">
        <ele>515</ele>
        <time>2021-01-29T14:51:22Z</time>
      </trkpt>
      <trkpt lat="42.99147" lon="1.29098">
        <ele>514</ele>
        <time>2021-01-29T14:51:23Z</time>
      </trkpt>
      <trkpt lat="42.99152" lon="1.29095">
        <ele>513</ele>
        <time>2021-01-29T14:51:24Z</time>
      </trkpt>
      <trkpt lat="42.99158" lon="1.29071">
        <ele>513</ele>
        <time>2021-01-29T14:51:28Z</time>
      </trkpt>
      <trkpt lat="42.99166" lon="1.29035">
        <ele>512</ele>
        <time>2021-01-29T14:51:33Z</time>
      </trkpt>
      <trkpt lat="42.99181" lon="1.29001">
        <ele>511</ele>
        <time>2021-01-29T14:51:38Z</time>
      </trkpt>
      <trkpt lat="42.99205" lon="1.28967">
        <ele>513</ele>
        <time>2021-01-29T14:51:44Z</time>
      </trkpt>
      <trkpt lat="42.99229" lon="1.28944">
        <ele>515</ele>
        <time>2021-01-29T14:51:49Z</time>
      </trkpt>
      <trkpt lat="42.99252" lon="1.28926">
        <ele>517</ele>
        <time>2021-01-29T14:51:54Z</time>
      </trkpt>
      <trkpt lat="42.99326" lon="1.28898">
        <ele>515</ele>
        <time>2021-01-29T14:52:07Z</time>
      </trkpt>
      <trkpt lat="42.99357" lon="1.28882">
        <ele>515</ele>
        <time>2021-01-29T14:52:13Z</time>
      </trkpt>
      <trkpt lat="42.99367" lon="1.28874">
        <ele>516</ele>
        <time>2021-01-29T14:52:15Z</time>
      </trkpt>
      <trkpt lat="42.99375" lon="1.2887">
        <ele>516</ele>
        <time>2021-01-29T14:52:17Z</time>
      </trkpt>
      <trkpt lat="42.99382" lon="1.28868">
        <ele>516</ele>
        <time>2021-01-29T14:52:18Z</time>
      </trkpt>
      <trkpt lat="42.99398" lon="1.28857">
        <ele>516</ele>
        <time>2021-01-29T14:52:21Z</time>
      </trkpt>
      <trkpt lat="42.99406" lon="1.28851">
        <ele>515</ele>
        <time>2021-01-29T14:52:23Z</time>
      </trkpt>
      <trkpt lat="42.99406" lon="1.2878">
        <ele>516</ele>
        <time>2021-01-29T14:52:32Z</time>
      </trkpt>
      <trkpt lat="42.99406" lon="1.28853">
        <ele>515</ele>
        <time>2021-01-29T14:52:42Z</time>
      </trkpt>
      <trkpt lat="42.99393" lon="1.28941">
        <ele>519</ele>
        <time>2021-01-29T14:52:53Z</time>
      </trkpt>
      <trkpt lat="42.99368" lon="1.2906">
        <ele>515</ele>
        <time>2021-01-29T14:53:10Z</time>
      </trkpt>
      <trkpt lat="42.99366" lon="1.29128">
        <ele>514</ele>
        <time>2021-01-29T14:53:18Z</time>
      </trkpt>
      <trkpt lat="42.9937" lon="1.29196">
        <ele>512</ele>
        <time>2021-01-29T14:53:27Z</time>
      </trkpt>
      <trkpt lat="42.99379" lon="1.29291">
        <ele>511</ele>
        <time>2021-01-29T14:53:40Z</time>
      </trkpt>
      <trkpt lat="42.99468" lon="1.2973">
        <ele>489</ele>
        <time>2021-01-29T14:54:39Z</time>
      </trkpt>
      <trkpt lat="42.99614" lon="1.30478">
        <ele>464</ele>
        <time>2021-01-29T14:56:20Z</time>
      </trkpt>
      <trkpt lat="42.99623" lon="1.30568">
        <ele>469</ele>
        <time>2021-01-29T14:56:32Z</time>
      </trkpt>
      <trkpt lat="42.99631" lon="1.3096">
        <ele>476</ele>
        <time>2021-01-29T14:57:23Z</time>
      </trkpt>
      <trkpt lat="42.99631" lon="1.3112">
        <ele>482</ele>
        <time>2021-01-29T14:57:43Z</time>
      </trkpt>
      <trkpt lat="42.99629" lon="1.312">
        <ele>480</ele>
        <time>2021-01-29T14:57:54Z</time>
      </trkpt>
      <trkpt lat="42.99621" lon="1.31263">
        <ele>477</ele>
        <time>2021-01-29T14:58:02Z</time>
      </trkpt>
      <trkpt lat="42.99608" lon="1.31324">
        <ele>475</ele>
        <time>2021-01-29T14:58:10Z</time>
      </trkpt>
      <trkpt lat="42.99588" lon="1.31385">
        <ele>473</ele>
        <time>2021-01-29T14:58:19Z</time>
      </trkpt>
      <trkpt lat="42.99529" lon="1.3153">
        <ele>465</ele>
        <time>2021-01-29T14:58:41Z</time>
      </trkpt>
      <trkpt lat="42.99512" lon="1.31587">
        <ele>464</ele>
        <time>2021-01-29T14:58:49Z</time>
      </trkpt>
      <trkpt lat="42.99503" lon="1.31629">
        <ele>463</ele>
        <time>2021-01-29T14:58:54Z</time>
      </trkpt>
      <trkpt lat="42.99494" lon="1.31687">
        <ele>460</ele>
        <time>2021-01-29T14:59:02Z</time>
      </trkpt>
      <trkpt lat="42.99491" lon="1.31759">
        <ele>457</ele>
        <time>2021-01-29T14:59:12Z</time>
      </trkpt>
      <trkpt lat="42.99493" lon="1.31807">
        <ele>455</ele>
        <time>2021-01-29T14:59:18Z</time>
      </trkpt>
      <trkpt lat="42.995" lon="1.31892">
        <ele>452</ele>
        <time>2021-01-29T14:59:29Z</time>
      </trkpt>
      <trkpt lat="42.99532" lon="1.32138">
        <ele>437</ele>
        <time>2021-01-29T15:00:01Z</time>
      </trkpt>
      <trkpt lat="42.99576" lon="1.32494">
        <ele>428</ele>
        <time>2021-01-29T15:00:48Z</time>
      </trkpt>
      <trkpt lat="42.99588" lon="1.32571">
        <ele>426</ele>
        <time>2021-01-29T15:00:59Z</time>
      </trkpt>
      <trkpt lat="42.99603" lon="1.32636">
        <ele>425</ele>
        <time>2021-01-29T15:01:08Z</time>
      </trkpt>
      <trkpt lat="42.99618" lon="1.32693">
        <ele>425</ele>
        <time>2021-01-29T15:01:15Z</time>
      </trkpt>
      <trkpt lat="42.99636" lon="1.32744">
        <ele>426</ele>
        <time>2021-01-29T15:01:23Z</time>
      </trkpt>
      <trkpt lat="42.99658" lon="1.32795">
        <ele>425</ele>
        <time>2021-01-29T15:01:31Z</time>
      </trkpt>
      <trkpt lat="42.99688" lon="1.32854">
        <ele>427</ele>
        <time>2021-01-29T15:01:40Z</time>
      </trkpt>
      <trkpt lat="42.99784" lon="1.33026">
        <ele>420</ele>
        <time>2021-01-29T15:02:08Z</time>
      </trkpt>
      <trkpt lat="42.99983" lon="1.33477">
        <ele>413</ele>
        <time>2021-01-29T15:03:17Z</time>
      </trkpt>
      <trkpt lat="42.9999" lon="1.33499">
        <ele>412</ele>
        <time>2021-01-29T15:03:20Z</time>
      </trkpt>
      <trkpt lat="42.99994" lon="1.33526">
        <ele>411</ele>
        <time>2021-01-29T15:03:23Z</time>
      </trkpt>
      <trkpt lat="42.99996" lon="1.33565">
        <ele>411</ele>
        <time>2021-01-29T15:03:28Z</time>
      </trkpt>
      <trkpt lat="42.99996" lon="1.33615">
        <ele>410</ele>
        <time>2021-01-29T15:03:35Z</time>
      </trkpt>
      <trkpt lat="43" lon="1.33731">
        <ele>410</ele>
        <time>2021-01-29T15:03:50Z</time>
      </trkpt>
      <trkpt lat="43.00049" lon="1.337">
        <ele>410</ele>
        <time>2021-01-29T15:04:00Z</time>
      </trkpt>
      <trkpt lat="43.00125" lon="1.3367">
        <ele>412</ele>
        <time>2021-01-29T15:04:14Z</time>
      </trkpt>
      <trkpt lat="43.00183" lon="1.33639">
        <ele>416</ele>
        <time>2021-01-29T15:04:25Z</time>
      </trkpt>
      <trkpt lat="43.00259" lon="1.33608">
        <ele>428</ele>
        <time>2021-01-29T15:04:39Z</time>
      </trkpt>
      <trkpt lat="43.00265" lon="1.33607">
        <ele>430</ele>
        <time>2021-01-29T15:04:40Z</time>
      </trkpt>
      <trkpt lat="43.00272" lon="1.33609">
        <ele>432</ele>
        <time>2021-01-29T15:04:41Z</time>
      </trkpt>
      <trkpt lat="43.00279" lon="1.33619">
        <ele>433</ele>
        <time>2021-01-29T15:04:43Z</time>
      </trkpt>
      <trkpt lat="43.00298" lon="1.33733">
        <ele>434</ele>
        <time>2021-01-29T15:04:58Z</time>
      </trkpt>
      <trkpt lat="43.00304" lon="1.3375">
        <ele>434</ele>
        <time>2021-01-29T15:05:01Z</time>
      </trkpt>
      <trkpt lat="43.00321" lon="1.33789">
        <ele>437</ele>
        <time>2021-01-29T15:05:07Z</time>
      </trkpt>
      <trkpt lat="43.00331" lon="1.33816">
        <ele>438</ele>
        <time>2021-01-29T15:05:11Z</time>
      </trkpt>
      <trkpt lat="43.00337" lon="1.33824">
        <ele>439</ele>
        <time>2021-01-29T15:05:12Z</time>
      </trkpt>
      <trkpt lat="43.00341" lon="1.33823">
        <ele>441</ele>
        <time>2021-01-29T15:05:13Z</time>
      </trkpt>
      <trkpt lat="43.00344" lon="1.33821">
        <ele>442</ele>
        <time>2021-01-29T15:05:13Z</time>
      </trkpt>
      <trkpt lat="43.00345" lon="1.33815">
        <ele>443</ele>
        <time>2021-01-29T15:05:14Z</time>
      </trkpt>
      <trkpt lat="43.00343" lon="1.33807">
        <ele>443</ele>
        <time>2021-01-29T15:05:15Z</time>
      </trkpt>
      <trkpt lat="43.00332" lon="1.33779">
        <ele>441</ele>
        <time>2021-01-29T15:05:19Z</time>
      </trkpt>
      <trkpt lat="43.00329" lon="1.33762">
        <ele>442</ele>
        <time>2021-01-29T15:05:22Z</time>
      </trkpt>
      <trkpt lat="43.00327" lon="1.33746">
        <ele>442</ele>
        <time>2021-01-29T15:05:24Z</time>
      </trkpt>
      <trkpt lat="43.00326" lon="1.33698">
        <ele>444</ele>
        <time>2021-01-29T15:05:30Z</time>
      </trkpt>
      <trkpt lat="43.0033" lon="1.33656">
        <ele>446</ele>
        <time>2021-01-29T15:05:36Z</time>
      </trkpt>
      <trkpt lat="43.00342" lon="1.33598">
        <ele>449</ele>
        <time>2021-01-29T15:05:43Z</time>
      </trkpt>
      <trkpt lat="43.00348" lon="1.33537">
        <ele>455</ele>
        <time>2021-01-29T15:05:51Z</time>
      </trkpt>
      <trkpt lat="43.00352" lon="1.33521">
        <ele>456</ele>
        <time>2021-01-29T15:05:54Z</time>
      </trkpt>
      <trkpt lat="43.0036" lon="1.33516">
        <ele>457</ele>
        <time>2021-01-29T15:05:55Z</time>
      </trkpt>
      <trkpt lat="43.00368" lon="1.3352">
        <ele>458</ele>
        <time>2021-01-29T15:05:57Z</time>
      </trkpt>
      <trkpt lat="43.00374" lon="1.33527">
        <ele>458</ele>
        <time>2021-01-29T15:05:58Z</time>
      </trkpt>
      <trkpt lat="43.00385" lon="1.3353">
        <ele>459</ele>
        <time>2021-01-29T15:06:00Z</time>
      </trkpt>
      <trkpt lat="43.00391" lon="1.33525">
        <ele>459</ele>
        <time>2021-01-29T15:06:01Z</time>
      </trkpt>
      <trkpt lat="43.0042" lon="1.33467">
        <ele>465</ele>
        <time>2021-01-29T15:06:10Z</time>
      </trkpt>
      <trkpt lat="43.00423" lon="1.33451">
        <ele>466</ele>
        <time>2021-01-29T15:06:13Z</time>
      </trkpt>
      <trkpt lat="43.0042" lon="1.33399">
        <ele>472</ele>
        <time>2021-01-29T15:06:19Z</time>
      </trkpt>
      <trkpt lat="43.00422" lon="1.33383">
        <ele>474</ele>
        <time>2021-01-29T15:06:21Z</time>
      </trkpt>
      <trkpt lat="43.00431" lon="1.33367">
        <ele>476</ele>
        <time>2021-01-29T15:06:24Z</time>
      </trkpt>
      <trkpt lat="43.00441" lon="1.33361">
        <ele>477</ele>
        <time>2021-01-29T15:06:26Z</time>
      </trkpt>
      <trkpt lat="43.00491" lon="1.33356">
        <ele>479</ele>
        <time>2021-01-29T15:06:35Z</time>
      </trkpt>
      <trkpt lat="43.005" lon="1.33353">
        <ele>480</ele>
        <time>2021-01-29T15:06:37Z</time>
      </trkpt>
      <trkpt lat="43.00523" lon="1.33335">
        <ele>483</ele>
        <time>2021-01-29T15:06:41Z</time>
      </trkpt>
      <trkpt lat="43.00529" lon="1.33328">
        <ele>484</ele>
        <time>2021-01-29T15:06:43Z</time>
      </trkpt>
      <trkpt lat="43.00538" lon="1.33313">
        <ele>485</ele>
        <time>2021-01-29T15:06:45Z</time>
      </trkpt>
      <trkpt lat="43.00568" lon="1.33212">
        <ele>496</ele>
        <time>2021-01-29T15:06:59Z</time>
      </trkpt>
      <trkpt lat="43.00572" lon="1.33205">
        <ele>497</ele>
        <time>2021-01-29T15:07:01Z</time>
      </trkpt>
      <trkpt lat="43.00578" lon="1.33198">
        <ele>498</ele>
        <time>2021-01-29T15:07:02Z</time>
      </trkpt>
      <trkpt lat="43.00589" lon="1.33193">
        <ele>499</ele>
        <time>2021-01-29T15:07:04Z</time>
      </trkpt>
      <trkpt lat="43.00601" lon="1.33195">
        <ele>498</ele>
        <time>2021-01-29T15:07:06Z</time>
      </trkpt>
      <trkpt lat="43.00632" lon="1.33211">
        <ele>496</ele>
        <time>2021-01-29T15:07:12Z</time>
      </trkpt>
      <trkpt lat="43.00643" lon="1.33214">
        <ele>496</ele>
        <time>2021-01-29T15:07:14Z</time>
      </trkpt>
      <trkpt lat="43.00688" lon="1.3322">
        <ele>497</ele>
        <time>2021-01-29T15:07:22Z</time>
      </trkpt>
      <trkpt lat="43.00696" lon="1.3322">
        <ele>498</ele>
        <time>2021-01-29T15:07:24Z</time>
      </trkpt>
      <trkpt lat="43.00704" lon="1.33217">
        <ele>498</ele>
        <time>2021-01-29T15:07:25Z</time>
      </trkpt>
      <trkpt lat="43.00709" lon="1.33211">
        <ele>499</ele>
        <time>2021-01-29T15:07:26Z</time>
      </trkpt>
      <trkpt lat="43.00712" lon="1.33204">
        <ele>499</ele>
        <time>2021-01-29T15:07:27Z</time>
      </trkpt>
      <trkpt lat="43.00724" lon="1.33144">
        <ele>502</ele>
        <time>2021-01-29T15:07:35Z</time>
      </trkpt>
      <trkpt lat="43.00728" lon="1.3313">
        <ele>503</ele>
        <time>2021-01-29T15:07:37Z</time>
      </trkpt>
      <trkpt lat="43.00735" lon="1.33119">
        <ele>503</ele>
        <time>2021-01-29T15:07:39Z</time>
      </trkpt>
      <trkpt lat="43.0075" lon="1.33104">
        <ele>502</ele>
        <time>2021-01-29T15:07:43Z</time>
      </trkpt>
      <trkpt lat="43.0083" lon="1.33071">
        <ele>495</ele>
        <time>2021-01-29T15:07:57Z</time>
      </trkpt>
      <trkpt lat="43.00914" lon="1.33021">
        <ele>493</ele>
        <time>2021-01-29T15:08:14Z</time>
      </trkpt>
      <trkpt lat="43.00934" lon="1.33013">
        <ele>492</ele>
        <time>2021-01-29T15:08:17Z</time>
      </trkpt>
      <trkpt lat="43.00958" lon="1.33009">
        <ele>490</ele>
        <time>2021-01-29T15:08:22Z</time>
      </trkpt>
      <trkpt lat="43.00974" lon="1.33">
        <ele>490</ele>
        <time>2021-01-29T15:08:25Z</time>
      </trkpt>
      <trkpt lat="43.00983" lon="1.32991">
        <ele>490</ele>
        <time>2021-01-29T15:08:27Z</time>
      </trkpt>
      <trkpt lat="43.01018" lon="1.32929">
        <ele>493</ele>
        <time>2021-01-29T15:08:37Z</time>
      </trkpt>
      <trkpt lat="43.01046" lon="1.32874">
        <ele>492</ele>
        <time>2021-01-29T15:08:46Z</time>
      </trkpt>
      <trkpt lat="43.01053" lon="1.32854">
        <ele>492</ele>
        <time>2021-01-29T15:08:49Z</time>
      </trkpt>
      <trkpt lat="43.01061" lon="1.32843">
        <ele>491</ele>
        <time>2021-01-29T15:08:51Z</time>
      </trkpt>
      <trkpt lat="43.01071" lon="1.32838">
        <ele>491</ele>
        <time>2021-01-29T15:08:52Z</time>
      </trkpt>
      <trkpt lat="43.01109" lon="1.32836">
        <ele>491</ele>
        <time>2021-01-29T15:08:59Z</time>
      </trkpt>
      <trkpt lat="43.01127" lon="1.32832">
        <ele>491</ele>
        <time>2021-01-29T15:09:03Z</time>
      </trkpt>
      <trkpt lat="43.01139" lon="1.32825">
        <ele>491</ele>
        <time>2021-01-29T15:09:05Z</time>
      </trkpt>
      <trkpt lat="43.01181" lon="1.32791">
        <ele>489</ele>
        <time>2021-01-29T15:09:14Z</time>
      </trkpt>
      <trkpt lat="43.012" lon="1.32785">
        <ele>489</ele>
        <time>2021-01-29T15:09:17Z</time>
      </trkpt>
      <trkpt lat="43.01215" lon="1.32785">
        <ele>489</ele>
        <time>2021-01-29T15:09:20Z</time>
      </trkpt>
      <trkpt lat="43.01224" lon="1.32791">
        <ele>490</ele>
        <time>2021-01-29T15:09:21Z</time>
      </trkpt>
      <trkpt lat="43.0126" lon="1.32837">
        <ele>495</ele>
        <time>2021-01-29T15:09:30Z</time>
      </trkpt>
      <trkpt lat="43.01268" lon="1.32844">
        <ele>495</ele>
        <time>2021-01-29T15:09:32Z</time>
      </trkpt>
      <trkpt lat="43.01274" lon="1.32844">
        <ele>495</ele>
        <time>2021-01-29T15:09:33Z</time>
      </trkpt>
      <trkpt lat="43.01284" lon="1.32838">
        <ele>497</ele>
        <time>2021-01-29T15:09:35Z</time>
      </trkpt>
      <trkpt lat="43.01342" lon="1.32816">
        <ele>499</ele>
        <time>2021-01-29T15:09:46Z</time>
      </trkpt>
      <trkpt lat="43.01364" lon="1.32805">
        <ele>499</ele>
        <time>2021-01-29T15:09:50Z</time>
      </trkpt>
      <trkpt lat="43.01434" lon="1.32755">
        <ele>501</ele>
        <time>2021-01-29T15:10:04Z</time>
      </trkpt>
      <trkpt lat="43.01553" lon="1.32662">
        <ele>498</ele>
        <time>2021-01-29T15:10:28Z</time>
      </trkpt>
      <trkpt lat="43.01573" lon="1.3265">
        <ele>498</ele>
        <time>2021-01-29T15:10:32Z</time>
      </trkpt>
      <trkpt lat="43.0159" lon="1.32636">
        <ele>497</ele>
        <time>2021-01-29T15:10:36Z</time>
      </trkpt>
      <trkpt lat="43.01602" lon="1.32623">
        <ele>496</ele>
        <time>2021-01-29T15:10:38Z</time>
      </trkpt>
      <trkpt lat="43.01625" lon="1.32583">
        <ele>489</ele>
        <time>2021-01-29T15:10:45Z</time>
      </trkpt>
      <trkpt lat="43.01642" lon="1.32563">
        <ele>488</ele>
        <time>2021-01-29T15:10:49Z</time>
      </trkpt>
      <trkpt lat="43.01655" lon="1.32557">
        <ele>487</ele>
        <time>2021-01-29T15:10:51Z</time>
      </trkpt>
      <trkpt lat="43.0168" lon="1.32559">
        <ele>487</ele>
        <time>2021-01-29T15:10:56Z</time>
      </trkpt>
      <trkpt lat="43.01706" lon="1.32569">
        <ele>486</ele>
        <time>2021-01-29T15:11:01Z</time>
      </trkpt>
      <trkpt lat="43.01745" lon="1.32599">
        <ele>487</ele>
        <time>2021-01-29T15:11:09Z</time>
      </trkpt>
      <trkpt lat="43.01753" lon="1.32603">
        <ele>488</ele>
        <time>2021-01-29T15:11:10Z</time>
      </trkpt>
      <trkpt lat="43.01771" lon="1.32606">
        <ele>488</ele>
        <time>2021-01-29T15:11:13Z</time>
      </trkpt>
      <trkpt lat="43.01781" lon="1.32605">
        <ele>487</ele>
        <time>2021-01-29T15:11:15Z</time>
      </trkpt>
      <trkpt lat="43.01791" lon="1.326">
        <ele>486</ele>
        <time>2021-01-29T15:11:17Z</time>
      </trkpt>
      <trkpt lat="43.018" lon="1.32592">
        <ele>485</ele>
        <time>2021-01-29T15:11:19Z</time>
      </trkpt>
      <trkpt lat="43.01807" lon="1.32582">
        <ele>484</ele>
        <time>2021-01-29T15:11:21Z</time>
      </trkpt>
      <trkpt lat="43.01824" lon="1.32537">
        <ele>481</ele>
        <time>2021-01-29T15:11:27Z</time>
      </trkpt>
      <trkpt lat="43.01825" lon="1.32521">
        <ele>480</ele>
        <time>2021-01-29T15:11:29Z</time>
      </trkpt>
      <trkpt lat="43.01814" lon="1.32428">
        <ele>478</ele>
        <time>2021-01-29T15:11:42Z</time>
      </trkpt>
      <trkpt lat="43.01816" lon="1.32416">
        <ele>478</ele>
        <time>2021-01-29T15:11:43Z</time>
      </trkpt>
      <trkpt lat="43.01833" lon="1.32373">
        <ele>482</ele>
        <time>2021-01-29T15:11:50Z</time>
      </trkpt>
      <trkpt lat="43.01838" lon="1.32349">
        <ele>482</ele>
        <time>2021-01-29T15:11:53Z</time>
      </trkpt>
      <trkpt lat="43.01848" lon="1.32335">
        <ele>481</ele>
        <time>2021-01-29T15:11:55Z</time>
      </trkpt>
      <trkpt lat="43.01901" lon="1.32302">
        <ele>476</ele>
        <time>2021-01-29T15:12:06Z</time>
      </trkpt>
      <trkpt lat="43.0191" lon="1.3229">
        <ele>475</ele>
        <time>2021-01-29T15:12:08Z</time>
      </trkpt>
      <trkpt lat="43.01915" lon="1.32276">
        <ele>476</ele>
        <time>2021-01-29T15:12:10Z</time>
      </trkpt>
      <trkpt lat="43.01931" lon="1.32071">
        <ele>472</ele>
        <time>2021-01-29T15:12:37Z</time>
      </trkpt>
      <trkpt lat="43.01931" lon="1.32002">
        <ele>470</ele>
        <time>2021-01-29T15:12:46Z</time>
      </trkpt>
      <trkpt lat="43.01925" lon="1.31961">
        <ele>470</ele>
        <time>2021-01-29T15:12:51Z</time>
      </trkpt>
      <trkpt lat="43.01926" lon="1.31948">
        <ele>470</ele>
        <time>2021-01-29T15:12:53Z</time>
      </trkpt>
      <trkpt lat="43.01935" lon="1.31939">
        <ele>471</ele>
        <time>2021-01-29T15:12:55Z</time>
      </trkpt>
      <trkpt lat="43.01944" lon="1.31938">
        <ele>471</ele>
        <time>2021-01-29T15:12:57Z</time>
      </trkpt>
      <trkpt lat="43.01954" lon="1.31942">
        <ele>471</ele>
        <time>2021-01-29T15:12:58Z</time>
      </trkpt>
      <trkpt lat="43.01972" lon="1.31958">
        <ele>470</ele>
        <time>2021-01-29T15:13:02Z</time>
      </trkpt>
      <trkpt lat="43.01995" lon="1.31987">
        <ele>466</ele>
        <time>2021-01-29T15:13:08Z</time>
      </trkpt>
      <trkpt lat="43.02026" lon="1.32033">
        <ele>467</ele>
        <time>2021-01-29T15:13:16Z</time>
      </trkpt>
      <trkpt lat="43.02037" lon="1.32043">
        <ele>468</ele>
        <time>2021-01-29T15:13:18Z</time>
      </trkpt>
      <trkpt lat="43.02053" lon="1.32049">
        <ele>470</ele>
        <time>2021-01-29T15:13:21Z</time>
      </trkpt>
      <trkpt lat="43.02082" lon="1.3205">
        <ele>475</ele>
        <time>2021-01-29T15:13:26Z</time>
      </trkpt>
      <trkpt lat="43.02096" lon="1.32044">
        <ele>478</ele>
        <time>2021-01-29T15:13:29Z</time>
      </trkpt>
      <trkpt lat="43.02131" lon="1.32009">
        <ele>483</ele>
        <time>2021-01-29T15:13:37Z</time>
      </trkpt>
      <trkpt lat="43.02137" lon="1.31994">
        <ele>484</ele>
        <time>2021-01-29T15:13:39Z</time>
      </trkpt>
      <trkpt lat="43.02139" lon="1.31951">
        <ele>485</ele>
        <time>2021-01-29T15:13:45Z</time>
      </trkpt>
      <trkpt lat="43.02144" lon="1.31938">
        <ele>485</ele>
        <time>2021-01-29T15:13:46Z</time>
      </trkpt>
      <trkpt lat="43.02163" lon="1.31909">
        <ele>484</ele>
        <time>2021-01-29T15:13:52Z</time>
      </trkpt>
      <trkpt lat="43.02296" lon="1.31814">
        <ele>480</ele>
        <time>2021-01-29T15:14:18Z</time>
      </trkpt>
      <trkpt lat="43.02309" lon="1.318">
        <ele>479</ele>
        <time>2021-01-29T15:14:21Z</time>
      </trkpt>
      <trkpt lat="43.02316" lon="1.31791">
        <ele>479</ele>
        <time>2021-01-29T15:14:23Z</time>
      </trkpt>
      <trkpt lat="43.02328" lon="1.31766">
        <ele>477</ele>
        <time>2021-01-29T15:14:27Z</time>
      </trkpt>
      <trkpt lat="43.02335" lon="1.31734">
        <ele>476</ele>
        <time>2021-01-29T15:14:31Z</time>
      </trkpt>
      <trkpt lat="43.02337" lon="1.31719">
        <ele>475</ele>
        <time>2021-01-29T15:14:33Z</time>
      </trkpt>
      <trkpt lat="43.02333" lon="1.31588">
        <ele>476</ele>
        <time>2021-01-29T15:14:50Z</time>
      </trkpt>
      <trkpt lat="43.02335" lon="1.31573">
        <ele>476</ele>
        <time>2021-01-29T15:14:52Z</time>
      </trkpt>
      <trkpt lat="43.0234" lon="1.3156">
        <ele>476</ele>
        <time>2021-01-29T15:14:54Z</time>
      </trkpt>
      <trkpt lat="43.02377" lon="1.3151">
        <ele>475</ele>
        <time>2021-01-29T15:15:03Z</time>
      </trkpt>
      <trkpt lat="43.02391" lon="1.31488">
        <ele>475</ele>
        <time>2021-01-29T15:15:07Z</time>
      </trkpt>
      <trkpt lat="43.02405" lon="1.31458">
        <ele>475</ele>
        <time>2021-01-29T15:15:12Z</time>
      </trkpt>
      <trkpt lat="43.02407" lon="1.31447">
        <ele>475</ele>
        <time>2021-01-29T15:15:13Z</time>
      </trkpt>
      <trkpt lat="43.02419" lon="1.31367">
        <ele>476</ele>
        <time>2021-01-29T15:15:24Z</time>
      </trkpt>
      <trkpt lat="43.02418" lon="1.31345">
        <ele>476</ele>
        <time>2021-01-29T15:15:27Z</time>
      </trkpt>
      <trkpt lat="43.02414" lon="1.31329">
        <ele>476</ele>
        <time>2021-01-29T15:15:29Z</time>
      </trkpt>
      <trkpt lat="43.02405" lon="1.31306">
        <ele>477</ele>
        <time>2021-01-29T15:15:32Z</time>
      </trkpt>
      <trkpt lat="43.02372" lon="1.31241">
        <ele>483</ele>
        <time>2021-01-29T15:15:43Z</time>
      </trkpt>
      <trkpt lat="43.02364" lon="1.31221">
        <ele>484</ele>
        <time>2021-01-29T15:15:46Z</time>
      </trkpt>
      <trkpt lat="43.0236" lon="1.31204">
        <ele>485</ele>
        <time>2021-01-29T15:15:48Z</time>
      </trkpt>
      <trkpt lat="43.02361" lon="1.31185">
        <ele>485</ele>
        <time>2021-01-29T15:15:50Z</time>
      </trkpt>
      <trkpt lat="43.02367" lon="1.31169">
        <ele>484</ele>
        <time>2021-01-29T15:15:53Z</time>
      </trkpt>
      <trkpt lat="43.02375" lon="1.31162">
        <ele>482</ele>
        <time>2021-01-29T15:15:54Z</time>
      </trkpt>
      <trkpt lat="43.02392" lon="1.31155">
        <ele>479</ele>
        <time>2021-01-29T15:15:58Z</time>
      </trkpt>
      <trkpt lat="43.024" lon="1.31148">
        <ele>478</ele>
        <time>2021-01-29T15:15:59Z</time>
      </trkpt>
      <trkpt lat="43.0241" lon="1.31136">
        <ele>477</ele>
        <time>2021-01-29T15:16:02Z</time>
      </trkpt>
      <trkpt lat="43.02416" lon="1.31121">
        <ele>477</ele>
        <time>2021-01-29T15:16:04Z</time>
      </trkpt>
      <trkpt lat="43.02418" lon="1.3111">
        <ele>477</ele>
        <time>2021-01-29T15:16:05Z</time>
      </trkpt>
      <trkpt lat="43.02416" lon="1.31075">
        <ele>480</ele>
        <time>2021-01-29T15:16:10Z</time>
      </trkpt>
      <trkpt lat="43.02418" lon="1.31064">
        <ele>480</ele>
        <time>2021-01-29T15:16:11Z</time>
      </trkpt>
      <trkpt lat="43.02421" lon="1.31054">
        <ele>481</ele>
        <time>2021-01-29T15:16:13Z</time>
      </trkpt>
      <trkpt lat="43.02428" lon="1.31049">
        <ele>482</ele>
        <time>2021-01-29T15:16:14Z</time>
      </trkpt>
      <trkpt lat="43.02436" lon="1.31048">
        <ele>483</ele>
        <time>2021-01-29T15:16:16Z</time>
      </trkpt>
      <trkpt lat="43.02442" lon="1.31052">
        <ele>483</ele>
        <time>2021-01-29T15:16:17Z</time>
      </trkpt>
      <trkpt lat="43.02466" lon="1.31083">
        <ele>482</ele>
        <time>2021-01-29T15:16:23Z</time>
      </trkpt>
      <trkpt lat="43.02511" lon="1.31127">
        <ele>479</ele>
        <time>2021-01-29T15:16:33Z</time>
      </trkpt>
      <trkpt lat="43.02526" lon="1.31141">
        <ele>478</ele>
        <time>2021-01-29T15:16:36Z</time>
      </trkpt>
      <trkpt lat="43.02535" lon="1.31144">
        <ele>478</ele>
        <time>2021-01-29T15:16:37Z</time>
      </trkpt>
      <trkpt lat="43.02542" lon="1.31143">
        <ele>479</ele>
        <time>2021-01-29T15:16:39Z</time>
      </trkpt>
      <trkpt lat="43.02548" lon="1.31139">
        <ele>480</ele>
        <time>2021-01-29T15:16:40Z</time>
      </trkpt>
      <trkpt lat="43.02553" lon="1.31132">
        <ele>481</ele>
        <time>2021-01-29T15:16:41Z</time>
      </trkpt>
      <trkpt lat="43.02568" lon="1.31073">
        <ele>488</ele>
        <time>2021-01-29T15:16:49Z</time>
      </trkpt>
      <trkpt lat="43.02571" lon="1.31058">
        <ele>490</ele>
        <time>2021-01-29T15:16:51Z</time>
      </trkpt>
      <trkpt lat="43.02568" lon="1.31033">
        <ele>492</ele>
        <time>2021-01-29T15:16:55Z</time>
      </trkpt>
      <trkpt lat="43.02569" lon="1.31022">
        <ele>493</ele>
        <time>2021-01-29T15:16:56Z</time>
      </trkpt>
      <trkpt lat="43.02573" lon="1.31015">
        <ele>494</ele>
        <time>2021-01-29T15:16:57Z</time>
      </trkpt>
      <trkpt lat="43.02579" lon="1.31013">
        <ele>495</ele>
        <time>2021-01-29T15:16:58Z</time>
      </trkpt>
      <trkpt lat="43.0259" lon="1.31017">
        <ele>494</ele>
        <time>2021-01-29T15:17:00Z</time>
      </trkpt>
      <trkpt lat="43.02597" lon="1.31016">
        <ele>495</ele>
        <time>2021-01-29T15:17:02Z</time>
      </trkpt>
      <trkpt lat="43.02603" lon="1.31012">
        <ele>495</ele>
        <time>2021-01-29T15:17:03Z</time>
      </trkpt>
      <trkpt lat="43.02631" lon="1.30969">
        <ele>499</ele>
        <time>2021-01-29T15:17:10Z</time>
      </trkpt>
      <trkpt lat="43.02636" lon="1.30963">
        <ele>500</ele>
        <time>2021-01-29T15:17:11Z</time>
      </trkpt>
      <trkpt lat="43.02644" lon="1.30959">
        <ele>501</ele>
        <time>2021-01-29T15:17:13Z</time>
      </trkpt>
      <trkpt lat="43.02652" lon="1.30959">
        <ele>501</ele>
        <time>2021-01-29T15:17:14Z</time>
      </trkpt>
      <trkpt lat="43.02669" lon="1.30967">
        <ele>501</ele>
        <time>2021-01-29T15:17:18Z</time>
      </trkpt>
      <trkpt lat="43.02679" lon="1.30967">
        <ele>500</ele>
        <time>2021-01-29T15:17:19Z</time>
      </trkpt>
      <trkpt lat="43.02693" lon="1.3096">
        <ele>499</ele>
        <time>2021-01-29T15:17:22Z</time>
      </trkpt>
      <trkpt lat="43.02743" lon="1.30898">
        <ele>501</ele>
        <time>2021-01-29T15:17:34Z</time>
      </trkpt>
      <trkpt lat="43.028" lon="1.30848">
        <ele>498</ele>
        <time>2021-01-29T15:17:46Z</time>
      </trkpt>
      <trkpt lat="43.0281" lon="1.30844">
        <ele>496</ele>
        <time>2021-01-29T15:17:48Z</time>
      </trkpt>
      <trkpt lat="43.02822" lon="1.30844">
        <ele>493</ele>
        <time>2021-01-29T15:17:50Z</time>
      </trkpt>
      <trkpt lat="43.02851" lon="1.30856">
        <ele>489</ele>
        <time>2021-01-29T15:17:55Z</time>
      </trkpt>
      <trkpt lat="43.02866" lon="1.30858">
        <ele>487</ele>
        <time>2021-01-29T15:17:58Z</time>
      </trkpt>
      <trkpt lat="43.0288" lon="1.30856">
        <ele>486</ele>
        <time>2021-01-29T15:18:01Z</time>
      </trkpt>
      <trkpt lat="43.02899" lon="1.30847">
        <ele>485</ele>
        <time>2021-01-29T15:18:04Z</time>
      </trkpt>
      <trkpt lat="43.02923" lon="1.30826">
        <ele>485</ele>
        <time>2021-01-29T15:18:09Z</time>
      </trkpt>
      <trkpt lat="43.03045" lon="1.30703">
        <ele>486</ele>
        <time>2021-01-29T15:18:36Z</time>
      </trkpt>
      <trkpt lat="43.03096" lon="1.30676">
        <ele>485</ele>
        <time>2021-01-29T15:18:46Z</time>
      </trkpt>
      <trkpt lat="43.03105" lon="1.30666">
        <ele>485</ele>
        <time>2021-01-29T15:18:48Z</time>
      </trkpt>
      <trkpt lat="43.03112" lon="1.30655">
        <ele>485</ele>
        <time>2021-01-29T15:18:50Z</time>
      </trkpt>
      <trkpt lat="43.0316" lon="1.30474">
        <ele>479</ele>
        <time>2021-01-29T15:19:15Z</time>
      </trkpt>
      <trkpt lat="43.03165" lon="1.30448">
        <ele>477</ele>
        <time>2021-01-29T15:19:18Z</time>
      </trkpt>
      <trkpt lat="43.03166" lon="1.30407">
        <ele>473</ele>
        <time>2021-01-29T15:19:24Z</time>
      </trkpt>
      <trkpt lat="43.03163" lon="1.30361">
        <ele>467</ele>
        <time>2021-01-29T15:19:30Z</time>
      </trkpt>
      <trkpt lat="43.03157" lon="1.30309">
        <ele>460</ele>
        <time>2021-01-29T15:19:37Z</time>
      </trkpt>
      <trkpt lat="43.03157" lon="1.30293">
        <ele>458</ele>
        <time>2021-01-29T15:19:39Z</time>
      </trkpt>
      <trkpt lat="43.03159" lon="1.3028">
        <ele>456</ele>
        <time>2021-01-29T15:19:40Z</time>
      </trkpt>
      <trkpt lat="43.03163" lon="1.30264">
        <ele>455</ele>
        <time>2021-01-29T15:19:43Z</time>
      </trkpt>
      <trkpt lat="43.03176" lon="1.30238">
        <ele>453</ele>
        <time>2021-01-29T15:19:47Z</time>
      </trkpt>
      <trkpt lat="43.03186" lon="1.30225">
        <ele>452</ele>
        <time>2021-01-29T15:19:49Z</time>
      </trkpt>
      <trkpt lat="43.03198" lon="1.30216">
        <ele>452</ele>
        <time>2021-01-29T15:19:52Z</time>
      </trkpt>
      <trkpt lat="43.03227" lon="1.30203">
        <ele>454</ele>
        <time>2021-01-29T15:19:57Z</time>
      </trkpt>
      <trkpt lat="43.03233" lon="1.30196">
        <ele>453</ele>
        <time>2021-01-29T15:19:58Z</time>
      </trkpt>
      <trkpt lat="43.03254" lon="1.30152">
        <ele>447</ele>
        <time>2021-01-29T15:20:05Z</time>
      </trkpt>
      <trkpt lat="43.03258" lon="1.30141">
        <ele>445</ele>
        <time>2021-01-29T15:20:07Z</time>
      </trkpt>
      <trkpt lat="43.03267" lon="1.30087">
        <ele>434</ele>
        <time>2021-01-29T15:20:14Z</time>
      </trkpt>
      <trkpt lat="43.03279" lon="1.30057">
        <ele>427</ele>
        <time>2021-01-29T15:20:19Z</time>
      </trkpt>
      <trkpt lat="43.03284" lon="1.30053">
        <ele>426</ele>
        <time>2021-01-29T15:20:20Z</time>
      </trkpt>
      <trkpt lat="43.0329" lon="1.30053">
        <ele>426</ele>
        <time>2021-01-29T15:20:21Z</time>
      </trkpt>
      <trkpt lat="43.0334" lon="1.30092">
        <ele>435</ele>
        <time>2021-01-29T15:20:31Z</time>
      </trkpt>
      <trkpt lat="43.03344" lon="1.30091">
        <ele>434</ele>
        <time>2021-01-29T15:20:32Z</time>
      </trkpt>
      <trkpt lat="43.03346" lon="1.30087">
        <ele>433</ele>
        <time>2021-01-29T15:20:32Z</time>
      </trkpt>
      <trkpt lat="43.03346" lon="1.30081">
        <ele>432</ele>
        <time>2021-01-29T15:20:33Z</time>
      </trkpt>
      <trkpt lat="43.03342" lon="1.30077">
        <ele>431</ele>
        <time>2021-01-29T15:20:34Z</time>
      </trkpt>
      <trkpt lat="43.03325" lon="1.30063">
        <ele>428</ele>
        <time>2021-01-29T15:20:37Z</time>
      </trkpt>
      <trkpt lat="43.03321" lon="1.30056">
        <ele>426</ele>
        <time>2021-01-29T15:20:39Z</time>
      </trkpt>
      <trkpt lat="43.03284" lon="1.29975">
        <ele>411</ele>
        <time>2021-01-29T15:20:51Z</time>
      </trkpt>
      <trkpt lat="43.03262" lon="1.29955">
        <ele>410</ele>
        <time>2021-01-29T15:20:56Z</time>
      </trkpt>
      <trkpt lat="43.03256" lon="1.29944">
        <ele>408</ele>
        <time>2021-01-29T15:20:57Z</time>
      </trkpt>
      <trkpt lat="43.03253" lon="1.29933">
        <ele>407</ele>
        <time>2021-01-29T15:20:59Z</time>
      </trkpt>
      <trkpt lat="43.03253" lon="1.29916">
        <ele>405</ele>
        <time>2021-01-29T15:21:01Z</time>
      </trkpt>
      <trkpt lat="43.03257" lon="1.29887">
        <ele>401</ele>
        <time>2021-01-29T15:21:05Z</time>
      </trkpt>
      <trkpt lat="43.03259" lon="1.2985">
        <ele>396</ele>
        <time>2021-01-29T15:21:10Z</time>
      </trkpt>
      <trkpt lat="43.03258" lon="1.29808">
        <ele>392</ele>
        <time>2021-01-29T15:21:15Z</time>
      </trkpt>
      <trkpt lat="43.03261" lon="1.29801">
        <ele>391</ele>
        <time>2021-01-29T15:21:16Z</time>
      </trkpt>
      <trkpt lat="43.03268" lon="1.29798">
        <ele>390</ele>
        <time>2021-01-29T15:21:18Z</time>
      </trkpt>
      <trkpt lat="43.03275" lon="1.29799">
        <ele>391</ele>
        <time>2021-01-29T15:21:19Z</time>
      </trkpt>
      <trkpt lat="43.03283" lon="1.29804">
        <ele>391</ele>
        <time>2021-01-29T15:21:21Z</time>
      </trkpt>
      <trkpt lat="43.03295" lon="1.29829">
        <ele>392</ele>
        <time>2021-01-29T15:21:24Z</time>
      </trkpt>
      <trkpt lat="43.03299" lon="1.29829">
        <ele>391</ele>
        <time>2021-01-29T15:21:25Z</time>
      </trkpt>
      <trkpt lat="43.03302" lon="1.29827">
        <ele>391</ele>
        <time>2021-01-29T15:21:26Z</time>
      </trkpt>
      <trkpt lat="43.03303" lon="1.29821">
        <ele>391</ele>
        <time>2021-01-29T15:21:26Z</time>
      </trkpt>
      <trkpt lat="43.03302" lon="1.29812">
        <ele>391</ele>
        <time>2021-01-29T15:21:28Z</time>
      </trkpt>
      <trkpt lat="43.03289" lon="1.29789">
        <ele>390</ele>
        <time>2021-01-29T15:21:31Z</time>
      </trkpt>
      <trkpt lat="43.03283" lon="1.29781">
        <ele>389</ele>
        <time>2021-01-29T15:21:33Z</time>
      </trkpt>
      <trkpt lat="43.03273" lon="1.29777">
        <ele>389</ele>
        <time>2021-01-29T15:21:35Z</time>
      </trkpt>
      <trkpt lat="43.0325" lon="1.29776">
        <ele>387</ele>
        <time>2021-01-29T15:21:39Z</time>
      </trkpt>
      <trkpt lat="43.03247" lon="1.29774">
        <ele>387</ele>
        <time>2021-01-29T15:21:39Z</time>
      </trkpt>
      <trkpt lat="43.03248" lon="1.2977">
        <ele>386</ele>
        <time>2021-01-29T15:21:40Z</time>
      </trkpt>
      <trkpt lat="43.03254" lon="1.29765">
        <ele>386</ele>
        <time>2021-01-29T15:21:41Z</time>
      </trkpt>
      <trkpt lat="43.0326" lon="1.29763">
        <ele>387</ele>
        <time>2021-01-29T15:21:42Z</time>
      </trkpt>
      <trkpt lat="43.03285" lon="1.29769">
        <ele>389</ele>
        <time>2021-01-29T15:21:47Z</time>
      </trkpt>
      <trkpt lat="43.03292" lon="1.29776">
        <ele>390</ele>
        <time>2021-01-29T15:21:48Z</time>
      </trkpt>
      <trkpt lat="43.03308" lon="1.29806">
        <ele>391</ele>
        <time>2021-01-29T15:21:53Z</time>
      </trkpt>
      <trkpt lat="43.03311" lon="1.29808">
        <ele>391</ele>
        <time>2021-01-29T15:21:54Z</time>
      </trkpt>
      <trkpt lat="43.03313" lon="1.29806">
        <ele>391</ele>
        <time>2021-01-29T15:21:54Z</time>
      </trkpt>
      <trkpt lat="43.03314" lon="1.29801">
        <ele>391</ele>
        <time>2021-01-29T15:21:55Z</time>
      </trkpt>
      <trkpt lat="43.03311" lon="1.29794">
        <ele>391</ele>
        <time>2021-01-29T15:21:56Z</time>
      </trkpt>
      <trkpt lat="43.03293" lon="1.29763">
        <ele>389</ele>
        <time>2021-01-29T15:22:01Z</time>
      </trkpt>
      <trkpt lat="43.03287" lon="1.29758">
        <ele>388</ele>
        <time>2021-01-29T15:22:02Z</time>
      </trkpt>
      <trkpt lat="43.03273" lon="1.2975">
        <ele>386</ele>
        <time>2021-01-29T15:22:05Z</time>
      </trkpt>
      <trkpt lat="43.03229" lon="1.29745">
        <ele>383</ele>
        <time>2021-01-29T15:22:13Z</time>
      </trkpt>
      <trkpt lat="43.03222" lon="1.29736">
        <ele>384</ele>
        <time>2021-01-29T15:22:15Z</time>
      </trkpt>
      <trkpt lat="43.03216" lon="1.29725">
        <ele>386</ele>
        <time>2021-01-29T15:22:16Z</time>
      </trkpt>
      <trkpt lat="43.03214" lon="1.29713">
        <ele>387</ele>
        <time>2021-01-29T15:22:18Z</time>
      </trkpt>
      <trkpt lat="43.03187" lon="1.2971">
        <ele>384</ele>
        <time>2021-01-29T15:22:23Z</time>
      </trkpt>
      <trkpt lat="43.03106" lon="1.29671">
        <ele>380</ele>
        <time>2021-01-29T15:22:38Z</time>
      </trkpt>
      <trkpt lat="43.03091" lon="1.29657">
        <ele>381</ele>
        <time>2021-01-29T15:22:41Z</time>
      </trkpt>
      <trkpt lat="43.03069" lon="1.29633">
        <ele>384</ele>
        <time>2021-01-29T15:22:46Z</time>
      </trkpt>
      <trkpt lat="43.0302" lon="1.29571">
        <ele>387</ele>
        <time>2021-01-29T15:22:58Z</time>
      </trkpt>
      <trkpt lat="43.03011" lon="1.29556">
        <ele>388</ele>
        <time>2021-01-29T15:23:01Z</time>
      </trkpt>
      <trkpt lat="43.03003" lon="1.29527">
        <ele>389</ele>
        <time>2021-01-29T15:23:05Z</time>
      </trkpt>
      <trkpt lat="43.02998" lon="1.29486">
        <ele>394</ele>
        <time>2021-01-29T15:23:10Z</time>
      </trkpt>
      <trkpt lat="43.02994" lon="1.29474">
        <ele>396</ele>
        <time>2021-01-29T15:23:12Z</time>
      </trkpt>
      <trkpt lat="43.02987" lon="1.29462">
        <ele>397</ele>
        <time>2021-01-29T15:23:14Z</time>
      </trkpt>
      <trkpt lat="43.02961" lon="1.29425">
        <ele>398</ele>
        <time>2021-01-29T15:23:21Z</time>
      </trkpt>
      <trkpt lat="43.02956" lon="1.29414">
        <ele>397</ele>
        <time>2021-01-29T15:23:22Z</time>
      </trkpt>
      <trkpt lat="43.02927" lon="1.29326">
        <ele>397</ele>
        <time>2021-01-29T15:23:35Z</time>
      </trkpt>
      <trkpt lat="43.02912" lon="1.29295">
        <ele>397</ele>
        <time>2021-01-29T15:23:40Z</time>
      </trkpt>
      <trkpt lat="43.02882" lon="1.29244">
        <ele>397</ele>
        <time>2021-01-29T15:23:48Z</time>
      </trkpt>
      <trkpt lat="43.02875" lon="1.29227">
        <ele>397</ele>
        <time>2021-01-29T15:23:51Z</time>
      </trkpt>
      <trkpt lat="43.02866" lon="1.29188">
        <ele>398</ele>
        <time>2021-01-29T15:23:56Z</time>
      </trkpt>
      <trkpt lat="43.02864" lon="1.29162">
        <ele>400</ele>
        <time>2021-01-29T15:24:00Z</time>
      </trkpt>
      <trkpt lat="43.02868" lon="1.29138">
        <ele>401</ele>
        <time>2021-01-29T15:24:03Z</time>
      </trkpt>
      <trkpt lat="43.02886" lon="1.29081">
        <ele>407</ele>
        <time>2021-01-29T15:24:11Z</time>
      </trkpt>
      <trkpt lat="43.02888" lon="1.29066">
        <ele>408</ele>
        <time>2021-01-29T15:24:13Z</time>
      </trkpt>
      <trkpt lat="43.02888" lon="1.29053">
        <ele>408</ele>
        <time>2021-01-29T15:24:14Z</time>
      </trkpt>
      <trkpt lat="43.02883" lon="1.2896">
        <ele>408</ele>
        <time>2021-01-29T15:24:27Z</time>
      </trkpt>
      <trkpt lat="43.02883" lon="1.28943">
        <ele>408</ele>
        <time>2021-01-29T15:24:29Z</time>
      </trkpt>
      <trkpt lat="43.02886" lon="1.28929">
        <ele>409</ele>
        <time>2021-01-29T15:24:31Z</time>
      </trkpt>
      <trkpt lat="43.02897" lon="1.28893">
        <ele>410</ele>
        <time>2021-01-29T15:24:36Z</time>
      </trkpt>
      <trkpt lat="43.029" lon="1.28878">
        <ele>410</ele>
        <time>2021-01-29T15:24:38Z</time>
      </trkpt>
      <trkpt lat="43.02907" lon="1.28812">
        <ele>412</ele>
        <time>2021-01-29T15:24:46Z</time>
      </trkpt>
      <trkpt lat="43.02907" lon="1.28792">
        <ele>413</ele>
        <time>2021-01-29T15:24:49Z</time>
      </trkpt>
      <trkpt lat="43.02903" lon="1.28748">
        <ele>413</ele>
        <time>2021-01-29T15:24:55Z</time>
      </trkpt>
      <trkpt lat="43.02895" lon="1.28708">
        <ele>415</ele>
        <time>2021-01-29T15:25:00Z</time>
      </trkpt>
      <trkpt lat="43.02892" lon="1.28663">
        <ele>418</ele>
        <time>2021-01-29T15:25:06Z</time>
      </trkpt>
      <trkpt lat="43.0289" lon="1.28651">
        <ele>420</ele>
        <time>2021-01-29T15:25:08Z</time>
      </trkpt>
      <trkpt lat="43.02886" lon="1.28639">
        <ele>420</ele>
        <time>2021-01-29T15:25:09Z</time>
      </trkpt>
      <trkpt lat="43.02864" lon="1.28598">
        <ele>418</ele>
        <time>2021-01-29T15:25:16Z</time>
      </trkpt>
      <trkpt lat="43.02853" lon="1.28573">
        <ele>419</ele>
        <time>2021-01-29T15:25:20Z</time>
      </trkpt>
      <trkpt lat="43.02845" lon="1.28562">
        <ele>418</ele>
        <time>2021-01-29T15:25:22Z</time>
      </trkpt>
      <trkpt lat="43.02837" lon="1.28551">
        <ele>417</ele>
        <time>2021-01-29T15:25:24Z</time>
      </trkpt>
      <trkpt lat="43.02822" lon="1.28537">
        <ele>418</ele>
        <time>2021-01-29T15:25:27Z</time>
      </trkpt>
      <trkpt lat="43.02791" lon="1.28521">
        <ele>416</ele>
        <time>2021-01-29T15:25:33Z</time>
      </trkpt>
      <trkpt lat="43.02771" lon="1.28506">
        <ele>413</ele>
        <time>2021-01-29T15:25:37Z</time>
      </trkpt>
      <trkpt lat="43.02741" lon="1.28459">
        <ele>416</ele>
        <time>2021-01-29T15:25:45Z</time>
      </trkpt>
      <trkpt lat="43.02721" lon="1.28419">
        <ele>419</ele>
        <time>2021-01-29T15:25:51Z</time>
      </trkpt>
      <trkpt lat="43.02692" lon="1.2838">
        <ele>419</ele>
        <time>2021-01-29T15:25:59Z</time>
      </trkpt>
      <trkpt lat="43.02686" lon="1.28368">
        <ele>419</ele>
        <time>2021-01-29T15:26:01Z</time>
      </trkpt>
      <trkpt lat="43.0267" lon="1.28319">
        <ele>419</ele>
        <time>2021-01-29T15:26:08Z</time>
      </trkpt>
      <trkpt lat="43.02639" lon="1.28261">
        <ele>420</ele>
        <time>2021-01-29T15:26:17Z</time>
      </trkpt>
      <trkpt lat="43.02634" lon="1.28247">
        <ele>420</ele>
        <time>2021-01-29T15:26:19Z</time>
      </trkpt>
      <trkpt lat="43.02631" lon="1.28225">
        <ele>421</ele>
        <time>2021-01-29T15:26:22Z</time>
      </trkpt>
      <trkpt lat="43.02631" lon="1.28208">
        <ele>422</ele>
        <time>2021-01-29T15:26:24Z</time>
      </trkpt>
      <trkpt lat="43.02639" lon="1.28128">
        <ele>428</ele>
        <time>2021-01-29T15:26:35Z</time>
      </trkpt>
      <trkpt lat="43.02638" lon="1.28039">
        <ele>437</ele>
        <time>2021-01-29T15:26:46Z</time>
      </trkpt>
      <trkpt lat="43.02641" lon="1.28015">
        <ele>440</ele>
        <time>2021-01-29T15:26:49Z</time>
      </trkpt>
      <trkpt lat="43.0264" lon="1.27997">
        <ele>442</ele>
        <time>2021-01-29T15:26:52Z</time>
      </trkpt>
      <trkpt lat="43.02638" lon="1.27989">
        <ele>443</ele>
        <time>2021-01-29T15:26:53Z</time>
      </trkpt>
      <trkpt lat="43.02634" lon="1.27983">
        <ele>444</ele>
        <time>2021-01-29T15:26:54Z</time>
      </trkpt>
      <trkpt lat="43.02623" lon="1.27975">
        <ele>446</ele>
        <time>2021-01-29T15:26:56Z</time>
      </trkpt>
      <trkpt lat="43.0261" lon="1.27974">
        <ele>447</ele>
        <time>2021-01-29T15:26:58Z</time>
      </trkpt>
      <trkpt lat="43.02598" lon="1.27983">
        <ele>446</ele>
        <time>2021-01-29T15:27:01Z</time>
      </trkpt>
      <trkpt lat="43.02592" lon="1.27994">
        <ele>445</ele>
        <time>2021-01-29T15:27:03Z</time>
      </trkpt>
      <trkpt lat="43.02586" lon="1.28011">
        <ele>442</ele>
        <time>2021-01-29T15:27:05Z</time>
      </trkpt>
      <trkpt lat="43.02578" lon="1.28064">
        <ele>433</ele>
        <time>2021-01-29T15:27:12Z</time>
      </trkpt>
      <trkpt lat="43.02568" lon="1.28091">
        <ele>428</ele>
        <time>2021-01-29T15:27:16Z</time>
      </trkpt>
      <trkpt lat="43.02559" lon="1.28101">
        <ele>427</ele>
        <time>2021-01-29T15:27:18Z</time>
      </trkpt>
      <trkpt lat="43.02552" lon="1.28106">
        <ele>426</ele>
        <time>2021-01-29T15:27:19Z</time>
      </trkpt>
      <trkpt lat="43.02538" lon="1.2811">
        <ele>425</ele>
        <time>2021-01-29T15:27:22Z</time>
      </trkpt>
      <trkpt lat="43.02531" lon="1.2811">
        <ele>425</ele>
        <time>2021-01-29T15:27:23Z</time>
      </trkpt>
      <trkpt lat="43.02515" lon="1.28101">
        <ele>426</ele>
        <time>2021-01-29T15:27:26Z</time>
      </trkpt>
      <trkpt lat="43.02499" lon="1.28086">
        <ele>429</ele>
        <time>2021-01-29T15:27:30Z</time>
      </trkpt>
      <trkpt lat="43.02492" lon="1.28074">
        <ele>430</ele>
        <time>2021-01-29T15:27:32Z</time>
      </trkpt>
      <trkpt lat="43.02488" lon="1.28064">
        <ele>432</ele>
        <time>2021-01-29T15:27:33Z</time>
      </trkpt>
      <trkpt lat="43.02474" lon="1.28014">
        <ele>440</ele>
        <time>2021-01-29T15:27:40Z</time>
      </trkpt>
      <trkpt lat="43.02469" lon="1.28007">
        <ele>441</ele>
        <time>2021-01-29T15:27:42Z</time>
      </trkpt>
      <trkpt lat="43.02461" lon="1.28">
        <ele>442</ele>
        <time>2021-01-29T15:27:43Z</time>
      </trkpt>
      <trkpt lat="43.02457" lon="1.27999">
        <ele>442</ele>
        <time>2021-01-29T15:27:44Z</time>
      </trkpt>
      <trkpt lat="43.02444" lon="1.27999">
        <ele>441</ele>
        <time>2021-01-29T15:27:46Z</time>
      </trkpt>
      <trkpt lat="43.02436" lon="1.28003">
        <ele>440</ele>
        <time>2021-01-29T15:27:48Z</time>
      </trkpt>
      <trkpt lat="43.02414" lon="1.28024">
        <ele>436</ele>
        <time>2021-01-29T15:27:53Z</time>
      </trkpt>
      <trkpt lat="43.02398" lon="1.28036">
        <ele>435</ele>
        <time>2021-01-29T15:27:56Z</time>
      </trkpt>
      <trkpt lat="43.02381" lon="1.2804">
        <ele>435</ele>
        <time>2021-01-29T15:27:59Z</time>
      </trkpt>
      <trkpt lat="43.02354" lon="1.28033">
        <ele>439</ele>
        <time>2021-01-29T15:28:04Z</time>
      </trkpt>
      <trkpt lat="43.02343" lon="1.28027">
        <ele>442</ele>
        <time>2021-01-29T15:28:06Z</time>
      </trkpt>
      <trkpt lat="43.02311" lon="1.27999">
        <ele>444</ele>
        <time>2021-01-29T15:28:13Z</time>
      </trkpt>
      <trkpt lat="43.02263" lon="1.27972">
        <ele>438</ele>
        <time>2021-01-29T15:28:22Z</time>
      </trkpt>
      <trkpt lat="43.02249" lon="1.27956">
        <ele>437</ele>
        <time>2021-01-29T15:28:25Z</time>
      </trkpt>
      <trkpt lat="43.02242" lon="1.27943">
        <ele>439</ele>
        <time>2021-01-29T15:28:27Z</time>
      </trkpt>
      <trkpt lat="43.02221" lon="1.27884">
        <ele>446</ele>
        <time>2021-01-29T15:28:36Z</time>
      </trkpt>
      <trkpt lat="43.02213" lon="1.27868">
        <ele>448</ele>
        <time>2021-01-29T15:28:38Z</time>
      </trkpt>
      <trkpt lat="43.02193" lon="1.2784">
        <ele>451</ele>
        <time>2021-01-29T15:28:43Z</time>
      </trkpt>
      <trkpt lat="43.0218" lon="1.27831">
        <ele>451</ele>
        <time>2021-01-29T15:28:46Z</time>
      </trkpt>
      <trkpt lat="43.02174" lon="1.2783">
        <ele>451</ele>
        <time>2021-01-29T15:28:47Z</time>
      </trkpt>
      <trkpt lat="43.02147" lon="1.27832">
        <ele>445</ele>
        <time>2021-01-29T15:28:52Z</time>
      </trkpt>
      <trkpt lat="43.02137" lon="1.27831">
        <ele>443</ele>
        <time>2021-01-29T15:28:54Z</time>
      </trkpt>
      <trkpt lat="43.02127" lon="1.27823">
        <ele>441</ele>
        <time>2021-01-29T15:28:56Z</time>
      </trkpt>
      <trkpt lat="43.02123" lon="1.27817">
        <ele>441</ele>
        <time>2021-01-29T15:28:57Z</time>
      </trkpt>
      <trkpt lat="43.02114" lon="1.27793">
        <ele>443</ele>
        <time>2021-01-29T15:29:00Z</time>
      </trkpt>
      <trkpt lat="43.02103" lon="1.27749">
        <ele>446</ele>
        <time>2021-01-29T15:29:06Z</time>
      </trkpt>
      <trkpt lat="43.021" lon="1.27724">
        <ele>446</ele>
        <time>2021-01-29T15:29:10Z</time>
      </trkpt>
      <trkpt lat="43.02093" lon="1.27627">
        <ele>448</ele>
        <time>2021-01-29T15:29:22Z</time>
      </trkpt>
      <trkpt lat="43.02089" lon="1.27597">
        <ele>449</ele>
        <time>2021-01-29T15:29:26Z</time>
      </trkpt>
      <trkpt lat="43.0205" lon="1.27395">
        <ele>459</ele>
        <time>2021-01-29T15:29:53Z</time>
      </trkpt>
      <trkpt lat="43.02047" lon="1.27359">
        <ele>460</ele>
        <time>2021-01-29T15:29:58Z</time>
      </trkpt>
      <trkpt lat="43.0204" lon="1.27236">
        <ele>464</ele>
        <time>2021-01-29T15:30:14Z</time>
      </trkpt>
      <trkpt lat="43.02038" lon="1.27217">
        <ele>465</ele>
        <time>2021-01-29T15:30:17Z</time>
      </trkpt>
      <trkpt lat="43.02034" lon="1.27202">
        <ele>466</ele>
        <time>2021-01-29T15:30:19Z</time>
      </trkpt>
      <trkpt lat="43.02028" lon="1.27191">
        <ele>466</ele>
        <time>2021-01-29T15:30:21Z</time>
      </trkpt>
      <trkpt lat="43.02015" lon="1.27175">
        <ele>465</ele>
        <time>2021-01-29T15:30:24Z</time>
      </trkpt>
      <trkpt lat="43.01934" lon="1.2711">
        <ele>467</ele>
        <time>2021-01-29T15:30:40Z</time>
      </trkpt>
      <trkpt lat="43.01927" lon="1.271">
        <ele>467</ele>
        <time>2021-01-29T15:30:42Z</time>
      </trkpt>
      <trkpt lat="43.01916" lon="1.27077">
        <ele>467</ele>
        <time>2021-01-29T15:30:46Z</time>
      </trkpt>
      <trkpt lat="43.01893" lon="1.27002">
        <ele>472</ele>
        <time>2021-01-29T15:30:56Z</time>
      </trkpt>
      <trkpt lat="43.01885" lon="1.26985">
        <ele>473</ele>
        <time>2021-01-29T15:30:59Z</time>
      </trkpt>
      <trkpt lat="43.01864" lon="1.26951">
        <ele>473</ele>
        <time>2021-01-29T15:31:05Z</time>
      </trkpt>
      <trkpt lat="43.01851" lon="1.26926">
        <ele>472</ele>
        <time>2021-01-29T15:31:09Z</time>
      </trkpt>
      <trkpt lat="43.01768" lon="1.26725">
        <ele>474</ele>
        <time>2021-01-29T15:31:39Z</time>
      </trkpt>
      <trkpt lat="43.01754" lon="1.26683">
        <ele>473</ele>
        <time>2021-01-29T15:31:45Z</time>
      </trkpt>
      <trkpt lat="43.01665" lon="1.26371">
        <ele>478</ele>
        <time>2021-01-29T15:32:28Z</time>
      </trkpt>
      <trkpt lat="43.01319" lon="1.25456">
        <ele>481</ele>
        <time>2021-01-29T15:34:42Z</time>
      </trkpt>
      <trkpt lat="43.01322" lon="1.25418">
        <ele>480</ele>
        <time>2021-01-29T15:34:47Z</time>
      </trkpt>
      <trkpt lat="43.0133" lon="1.25268">
        <ele>481</ele>
        <time>2021-01-29T15:35:07Z</time>
      </trkpt>
      <trkpt lat="43.01337" lon="1.25201">
        <ele>483</ele>
        <time>2021-01-29T15:35:16Z</time>
      </trkpt>
      <trkpt lat="43.01351" lon="1.24935">
        <ele>480</ele>
        <time>2021-01-29T15:35:50Z</time>
      </trkpt>
      <trkpt lat="43.01363" lon="1.2477">
        <ele>474</ele>
        <time>2021-01-29T15:36:12Z</time>
      </trkpt>
      <trkpt lat="43.01393" lon="1.24314">
        <ele>460</ele>
        <time>2021-01-29T15:37:12Z</time>
      </trkpt>
      <trkpt lat="43.01403" lon="1.24132">
        <ele>465</ele>
        <time>2021-01-29T15:37:35Z</time>
      </trkpt>
      <trkpt lat="43.01406" lon="1.24112">
        <ele>466</ele>
        <time>2021-01-29T15:37:38Z</time>
      </trkpt>
      <trkpt lat="43.01411" lon="1.24095">
        <ele>467</ele>
        <time>2021-01-29T15:37:40Z</time>
      </trkpt>
      <trkpt lat="43.0144" lon="1.24009">
        <ele>472</ele>
        <time>2021-01-29T15:37:53Z</time>
      </trkpt>
      <trkpt lat="43.01443" lon="1.23993">
        <ele>472</ele>
        <time>2021-01-29T15:37:55Z</time>
      </trkpt>
      <trkpt lat="43.01481" lon="1.23611">
        <ele>462</ele>
        <time>2021-01-29T15:38:45Z</time>
      </trkpt>
      <trkpt lat="43.01485" lon="1.23584">
        <ele>462</ele>
        <time>2021-01-29T15:38:48Z</time>
      </trkpt>
      <trkpt lat="43.01491" lon="1.23562">
        <ele>462</ele>
        <time>2021-01-29T15:38:52Z</time>
      </trkpt>
      <trkpt lat="43.01505" lon="1.23524">
        <ele>461</ele>
        <time>2021-01-29T15:38:57Z</time>
      </trkpt>
      <trkpt lat="43.01731" lon="1.22929">
        <ele>459</ele>
        <time>2021-01-29T15:40:24Z</time>
      </trkpt>
      <trkpt lat="43.01829" lon="1.22693">
        <ele>460</ele>
        <time>2021-01-29T15:41:00Z</time>
      </trkpt>
      <trkpt lat="43.01995" lon="1.223">
        <ele>463</ele>
        <time>2021-01-29T15:41:59Z</time>
      </trkpt>
      <trkpt lat="43.0201" lon="1.22257">
        <ele>464</ele>
        <time>2021-01-29T15:42:05Z</time>
      </trkpt>
      <trkpt lat="43.02036" lon="1.22174">
        <ele>464</ele>
        <time>2021-01-29T15:42:17Z</time>
      </trkpt>
      <trkpt lat="43.02043" lon="1.22139">
        <ele>465</ele>
        <time>2021-01-29T15:42:21Z</time>
      </trkpt>
      <trkpt lat="43.02047" lon="1.22105">
        <ele>467</ele>
        <time>2021-01-29T15:42:26Z</time>
      </trkpt>
      <trkpt lat="43.02065" lon="1.21811">
        <ele>474</ele>
        <time>2021-01-29T15:43:04Z</time>
      </trkpt>
      <trkpt lat="43.02069" lon="1.21776">
        <ele>474</ele>
        <time>2021-01-29T15:43:09Z</time>
      </trkpt>
      <trkpt lat="43.02076" lon="1.21746">
        <ele>475</ele>
        <time>2021-01-29T15:43:13Z</time>
      </trkpt>
      <trkpt lat="43.02086" lon="1.21719">
        <ele>476</ele>
        <time>2021-01-29T15:43:17Z</time>
      </trkpt>
      <trkpt lat="43.02168" lon="1.2155">
        <ele>478</ele>
        <time>2021-01-29T15:43:43Z</time>
      </trkpt>
      <trkpt lat="43.02172" lon="1.21534">
        <ele>478</ele>
        <time>2021-01-29T15:43:45Z</time>
      </trkpt>
      <trkpt lat="43.02172" lon="1.21524">
        <ele>478</ele>
        <time>2021-01-29T15:43:47Z</time>
      </trkpt>
      <trkpt lat="43.02164" lon="1.21492">
        <ele>479</ele>
        <time>2021-01-29T15:43:51Z</time>
      </trkpt>
      <trkpt lat="43.01804" lon="1.20324">
        <ele>496</ele>
        <time>2021-01-29T15:46:36Z</time>
      </trkpt>
      <trkpt lat="43.01797" lon="1.20297">
        <ele>499</ele>
        <time>2021-01-29T15:46:40Z</time>
      </trkpt>
      <trkpt lat="43.01793" lon="1.2027">
        <ele>502</ele>
        <time>2021-01-29T15:46:43Z</time>
      </trkpt>
      <trkpt lat="43.01787" lon="1.20112">
        <ele>507</ele>
        <time>2021-01-29T15:47:04Z</time>
      </trkpt>
      <trkpt lat="43.01787" lon="1.20025">
        <ele>510</ele>
        <time>2021-01-29T15:47:15Z</time>
      </trkpt>
      <trkpt lat="43.01784" lon="1.20003">
        <ele>511</ele>
        <time>2021-01-29T15:47:18Z</time>
      </trkpt>
      <trkpt lat="43.01781" lon="1.19993">
        <ele>511</ele>
        <time>2021-01-29T15:47:20Z</time>
      </trkpt>
      <trkpt lat="43.01776" lon="1.19985">
        <ele>511</ele>
        <time>2021-01-29T15:47:21Z</time>
      </trkpt>
      <trkpt lat="43.01763" lon="1.19968">
        <ele>512</ele>
        <time>2021-01-29T15:47:24Z</time>
      </trkpt>
      <trkpt lat="43.0172" lon="1.20065">
        <ele>506</ele>
        <time>2021-01-29T15:47:39Z</time>
      </trkpt>
      <trkpt lat="43.0171" lon="1.20083">
        <ele>505</ele>
        <time>2021-01-29T15:47:42Z</time>
      </trkpt>
      <trkpt lat="43.01678" lon="1.20123">
        <ele>504</ele>
        <time>2021-01-29T15:47:50Z</time>
      </trkpt>
      <trkpt lat="43.01672" lon="1.20129">
        <ele>503</ele>
        <time>2021-01-29T15:47:51Z</time>
      </trkpt>
      <trkpt lat="43.01667" lon="1.20131">
        <ele>503</ele>
        <time>2021-01-29T15:47:52Z</time>
      </trkpt>
      <trkpt lat="43.01662" lon="1.20129">
        <ele>502</ele>
        <time>2021-01-29T15:47:53Z</time>
      </trkpt>
      <trkpt lat="43.01658" lon="1.20124">
        <ele>500</ele>
        <time>2021-01-29T15:47:54Z</time>
      </trkpt>
      <trkpt lat="43.01655" lon="1.20113">
        <ele>498</ele>
        <time>2021-01-29T15:47:55Z</time>
      </trkpt>
      <trkpt lat="43.01656" lon="1.20105">
        <ele>498</ele>
        <time>2021-01-29T15:47:56Z</time>
      </trkpt>
      <trkpt lat="43.01664" lon="1.20076">
        <ele>499</ele>
        <time>2021-01-29T15:48:00Z</time>
      </trkpt>
      <trkpt lat="43.01666" lon="1.20061">
        <ele>499</ele>
        <time>2021-01-29T15:48:02Z</time>
      </trkpt>
      <trkpt lat="43.01666" lon="1.20048">
        <ele>500</ele>
        <time>2021-01-29T15:48:04Z</time>
      </trkpt>
      <trkpt lat="43.01664" lon="1.20033">
        <ele>500</ele>
        <time>2021-01-29T15:48:06Z</time>
      </trkpt>
      <trkpt lat="43.01659" lon="1.2002">
        <ele>499</ele>
        <time>2021-01-29T15:48:08Z</time>
      </trkpt>
      <trkpt lat="43.01648" lon="1.20001">
        <ele>498</ele>
        <time>2021-01-29T15:48:11Z</time>
      </trkpt>
      <trkpt lat="43.01636" lon="1.19985">
        <ele>497</ele>
        <time>2021-01-29T15:48:14Z</time>
      </trkpt>
      <trkpt lat="43.01612" lon="1.19958">
        <ele>497</ele>
        <time>2021-01-29T15:48:20Z</time>
      </trkpt>
      <trkpt lat="43.01595" lon="1.1995">
        <ele>496</ele>
        <time>2021-01-29T15:48:23Z</time>
      </trkpt>
      <trkpt lat="43.01577" lon="1.19951">
        <ele>494</ele>
        <time>2021-01-29T15:48:26Z</time>
      </trkpt>
      <trkpt lat="43.01546" lon="1.19963">
        <ele>489</ele>
        <time>2021-01-29T15:48:32Z</time>
      </trkpt>
      <trkpt lat="43.01538" lon="1.19965">
        <ele>488</ele>
        <time>2021-01-29T15:48:33Z</time>
      </trkpt>
      <trkpt lat="43.01523" lon="1.19962">
        <ele>487</ele>
        <time>2021-01-29T15:48:36Z</time>
      </trkpt>
      <trkpt lat="43.01516" lon="1.19958">
        <ele>487</ele>
        <time>2021-01-29T15:48:37Z</time>
      </trkpt>
      <trkpt lat="43.01507" lon="1.19948">
        <ele>488</ele>
        <time>2021-01-29T15:48:39Z</time>
      </trkpt>
      <trkpt lat="43.01481" lon="1.19914">
        <ele>487</ele>
        <time>2021-01-29T15:48:46Z</time>
      </trkpt>
      <trkpt lat="43.01472" lon="1.19896">
        <ele>487</ele>
        <time>2021-01-29T15:48:48Z</time>
      </trkpt>
      <trkpt lat="43.01455" lon="1.1985">
        <ele>488</ele>
        <time>2021-01-29T15:48:55Z</time>
      </trkpt>
      <trkpt lat="43.01448" lon="1.19815">
        <ele>487</ele>
        <time>2021-01-29T15:49:00Z</time>
      </trkpt>
      <trkpt lat="43.01447" lon="1.19782">
        <ele>487</ele>
        <time>2021-01-29T15:49:04Z</time>
      </trkpt>
      <trkpt lat="43.01448" lon="1.19763">
        <ele>488</ele>
        <time>2021-01-29T15:49:07Z</time>
      </trkpt>
      <trkpt lat="43.01453" lon="1.19735">
        <ele>488</ele>
        <time>2021-01-29T15:49:10Z</time>
      </trkpt>
      <trkpt lat="43.01462" lon="1.19712">
        <ele>487</ele>
        <time>2021-01-29T15:49:14Z</time>
      </trkpt>
      <trkpt lat="43.01472" lon="1.19692">
        <ele>486</ele>
        <time>2021-01-29T15:49:17Z</time>
      </trkpt>
      <trkpt lat="43.01483" lon="1.19676">
        <ele>486</ele>
        <time>2021-01-29T15:49:20Z</time>
      </trkpt>
      <trkpt lat="43.01517" lon="1.19639">
        <ele>487</ele>
        <time>2021-01-29T15:49:28Z</time>
      </trkpt>
      <trkpt lat="43.01537" lon="1.1962">
        <ele>487</ele>
        <time>2021-01-29T15:49:32Z</time>
      </trkpt>
      <trkpt lat="43.0157" lon="1.19596">
        <ele>489</ele>
        <time>2021-01-29T15:49:39Z</time>
      </trkpt>
      <trkpt lat="43.01583" lon="1.19585">
        <ele>489</ele>
        <time>2021-01-29T15:49:41Z</time>
      </trkpt>
      <trkpt lat="43.01586" lon="1.19577">
        <ele>490</ele>
        <time>2021-01-29T15:49:42Z</time>
      </trkpt>
      <trkpt lat="43.01588" lon="1.19561">
        <ele>492</ele>
        <time>2021-01-29T15:49:45Z</time>
      </trkpt>
      <trkpt lat="43.01584" lon="1.19542">
        <ele>492</ele>
        <time>2021-01-29T15:49:47Z</time>
      </trkpt>
      <trkpt lat="43.01579" lon="1.19532">
        <ele>492</ele>
        <time>2021-01-29T15:49:49Z</time>
      </trkpt>
      <trkpt lat="43.01572" lon="1.19525">
        <ele>492</ele>
        <time>2021-01-29T15:49:50Z</time>
      </trkpt>
      <trkpt lat="43.01554" lon="1.19514">
        <ele>491</ele>
        <time>2021-01-29T15:49:54Z</time>
      </trkpt>
      <trkpt lat="43.01544" lon="1.19511">
        <ele>490</ele>
        <time>2021-01-29T15:49:56Z</time>
      </trkpt>
      <trkpt lat="43.01522" lon="1.19511">
        <ele>489</ele>
        <time>2021-01-29T15:49:59Z</time>
      </trkpt>
      <trkpt lat="43.01499" lon="1.19515">
        <ele>486</ele>
        <time>2021-01-29T15:50:04Z</time>
      </trkpt>
      <trkpt lat="43.01453" lon="1.19515">
        <ele>480</ele>
        <time>2021-01-29T15:50:12Z</time>
      </trkpt>
      <trkpt lat="43.01435" lon="1.1951">
        <ele>479</ele>
        <time>2021-01-29T15:50:15Z</time>
      </trkpt>
      <trkpt lat="43.01398" lon="1.1949">
        <ele>475</ele>
        <time>2021-01-29T15:50:22Z</time>
      </trkpt>
      <trkpt lat="43.01379" lon="1.19474">
        <ele>474</ele>
        <time>2021-01-29T15:50:26Z</time>
      </trkpt>
      <trkpt lat="43.01266" lon="1.19352">
        <ele>471</ele>
        <time>2021-01-29T15:50:52Z</time>
      </trkpt>
      <trkpt lat="43.01257" lon="1.19339">
        <ele>472</ele>
        <time>2021-01-29T15:50:54Z</time>
      </trkpt>
      <trkpt lat="43.01251" lon="1.19329">
        <ele>472</ele>
        <time>2021-01-29T15:50:56Z</time>
      </trkpt>
      <trkpt lat="43.01244" lon="1.19302">
        <ele>474</ele>
        <time>2021-01-29T15:50:59Z</time>
      </trkpt>
      <trkpt lat="43.01245" lon="1.19272">
        <ele>474</ele>
        <time>2021-01-29T15:51:03Z</time>
      </trkpt>
      <trkpt lat="43.0125" lon="1.19212">
        <ele>471</ele>
        <time>2021-01-29T15:51:11Z</time>
      </trkpt>
      <trkpt lat="43.01249" lon="1.19191">
        <ele>470</ele>
        <time>2021-01-29T15:51:14Z</time>
      </trkpt>
      <trkpt lat="43.01241" lon="1.19143">
        <ele>469</ele>
        <time>2021-01-29T15:51:20Z</time>
      </trkpt>
      <trkpt lat="43.0123" lon="1.19105">
        <ele>468</ele>
        <time>2021-01-29T15:51:26Z</time>
      </trkpt>
      <trkpt lat="43.0122" lon="1.19076">
        <ele>467</ele>
        <time>2021-01-29T15:51:30Z</time>
      </trkpt>
      <trkpt lat="43.01206" lon="1.19046">
        <ele>466</ele>
        <time>2021-01-29T15:51:34Z</time>
      </trkpt>
      <trkpt lat="43.01179" lon="1.19006">
        <ele>464</ele>
        <time>2021-01-29T15:51:42Z</time>
      </trkpt>
      <trkpt lat="43.0112" lon="1.18937">
        <ele>462</ele>
        <time>2021-01-29T15:51:55Z</time>
      </trkpt>
      <trkpt lat="43.01109" lon="1.18919">
        <ele>460</ele>
        <time>2021-01-29T15:51:58Z</time>
      </trkpt>
      <trkpt lat="43.01053" lon="1.18792">
        <ele>451</ele>
        <time>2021-01-29T15:52:18Z</time>
      </trkpt>
      <trkpt lat="43.01044" lon="1.18762">
        <ele>450</ele>
        <time>2021-01-29T15:52:22Z</time>
      </trkpt>
      <trkpt lat="43.01041" lon="1.18721">
        <ele>449</ele>
        <time>2021-01-29T15:52:27Z</time>
      </trkpt>
      <trkpt lat="43.01038" lon="1.18442">
        <ele>448</ele>
        <time>2021-01-29T15:53:04Z</time>
      </trkpt>
      <trkpt lat="43.01036" lon="1.18432">
        <ele>448</ele>
        <time>2021-01-29T15:53:05Z</time>
      </trkpt>
      <trkpt lat="43.01031" lon="1.1842">
        <ele>448</ele>
        <time>2021-01-29T15:53:07Z</time>
      </trkpt>
      <trkpt lat="43.01005" lon="1.18382">
        <ele>446</ele>
        <time>2021-01-29T15:53:13Z</time>
      </trkpt>
      <trkpt lat="43.00972" lon="1.18345">
        <ele>446</ele>
        <time>2021-01-29T15:53:21Z</time>
      </trkpt>
      <trkpt lat="43.00926" lon="1.18321">
        <ele>448</ele>
        <time>2021-01-29T15:53:30Z</time>
      </trkpt>
      <trkpt lat="43.00918" lon="1.18314">
        <ele>449</ele>
        <time>2021-01-29T15:53:32Z</time>
      </trkpt>
      <trkpt lat="43.00927" lon="1.18312">
        <ele>449</ele>
        <time>2021-01-29T15:53:33Z</time>
      </trkpt>
      <trkpt lat="43.00941" lon="1.18307">
        <ele>450</ele>
        <time>2021-01-29T15:53:36Z</time>
      </trkpt>
      <trkpt lat="43.00946" lon="1.18305">
        <ele>450</ele>
        <time>2021-01-29T15:53:37Z</time>
      </trkpt>
      <trkpt lat="43.0104" lon="1.18263">
        <ele>457</ele>
        <time>2021-01-29T15:53:54Z</time>
      </trkpt>
      <trkpt lat="43.01112" lon="1.18229">
        <ele>462</ele>
        <time>2021-01-29T15:54:08Z</time>
      </trkpt>
      <trkpt lat="43.01132" lon="1.18214">
        <ele>464</ele>
        <time>2021-01-29T15:54:12Z</time>
      </trkpt>
      <trkpt lat="43.01139" lon="1.18205">
        <ele>464</ele>
        <time>2021-01-29T15:54:14Z</time>
      </trkpt>
      <trkpt lat="43.01145" lon="1.18194">
        <ele>465</ele>
        <time>2021-01-29T15:54:15Z</time>
      </trkpt>
      <trkpt lat="43.01151" lon="1.1818">
        <ele>465</ele>
        <time>2021-01-29T15:54:17Z</time>
      </trkpt>
      <trkpt lat="43.01155" lon="1.18164">
        <ele>465</ele>
        <time>2021-01-29T15:54:20Z</time>
      </trkpt>
      <trkpt lat="43.01159" lon="1.18142">
        <ele>466</ele>
        <time>2021-01-29T15:54:23Z</time>
      </trkpt>
      <trkpt lat="43.01162" lon="1.18096">
        <ele>466</ele>
        <time>2021-01-29T15:54:29Z</time>
      </trkpt>
      <trkpt lat="43.01164" lon="1.18084">
        <ele>466</ele>
        <time>2021-01-29T15:54:30Z</time>
      </trkpt>
      <trkpt lat="43.01167" lon="1.18073">
        <ele>466</ele>
        <time>2021-01-29T15:54:32Z</time>
      </trkpt>
      <trkpt lat="43.01168" lon="1.18068">
        <ele>466</ele>
        <time>2021-01-29T15:54:32Z</time>
      </trkpt>
      <trkpt lat="43.01173" lon="1.18053">
        <ele>465</ele>
        <time>2021-01-29T15:54:35Z</time>
      </trkpt>
      <trkpt lat="43.01186" lon="1.18022">
        <ele>464</ele>
        <time>2021-01-29T15:54:39Z</time>
      </trkpt>
      <trkpt lat="43.01237" lon="1.17908">
        <ele>460</ele>
        <time>2021-01-29T15:54:57Z</time>
      </trkpt>
      <trkpt lat="43.01287" lon="1.17789">
        <ele>465</ele>
        <time>2021-01-29T15:55:14Z</time>
      </trkpt>
      <trkpt lat="43.01297" lon="1.17757">
        <ele>468</ele>
        <time>2021-01-29T15:55:19Z</time>
      </trkpt>
      <trkpt lat="43.01298" lon="1.17744">
        <ele>468</ele>
        <time>2021-01-29T15:55:21Z</time>
      </trkpt>
      <trkpt lat="43.01289" lon="1.17683">
        <ele>470</ele>
        <time>2021-01-29T15:55:29Z</time>
      </trkpt>
      <trkpt lat="43.01289" lon="1.17667">
        <ele>470</ele>
        <time>2021-01-29T15:55:31Z</time>
      </trkpt>
      <trkpt lat="43.01293" lon="1.17636">
        <ele>472</ele>
        <time>2021-01-29T15:55:35Z</time>
      </trkpt>
      <trkpt lat="43.01303" lon="1.17604">
        <ele>473</ele>
        <time>2021-01-29T15:55:40Z</time>
      </trkpt>
      <trkpt lat="43.0131" lon="1.17585">
        <ele>474</ele>
        <time>2021-01-29T15:55:42Z</time>
      </trkpt>
      <trkpt lat="43.01314" lon="1.17575">
        <ele>474</ele>
        <time>2021-01-29T15:55:44Z</time>
      </trkpt>
      <trkpt lat="43.01325" lon="1.17554">
        <ele>474</ele>
        <time>2021-01-29T15:55:47Z</time>
      </trkpt>
      <trkpt lat="43.01336" lon="1.17537">
        <ele>473</ele>
        <time>2021-01-29T15:55:50Z</time>
      </trkpt>
      <trkpt lat="43.01355" lon="1.17515">
        <ele>473</ele>
        <time>2021-01-29T15:55:54Z</time>
      </trkpt>
      <trkpt lat="43.01379" lon="1.17492">
        <ele>474</ele>
        <time>2021-01-29T15:56:00Z</time>
      </trkpt>
      <trkpt lat="43.01431" lon="1.17456">
        <ele>475</ele>
        <time>2021-01-29T15:56:10Z</time>
      </trkpt>
      <trkpt lat="43.01448" lon="1.17442">
        <ele>476</ele>
        <time>2021-01-29T15:56:14Z</time>
      </trkpt>
      <trkpt lat="43.01456" lon="1.17437">
        <ele>477</ele>
        <time>2021-01-29T15:56:15Z</time>
      </trkpt>
      <trkpt lat="43.01477" lon="1.17419">
        <ele>477</ele>
        <time>2021-01-29T15:56:20Z</time>
      </trkpt>
      <trkpt lat="43.01512" lon="1.17384">
        <ele>479</ele>
        <time>2021-01-29T15:56:27Z</time>
      </trkpt>
      <trkpt lat="43.01528" lon="1.17363">
        <ele>479</ele>
        <time>2021-01-29T15:56:31Z</time>
      </trkpt>
      <trkpt lat="43.01585" lon="1.17274">
        <ele>481</ele>
        <time>2021-01-29T15:56:47Z</time>
      </trkpt>
      <trkpt lat="43.01598" lon="1.17261">
        <ele>481</ele>
        <time>2021-01-29T15:56:50Z</time>
      </trkpt>
      <trkpt lat="43.01828" lon="1.17076">
        <ele>486</ele>
        <time>2021-01-29T15:57:37Z</time>
      </trkpt>
      <trkpt lat="43.01849" lon="1.17057">
        <ele>487</ele>
        <time>2021-01-29T15:57:41Z</time>
      </trkpt>
      <trkpt lat="43.01965" lon="1.1693">
        <ele>489</ele>
        <time>2021-01-29T15:58:08Z</time>
      </trkpt>
      <trkpt lat="43.02046" lon="1.16842">
        <ele>490</ele>
        <time>2021-01-29T15:58:26Z</time>
      </trkpt>
      <trkpt lat="43.02071" lon="1.16812">
        <ele>491</ele>
        <time>2021-01-29T15:58:32Z</time>
      </trkpt>
      <trkpt lat="43.02108" lon="1.16759">
        <ele>491</ele>
        <time>2021-01-29T15:58:42Z</time>
      </trkpt>
      <trkpt lat="43.02243" lon="1.1656">
        <ele>499</ele>
        <time>2021-01-29T15:59:17Z</time>
      </trkpt>
      <trkpt lat="43.02267" lon="1.16527">
        <ele>501</ele>
        <time>2021-01-29T15:59:23Z</time>
      </trkpt>
      <trkpt lat="43.02285" lon="1.16506">
        <ele>502</ele>
        <time>2021-01-29T15:59:27Z</time>
      </trkpt>
      <trkpt lat="43.02286" lon="1.16504">
        <ele>502</ele>
        <time>2021-01-29T15:59:28Z</time>
      </trkpt>
      <trkpt lat="43.02308" lon="1.16479">
        <ele>503</ele>
        <time>2021-01-29T15:59:33Z</time>
      </trkpt>
      <trkpt lat="43.02318" lon="1.16465">
        <ele>504</ele>
        <time>2021-01-29T15:59:35Z</time>
      </trkpt>
      <trkpt lat="43.02338" lon="1.16432">
        <ele>504</ele>
        <time>2021-01-29T15:59:41Z</time>
      </trkpt>
      <trkpt lat="43.02345" lon="1.16418">
        <ele>504</ele>
        <time>2021-01-29T15:59:43Z</time>
      </trkpt>
      <trkpt lat="43.0235" lon="1.16408">
        <ele>504</ele>
        <time>2021-01-29T15:59:45Z</time>
      </trkpt>
      <trkpt lat="43.02365" lon="1.16388">
        <ele>504</ele>
        <time>2021-01-29T15:59:48Z</time>
      </trkpt>
      <trkpt lat="43.02383" lon="1.16372">
        <ele>504</ele>
        <time>2021-01-29T15:59:52Z</time>
      </trkpt>
      <trkpt lat="43.02456" lon="1.16321">
        <ele>506</ele>
        <time>2021-01-29T16:00:07Z</time>
      </trkpt>
      <trkpt lat="43.02468" lon="1.16315">
        <ele>506</ele>
        <time>2021-01-29T16:00:09Z</time>
      </trkpt>
      <trkpt lat="43.02489" lon="1.1631">
        <ele>506</ele>
        <time>2021-01-29T16:00:13Z</time>
      </trkpt>
      <trkpt lat="43.02511" lon="1.16312">
        <ele>507</ele>
        <time>2021-01-29T16:00:17Z</time>
      </trkpt>
      <trkpt lat="43.02531" lon="1.16318">
        <ele>509</ele>
        <time>2021-01-29T16:00:20Z</time>
      </trkpt>
      <trkpt lat="43.02551" lon="1.16319">
        <ele>509</ele>
        <time>2021-01-29T16:00:24Z</time>
      </trkpt>
      <trkpt lat="43.02568" lon="1.16315">
        <ele>510</ele>
        <time>2021-01-29T16:00:27Z</time>
      </trkpt>
      <trkpt lat="43.02585" lon="1.16308">
        <ele>510</ele>
        <time>2021-01-29T16:00:30Z</time>
      </trkpt>
      <trkpt lat="43.026" lon="1.16298">
        <ele>512</ele>
        <time>2021-01-29T16:00:33Z</time>
      </trkpt>
      <trkpt lat="43.02611" lon="1.1629">
        <ele>513</ele>
        <time>2021-01-29T16:00:35Z</time>
      </trkpt>
      <trkpt lat="43.0263" lon="1.16267">
        <ele>514</ele>
        <time>2021-01-29T16:00:40Z</time>
      </trkpt>
      <trkpt lat="43.02678" lon="1.16194">
        <ele>514</ele>
        <time>2021-01-29T16:00:53Z</time>
      </trkpt>
      <trkpt lat="43.02705" lon="1.1616">
        <ele>513</ele>
        <time>2021-01-29T16:00:59Z</time>
      </trkpt>
      <trkpt lat="43.02714" lon="1.16153">
        <ele>513</ele>
        <time>2021-01-29T16:01:01Z</time>
      </trkpt>
      <trkpt lat="43.02723" lon="1.16149">
        <ele>514</ele>
        <time>2021-01-29T16:01:03Z</time>
      </trkpt>
      <trkpt lat="43.02733" lon="1.16148">
        <ele>514</ele>
        <time>2021-01-29T16:01:05Z</time>
      </trkpt>
      <trkpt lat="43.02751" lon="1.16153">
        <ele>515</ele>
        <time>2021-01-29T16:01:08Z</time>
      </trkpt>
      <trkpt lat="43.02758" lon="1.1616">
        <ele>515</ele>
        <time>2021-01-29T16:01:09Z</time>
      </trkpt>
      <trkpt lat="43.02765" lon="1.1617">
        <ele>514</ele>
        <time>2021-01-29T16:01:11Z</time>
      </trkpt>
      <trkpt lat="43.02772" lon="1.1619">
        <ele>514</ele>
        <time>2021-01-29T16:01:14Z</time>
      </trkpt>
      <trkpt lat="43.02774" lon="1.16202">
        <ele>515</ele>
        <time>2021-01-29T16:01:16Z</time>
      </trkpt>
      <trkpt lat="43.0277" lon="1.16256">
        <ele>517</ele>
        <time>2021-01-29T16:01:23Z</time>
      </trkpt>
      <trkpt lat="43.02769" lon="1.16376">
        <ele>518</ele>
        <time>2021-01-29T16:01:38Z</time>
      </trkpt>
      <trkpt lat="43.02774" lon="1.16402">
        <ele>518</ele>
        <time>2021-01-29T16:01:42Z</time>
      </trkpt>
      <trkpt lat="43.02779" lon="1.16411">
        <ele>518</ele>
        <time>2021-01-29T16:01:43Z</time>
      </trkpt>
      <trkpt lat="43.02792" lon="1.16423">
        <ele>518</ele>
        <time>2021-01-29T16:01:46Z</time>
      </trkpt>
      <trkpt lat="43.02823" lon="1.16435">
        <ele>520</ele>
        <time>2021-01-29T16:01:52Z</time>
      </trkpt>
      <trkpt lat="43.02841" lon="1.16435">
        <ele>521</ele>
        <time>2021-01-29T16:01:55Z</time>
      </trkpt>
      <trkpt lat="43.02851" lon="1.16432">
        <ele>521</ele>
        <time>2021-01-29T16:01:57Z</time>
      </trkpt>
      <trkpt lat="43.02863" lon="1.16424">
        <ele>521</ele>
        <time>2021-01-29T16:01:59Z</time>
      </trkpt>
      <trkpt lat="43.02899" lon="1.16387">
        <ele>520</ele>
        <time>2021-01-29T16:02:07Z</time>
      </trkpt>
      <trkpt lat="43.02918" lon="1.16377">
        <ele>520</ele>
        <time>2021-01-29T16:02:11Z</time>
      </trkpt>
      <trkpt lat="43.02927" lon="1.16377">
        <ele>520</ele>
        <time>2021-01-29T16:02:12Z</time>
      </trkpt>
      <trkpt lat="43.02969" lon="1.16388">
        <ele>523</ele>
        <time>2021-01-29T16:02:20Z</time>
      </trkpt>
      <trkpt lat="43.03022" lon="1.16389">
        <ele>524</ele>
        <time>2021-01-29T16:02:29Z</time>
      </trkpt>
      <trkpt lat="43.03044" lon="1.16395">
        <ele>524</ele>
        <time>2021-01-29T16:02:33Z</time>
      </trkpt>
      <trkpt lat="43.03073" lon="1.16411">
        <ele>525</ele>
        <time>2021-01-29T16:02:39Z</time>
      </trkpt>
      <trkpt lat="43.03116" lon="1.16443">
        <ele>526</ele>
        <time>2021-01-29T16:02:48Z</time>
      </trkpt>
      <trkpt lat="43.03124" lon="1.16446">
        <ele>525</ele>
        <time>2021-01-29T16:02:49Z</time>
      </trkpt>
      <trkpt lat="43.03134" lon="1.16448">
        <ele>525</ele>
        <time>2021-01-29T16:02:51Z</time>
      </trkpt>
      <trkpt lat="43.03151" lon="1.16447">
        <ele>524</ele>
        <time>2021-01-29T16:02:54Z</time>
      </trkpt>
      <trkpt lat="43.03154" lon="1.16448">
        <ele>524</ele>
        <time>2021-01-29T16:02:55Z</time>
      </trkpt>
      <trkpt lat="43.03163" lon="1.16447">
        <ele>523</ele>
        <time>2021-01-29T16:02:56Z</time>
      </trkpt>
      <trkpt lat="43.03197" lon="1.16446">
        <ele>523</ele>
        <time>2021-01-29T16:03:02Z</time>
      </trkpt>
      <trkpt lat="43.03227" lon="1.16449">
        <ele>523</ele>
        <time>2021-01-29T16:03:08Z</time>
      </trkpt>
      <trkpt lat="43.03243" lon="1.16458">
        <ele>523</ele>
        <time>2021-01-29T16:03:11Z</time>
      </trkpt>
      <trkpt lat="43.03252" lon="1.16466">
        <ele>522</ele>
        <time>2021-01-29T16:03:13Z</time>
      </trkpt>
      <trkpt lat="43.03262" lon="1.16479">
        <ele>522</ele>
        <time>2021-01-29T16:03:15Z</time>
      </trkpt>
      <trkpt lat="43.03277" lon="1.16503">
        <ele>520</ele>
        <time>2021-01-29T16:03:19Z</time>
      </trkpt>
      <trkpt lat="43.03347" lon="1.16625">
        <ele>515</ele>
        <time>2021-01-29T16:03:39Z</time>
      </trkpt>
      <trkpt lat="43.03375" lon="1.16671">
        <ele>514</ele>
        <time>2021-01-29T16:03:47Z</time>
      </trkpt>
      <trkpt lat="43.03394" lon="1.16694">
        <ele>513</ele>
        <time>2021-01-29T16:03:52Z</time>
      </trkpt>
      <trkpt lat="43.0343" lon="1.16729">
        <ele>511</ele>
        <time>2021-01-29T16:03:59Z</time>
      </trkpt>
      <trkpt lat="43.03452" lon="1.16757">
        <ele>510</ele>
        <time>2021-01-29T16:04:05Z</time>
      </trkpt>
      <trkpt lat="43.03515" lon="1.1687">
        <ele>505</ele>
        <time>2021-01-29T16:04:23Z</time>
      </trkpt>
      <trkpt lat="43.03546" lon="1.16932">
        <ele>502</ele>
        <time>2021-01-29T16:04:33Z</time>
      </trkpt>
      <trkpt lat="43.0355" lon="1.16949">
        <ele>501</ele>
        <time>2021-01-29T16:04:35Z</time>
      </trkpt>
      <trkpt lat="43.03553" lon="1.16992">
        <ele>499</ele>
        <time>2021-01-29T16:04:41Z</time>
      </trkpt>
      <trkpt lat="43.03554" lon="1.17064">
        <ele>497</ele>
        <time>2021-01-29T16:04:50Z</time>
      </trkpt>
      <trkpt lat="43.03555" lon="1.17113">
        <ele>497</ele>
        <time>2021-01-29T16:04:57Z</time>
      </trkpt>
      <trkpt lat="43.03556" lon="1.17169">
        <ele>498</ele>
        <time>2021-01-29T16:05:04Z</time>
      </trkpt>
      <trkpt lat="43.03557" lon="1.17223">
        <ele>496</ele>
        <time>2021-01-29T16:05:11Z</time>
      </trkpt>
      <trkpt lat="43.03555" lon="1.17255">
        <ele>496</ele>
        <time>2021-01-29T16:05:15Z</time>
      </trkpt>
      <trkpt lat="43.03551" lon="1.17273">
        <ele>496</ele>
        <time>2021-01-29T16:05:18Z</time>
      </trkpt>
      <trkpt lat="43.03544" lon="1.17296">
        <ele>495</ele>
        <time>2021-01-29T16:05:21Z</time>
      </trkpt>
      <trkpt lat="43.03522" lon="1.17361">
        <ele>492</ele>
        <time>2021-01-29T16:05:30Z</time>
      </trkpt>
      <trkpt lat="43.03521" lon="1.17386">
        <ele>491</ele>
        <time>2021-01-29T16:05:33Z</time>
      </trkpt>
      <trkpt lat="43.03523" lon="1.17399">
        <ele>490</ele>
        <time>2021-01-29T16:05:35Z</time>
      </trkpt>
      <trkpt lat="43.03614" lon="1.17686">
        <ele>482</ele>
        <time>2021-01-29T16:06:16Z</time>
      </trkpt>
      <trkpt lat="43.03634" lon="1.17739">
        <ele>481</ele>
        <time>2021-01-29T16:06:24Z</time>
      </trkpt>
      <trkpt lat="43.03645" lon="1.17762">
        <ele>481</ele>
        <time>2021-01-29T16:06:27Z</time>
      </trkpt>
      <trkpt lat="43.03652" lon="1.17774">
        <ele>481</ele>
        <time>2021-01-29T16:06:29Z</time>
      </trkpt>
      <trkpt lat="43.03683" lon="1.17826">
        <ele>479</ele>
        <time>2021-01-29T16:06:38Z</time>
      </trkpt>
      <trkpt lat="43.03696" lon="1.17855">
        <ele>479</ele>
        <time>2021-01-29T16:06:42Z</time>
      </trkpt>
      <trkpt lat="43.03702" lon="1.17883">
        <ele>479</ele>
        <time>2021-01-29T16:06:46Z</time>
      </trkpt>
      <trkpt lat="43.03702" lon="1.17901">
        <ele>479</ele>
        <time>2021-01-29T16:06:48Z</time>
      </trkpt>
      <trkpt lat="43.03701" lon="1.1792">
        <ele>478</ele>
        <time>2021-01-29T16:06:51Z</time>
      </trkpt>
      <trkpt lat="43.03659" lon="1.18176">
        <ele>472</ele>
        <time>2021-01-29T16:07:25Z</time>
      </trkpt>
      <trkpt lat="43.03657" lon="1.18205">
        <ele>471</ele>
        <time>2021-01-29T16:07:29Z</time>
      </trkpt>
      <trkpt lat="43.03658" lon="1.18217">
        <ele>470</ele>
        <time>2021-01-29T16:07:30Z</time>
      </trkpt>
      <trkpt lat="43.03659" lon="1.1823">
        <ele>470</ele>
        <time>2021-01-29T16:07:32Z</time>
      </trkpt>
      <trkpt lat="43.03671" lon="1.18263">
        <ele>470</ele>
        <time>2021-01-29T16:07:37Z</time>
      </trkpt>
      <trkpt lat="43.03746" lon="1.18431">
        <ele>469</ele>
        <time>2021-01-29T16:08:03Z</time>
      </trkpt>
      <trkpt lat="43.03761" lon="1.1845">
        <ele>468</ele>
        <time>2021-01-29T16:08:06Z</time>
      </trkpt>
      <trkpt lat="43.0379" lon="1.18482">
        <ele>466</ele>
        <time>2021-01-29T16:08:13Z</time>
      </trkpt>
      <trkpt lat="43.03814" lon="1.18505">
        <ele>463</ele>
        <time>2021-01-29T16:08:18Z</time>
      </trkpt>
      <trkpt lat="43.03847" lon="1.18531">
        <ele>463</ele>
        <time>2021-01-29T16:08:25Z</time>
      </trkpt>
      <trkpt lat="43.0386" lon="1.18536">
        <ele>463</ele>
        <time>2021-01-29T16:08:27Z</time>
      </trkpt>
      <trkpt lat="43.03927" lon="1.18546">
        <ele>463</ele>
        <time>2021-01-29T16:08:39Z</time>
      </trkpt>
      <trkpt lat="43.0399" lon="1.18549">
        <ele>461</ele>
        <time>2021-01-29T16:08:50Z</time>
      </trkpt>
      <trkpt lat="43.04055" lon="1.18556">
        <ele>457</ele>
        <time>2021-01-29T16:09:02Z</time>
      </trkpt>
      <trkpt lat="43.04145" lon="1.18558">
        <ele>458</ele>
        <time>2021-01-29T16:09:18Z</time>
      </trkpt>
      <trkpt lat="43.04164" lon="1.1856">
        <ele>459</ele>
        <time>2021-01-29T16:09:21Z</time>
      </trkpt>
      <trkpt lat="43.04179" lon="1.18564">
        <ele>459</ele>
        <time>2021-01-29T16:09:24Z</time>
      </trkpt>
      <trkpt lat="43.04245" lon="1.18601">
        <ele>456</ele>
        <time>2021-01-29T16:09:37Z</time>
      </trkpt>
      <trkpt lat="43.04254" lon="1.18608">
        <ele>456</ele>
        <time>2021-01-29T16:09:39Z</time>
      </trkpt>
      <trkpt lat="43.04263" lon="1.18621">
        <ele>457</ele>
        <time>2021-01-29T16:09:41Z</time>
      </trkpt>
      <trkpt lat="43.0427" lon="1.18635">
        <ele>456</ele>
        <time>2021-01-29T16:09:43Z</time>
      </trkpt>
      <trkpt lat="43.04296" lon="1.18705">
        <ele>454</ele>
        <time>2021-01-29T16:09:53Z</time>
      </trkpt>
      <trkpt lat="43.04307" lon="1.18728">
        <ele>452</ele>
        <time>2021-01-29T16:09:57Z</time>
      </trkpt>
      <trkpt lat="43.0432" lon="1.18742">
        <ele>449</ele>
        <time>2021-01-29T16:10:00Z</time>
      </trkpt>
      <trkpt lat="43.04332" lon="1.18751">
        <ele>445</ele>
        <time>2021-01-29T16:10:02Z</time>
      </trkpt>
      <trkpt lat="43.04344" lon="1.18756">
        <ele>444</ele>
        <time>2021-01-29T16:10:05Z</time>
      </trkpt>
      <trkpt lat="43.04355" lon="1.18755">
        <ele>443</ele>
        <time>2021-01-29T16:10:07Z</time>
      </trkpt>
      <trkpt lat="43.04368" lon="1.18749">
        <ele>442</ele>
        <time>2021-01-29T16:10:09Z</time>
      </trkpt>
      <trkpt lat="43.0438" lon="1.1874">
        <ele>443</ele>
        <time>2021-01-29T16:10:11Z</time>
      </trkpt>
      <trkpt lat="43.04399" lon="1.18723">
        <ele>445</ele>
        <time>2021-01-29T16:10:15Z</time>
      </trkpt>
      <trkpt lat="43.04407" lon="1.18718">
        <ele>445</ele>
        <time>2021-01-29T16:10:17Z</time>
      </trkpt>
      <trkpt lat="43.04421" lon="1.18715">
        <ele>445</ele>
        <time>2021-01-29T16:10:20Z</time>
      </trkpt>
      <trkpt lat="43.0444" lon="1.18717">
        <ele>445</ele>
        <time>2021-01-29T16:10:23Z</time>
      </trkpt>
      <trkpt lat="43.04455" lon="1.1872">
        <ele>445</ele>
        <time>2021-01-29T16:10:26Z</time>
      </trkpt>
      <trkpt lat="43.04475" lon="1.18727">
        <ele>445</ele>
        <time>2021-01-29T16:10:29Z</time>
      </trkpt>
      <trkpt lat="43.0448" lon="1.18727">
        <ele>446</ele>
        <time>2021-01-29T16:10:30Z</time>
      </trkpt>
      <trkpt lat="43.04489" lon="1.18726">
        <ele>446</ele>
        <time>2021-01-29T16:10:32Z</time>
      </trkpt>
      <trkpt lat="43.045" lon="1.18721">
        <ele>446</ele>
        <time>2021-01-29T16:10:34Z</time>
      </trkpt>
      <trkpt lat="43.04511" lon="1.18711">
        <ele>449</ele>
        <time>2021-01-29T16:10:36Z</time>
      </trkpt>
      <trkpt lat="43.0452" lon="1.18692">
        <ele>449</ele>
        <time>2021-01-29T16:10:39Z</time>
      </trkpt>
      <trkpt lat="43.04537" lon="1.18634">
        <ele>448</ele>
        <time>2021-01-29T16:10:47Z</time>
      </trkpt>
      <trkpt lat="43.04557" lon="1.18544">
        <ele>444</ele>
        <time>2021-01-29T16:11:00Z</time>
      </trkpt>
      <trkpt lat="43.04581" lon="1.18417">
        <ele>434</ele>
        <time>2021-01-29T16:11:17Z</time>
      </trkpt>
      <trkpt lat="43.0459" lon="1.18383">
        <ele>435</ele>
        <time>2021-01-29T16:11:21Z</time>
      </trkpt>
      <trkpt lat="43.04599" lon="1.18368">
        <ele>436</ele>
        <time>2021-01-29T16:11:24Z</time>
      </trkpt>
      <trkpt lat="43.0461" lon="1.18357">
        <ele>436</ele>
        <time>2021-01-29T16:11:26Z</time>
      </trkpt>
      <trkpt lat="43.04629" lon="1.18344">
        <ele>435</ele>
        <time>2021-01-29T16:11:30Z</time>
      </trkpt>
      <trkpt lat="43.04689" lon="1.1831">
        <ele>433</ele>
        <time>2021-01-29T16:11:42Z</time>
      </trkpt>
      <trkpt lat="43.04719" lon="1.18302">
        <ele>432</ele>
        <time>2021-01-29T16:11:47Z</time>
      </trkpt>
      <trkpt lat="43.04752" lon="1.18302">
        <ele>432</ele>
        <time>2021-01-29T16:11:53Z</time>
      </trkpt>
      <trkpt lat="43.04812" lon="1.18315">
        <ele>435</ele>
        <time>2021-01-29T16:12:04Z</time>
      </trkpt>
      <trkpt lat="43.04826" lon="1.18317">
        <ele>435</ele>
        <time>2021-01-29T16:12:06Z</time>
      </trkpt>
      <trkpt lat="43.04839" lon="1.18316">
        <ele>436</ele>
        <time>2021-01-29T16:12:09Z</time>
      </trkpt>
      <trkpt lat="43.04863" lon="1.18307">
        <ele>437</ele>
        <time>2021-01-29T16:12:13Z</time>
      </trkpt>
      <trkpt lat="43.04947" lon="1.18251">
        <ele>433</ele>
        <time>2021-01-29T16:12:30Z</time>
      </trkpt>
      <trkpt lat="43.04967" lon="1.18236">
        <ele>434</ele>
        <time>2021-01-29T16:12:34Z</time>
      </trkpt>
      <trkpt lat="43.05001" lon="1.182">
        <ele>431</ele>
        <time>2021-01-29T16:12:41Z</time>
      </trkpt>
      <trkpt lat="43.05046" lon="1.18133">
        <ele>430</ele>
        <time>2021-01-29T16:12:53Z</time>
      </trkpt>
      <trkpt lat="43.05064" lon="1.18111">
        <ele>430</ele>
        <time>2021-01-29T16:12:57Z</time>
      </trkpt>
      <trkpt lat="43.05134" lon="1.18042">
        <ele>427</ele>
        <time>2021-01-29T16:13:13Z</time>
      </trkpt>
      <trkpt lat="43.05163" lon="1.18014">
        <ele>423</ele>
        <time>2021-01-29T16:13:19Z</time>
      </trkpt>
      <trkpt lat="43.05177" lon="1.18008">
        <ele>421</ele>
        <time>2021-01-29T16:13:22Z</time>
      </trkpt>
      <trkpt lat="43.05188" lon="1.18009">
        <ele>421</ele>
        <time>2021-01-29T16:13:24Z</time>
      </trkpt>
      <trkpt lat="43.05198" lon="1.18014">
        <ele>420</ele>
        <time>2021-01-29T16:13:26Z</time>
      </trkpt>
      <trkpt lat="43.05249" lon="1.1805">
        <ele>416</ele>
        <time>2021-01-29T16:13:36Z</time>
      </trkpt>
      <trkpt lat="43.05298" lon="1.18088">
        <ele>413</ele>
        <time>2021-01-29T16:13:46Z</time>
      </trkpt>
      <trkpt lat="43.0532" lon="1.18101">
        <ele>412</ele>
        <time>2021-01-29T16:13:50Z</time>
      </trkpt>
      <trkpt lat="43.05334" lon="1.18106">
        <ele>411</ele>
        <time>2021-01-29T16:13:53Z</time>
      </trkpt>
      <trkpt lat="43.05361" lon="1.1811">
        <ele>410</ele>
        <time>2021-01-29T16:13:57Z</time>
      </trkpt>
      <trkpt lat="43.05375" lon="1.18107">
        <ele>410</ele>
        <time>2021-01-29T16:14:00Z</time>
      </trkpt>
      <trkpt lat="43.0541" lon="1.18095">
        <ele>410</ele>
        <time>2021-01-29T16:14:06Z</time>
      </trkpt>
      <trkpt lat="43.05425" lon="1.18093">
        <ele>411</ele>
        <time>2021-01-29T16:14:09Z</time>
      </trkpt>
      <trkpt lat="43.05445" lon="1.18093">
        <ele>413</ele>
        <time>2021-01-29T16:14:13Z</time>
      </trkpt>
      <trkpt lat="43.05461" lon="1.18096">
        <ele>414</ele>
        <time>2021-01-29T16:14:15Z</time>
      </trkpt>
      <trkpt lat="43.05473" lon="1.18101">
        <ele>415</ele>
        <time>2021-01-29T16:14:18Z</time>
      </trkpt>
      <trkpt lat="43.05565" lon="1.1815">
        <ele>412</ele>
        <time>2021-01-29T16:14:35Z</time>
      </trkpt>
      <trkpt lat="43.05677" lon="1.18206">
        <ele>414</ele>
        <time>2021-01-29T16:14:57Z</time>
      </trkpt>
      <trkpt lat="43.05707" lon="1.18218">
        <ele>415</ele>
        <time>2021-01-29T16:15:02Z</time>
      </trkpt>
      <trkpt lat="43.0576" lon="1.18234">
        <ele>416</ele>
        <time>2021-01-29T16:15:12Z</time>
      </trkpt>
      <trkpt lat="43.05773" lon="1.1824">
        <ele>416</ele>
        <time>2021-01-29T16:15:14Z</time>
      </trkpt>
      <trkpt lat="43.0579" lon="1.18253">
        <ele>415</ele>
        <time>2021-01-29T16:15:18Z</time>
      </trkpt>
      <trkpt lat="43.05809" lon="1.1827">
        <ele>413</ele>
        <time>2021-01-29T16:15:22Z</time>
      </trkpt>
      <trkpt lat="43.05851" lon="1.18306">
        <ele>409</ele>
        <time>2021-01-29T16:15:30Z</time>
      </trkpt>
      <trkpt lat="43.05913" lon="1.18354">
        <ele>409</ele>
        <time>2021-01-29T16:15:43Z</time>
      </trkpt>
      <trkpt lat="43.0592" lon="1.18363">
        <ele>409</ele>
        <time>2021-01-29T16:15:45Z</time>
      </trkpt>
      <trkpt lat="43.05925" lon="1.18376">
        <ele>410</ele>
        <time>2021-01-29T16:15:47Z</time>
      </trkpt>
      <trkpt lat="43.05928" lon="1.18392">
        <ele>410</ele>
        <time>2021-01-29T16:15:49Z</time>
      </trkpt>
      <trkpt lat="43.05933" lon="1.18517">
        <ele>407</ele>
        <time>2021-01-29T16:16:05Z</time>
      </trkpt>
      <trkpt lat="43.05928" lon="1.187">
        <ele>405</ele>
        <time>2021-01-29T16:16:29Z</time>
      </trkpt>
      <trkpt lat="43.05932" lon="1.18746">
        <ele>406</ele>
        <time>2021-01-29T16:16:35Z</time>
      </trkpt>
      <trkpt lat="43.0594" lon="1.18787">
        <ele>405</ele>
        <time>2021-01-29T16:16:41Z</time>
      </trkpt>
      <trkpt lat="43.05945" lon="1.18801">
        <ele>405</ele>
        <time>2021-01-29T16:16:43Z</time>
      </trkpt>
      <trkpt lat="43.05959" lon="1.18821">
        <ele>405</ele>
        <time>2021-01-29T16:16:46Z</time>
      </trkpt>
      <trkpt lat="43.05989" lon="1.18852">
        <ele>406</ele>
        <time>2021-01-29T16:16:53Z</time>
      </trkpt>
      <trkpt lat="43.06024" lon="1.18884">
        <ele>403</ele>
        <time>2021-01-29T16:17:00Z</time>
      </trkpt>
      <trkpt lat="43.06045" lon="1.18894">
        <ele>401</ele>
        <time>2021-01-29T16:17:04Z</time>
      </trkpt>
      <trkpt lat="43.06129" lon="1.18909">
        <ele>400</ele>
        <time>2021-01-29T16:17:19Z</time>
      </trkpt>
      <trkpt lat="43.06143" lon="1.18915">
        <ele>399</ele>
        <time>2021-01-29T16:17:22Z</time>
      </trkpt>
      <trkpt lat="43.06179" lon="1.18937">
        <ele>399</ele>
        <time>2021-01-29T16:17:29Z</time>
      </trkpt>
      <trkpt lat="43.06207" lon="1.18957">
        <ele>400</ele>
        <time>2021-01-29T16:17:35Z</time>
      </trkpt>
      <trkpt lat="43.0624" lon="1.18986">
        <ele>400</ele>
        <time>2021-01-29T16:17:42Z</time>
      </trkpt>
      <trkpt lat="43.06264" lon="1.19019">
        <ele>400</ele>
        <time>2021-01-29T16:17:48Z</time>
      </trkpt>
      <trkpt lat="43.06304" lon="1.19093">
        <ele>400</ele>
        <time>2021-01-29T16:18:00Z</time>
      </trkpt>
      <trkpt lat="43.06324" lon="1.19116">
        <ele>400</ele>
        <time>2021-01-29T16:18:04Z</time>
      </trkpt>
      <trkpt lat="43.06347" lon="1.19134">
        <ele>400</ele>
        <time>2021-01-29T16:18:09Z</time>
      </trkpt>
      <trkpt lat="43.06442" lon="1.19191">
        <ele>398</ele>
        <time>2021-01-29T16:18:27Z</time>
      </trkpt>
      <trkpt lat="43.06479" lon="1.19207">
        <ele>396</ele>
        <time>2021-01-29T16:18:34Z</time>
      </trkpt>
      <trkpt lat="43.06548" lon="1.19219">
        <ele>394</ele>
        <time>2021-01-29T16:18:47Z</time>
      </trkpt>
      <trkpt lat="43.06564" lon="1.1922">
        <ele>393</ele>
        <time>2021-01-29T16:18:50Z</time>
      </trkpt>
      <trkpt lat="43.06587" lon="1.19215">
        <ele>393</ele>
        <time>2021-01-29T16:18:54Z</time>
      </trkpt>
      <trkpt lat="43.06631" lon="1.19199">
        <ele>396</ele>
        <time>2021-01-29T16:19:02Z</time>
      </trkpt>
      <trkpt lat="43.0664" lon="1.19198">
        <ele>397</ele>
        <time>2021-01-29T16:19:03Z</time>
      </trkpt>
      <trkpt lat="43.06656" lon="1.19202">
        <ele>397</ele>
        <time>2021-01-29T16:19:06Z</time>
      </trkpt>
      <trkpt lat="43.06671" lon="1.19209">
        <ele>397</ele>
        <time>2021-01-29T16:19:09Z</time>
      </trkpt>
      <trkpt lat="43.0673" lon="1.19274">
        <ele>394</ele>
        <time>2021-01-29T16:19:23Z</time>
      </trkpt>
      <trkpt lat="43.0675" lon="1.1929">
        <ele>394</ele>
        <time>2021-01-29T16:19:27Z</time>
      </trkpt>
      <trkpt lat="43.06772" lon="1.19301">
        <ele>394</ele>
        <time>2021-01-29T16:19:31Z</time>
      </trkpt>
      <trkpt lat="43.0686" lon="1.19324">
        <ele>393</ele>
        <time>2021-01-29T16:19:47Z</time>
      </trkpt>
      <trkpt lat="43.06875" lon="1.19325">
        <ele>392</ele>
        <time>2021-01-29T16:19:50Z</time>
      </trkpt>
      <trkpt lat="43.06889" lon="1.19324">
        <ele>392</ele>
        <time>2021-01-29T16:19:52Z</time>
      </trkpt>
      <trkpt lat="43.06905" lon="1.19318">
        <ele>392</ele>
        <time>2021-01-29T16:19:55Z</time>
      </trkpt>
      <trkpt lat="43.06921" lon="1.19306">
        <ele>391</ele>
        <time>2021-01-29T16:19:58Z</time>
      </trkpt>
      <trkpt lat="43.07027" lon="1.19185">
        <ele>392</ele>
        <time>2021-01-29T16:20:23Z</time>
      </trkpt>
      <trkpt lat="43.07044" lon="1.19174">
        <ele>392</ele>
        <time>2021-01-29T16:20:26Z</time>
      </trkpt>
      <trkpt lat="43.07064" lon="1.19174">
        <ele>392</ele>
        <time>2021-01-29T16:20:30Z</time>
      </trkpt>
      <trkpt lat="43.07091" lon="1.19182">
        <ele>392</ele>
        <time>2021-01-29T16:20:35Z</time>
      </trkpt>
      <trkpt lat="43.07119" lon="1.19195">
        <ele>392</ele>
        <time>2021-01-29T16:20:40Z</time>
      </trkpt>
      <trkpt lat="43.07134" lon="1.19198">
        <ele>392</ele>
        <time>2021-01-29T16:20:43Z</time>
      </trkpt>
      <trkpt lat="43.07155" lon="1.19196">
        <ele>393</ele>
        <time>2021-01-29T16:20:46Z</time>
      </trkpt>
      <trkpt lat="43.07174" lon="1.19184">
        <ele>396</ele>
        <time>2021-01-29T16:20:50Z</time>
      </trkpt>
      <trkpt lat="43.07201" lon="1.19184">
        <ele>400</ele>
        <time>2021-01-29T16:20:55Z</time>
      </trkpt>
      <trkpt lat="43.07264" lon="1.19202">
        <ele>403</ele>
        <time>2021-01-29T16:21:06Z</time>
      </trkpt>
      <trkpt lat="43.07338" lon="1.19219">
        <ele>394</ele>
        <time>2021-01-29T16:21:20Z</time>
      </trkpt>
      <trkpt lat="43.07365" lon="1.19226">
        <ele>390</ele>
        <time>2021-01-29T16:21:25Z</time>
      </trkpt>
      <trkpt lat="43.07392" lon="1.1924">
        <ele>385</ele>
        <time>2021-01-29T16:21:30Z</time>
      </trkpt>
      <trkpt lat="43.07504" lon="1.19323">
        <ele>381</ele>
        <time>2021-01-29T16:21:52Z</time>
      </trkpt>
      <trkpt lat="43.07618" lon="1.19404">
        <ele>385</ele>
        <time>2021-01-29T16:22:15Z</time>
      </trkpt>
      <trkpt lat="43.07647" lon="1.1943">
        <ele>386</ele>
        <time>2021-01-29T16:22:21Z</time>
      </trkpt>
      <trkpt lat="43.07662" lon="1.1945">
        <ele>386</ele>
        <time>2021-01-29T16:22:25Z</time>
      </trkpt>
      <trkpt lat="43.07674" lon="1.19476">
        <ele>385</ele>
        <time>2021-01-29T16:22:29Z</time>
      </trkpt>
      <trkpt lat="43.07725" lon="1.19636">
        <ele>381</ele>
        <time>2021-01-29T16:22:52Z</time>
      </trkpt>
      <trkpt lat="43.07793" lon="1.19776">
        <ele>380</ele>
        <time>2021-01-29T16:23:14Z</time>
      </trkpt>
      <trkpt lat="43.07812" lon="1.19808">
        <ele>378</ele>
        <time>2021-01-29T16:23:19Z</time>
      </trkpt>
      <trkpt lat="43.07833" lon="1.19832">
        <ele>376</ele>
        <time>2021-01-29T16:23:24Z</time>
      </trkpt>
      <trkpt lat="43.07974" lon="1.19932">
        <ele>369</ele>
        <time>2021-01-29T16:23:52Z</time>
      </trkpt>
      <trkpt lat="43.08001" lon="1.19947">
        <ele>369</ele>
        <time>2021-01-29T16:23:57Z</time>
      </trkpt>
      <trkpt lat="43.08022" lon="1.19953">
        <ele>368</ele>
        <time>2021-01-29T16:24:01Z</time>
      </trkpt>
      <trkpt lat="43.08048" lon="1.19952">
        <ele>368</ele>
        <time>2021-01-29T16:24:06Z</time>
      </trkpt>
      <trkpt lat="43.08115" lon="1.19932">
        <ele>368</ele>
        <time>2021-01-29T16:24:18Z</time>
      </trkpt>
      <trkpt lat="43.08143" lon="1.19926">
        <ele>369</ele>
        <time>2021-01-29T16:24:23Z</time>
      </trkpt>
      <trkpt lat="43.08214" lon="1.19935">
        <ele>373</ele>
        <time>2021-01-29T16:24:36Z</time>
      </trkpt>
      <trkpt lat="43.08237" lon="1.19935">
        <ele>374</ele>
        <time>2021-01-29T16:24:40Z</time>
      </trkpt>
      <trkpt lat="43.08288" lon="1.19925">
        <ele>374</ele>
        <time>2021-01-29T16:24:49Z</time>
      </trkpt>
      <trkpt lat="43.08304" lon="1.19929">
        <ele>374</ele>
        <time>2021-01-29T16:24:52Z</time>
      </trkpt>
      <trkpt lat="43.08319" lon="1.19934">
        <ele>373</ele>
        <time>2021-01-29T16:24:55Z</time>
      </trkpt>
      <trkpt lat="43.08334" lon="1.19934">
        <ele>373</ele>
        <time>2021-01-29T16:24:57Z</time>
      </trkpt>
      <trkpt lat="43.08345" lon="1.19929">
        <ele>374</ele>
        <time>2021-01-29T16:24:59Z</time>
      </trkpt>
      <trkpt lat="43.08361" lon="1.19911">
        <ele>376</ele>
        <time>2021-01-29T16:25:03Z</time>
      </trkpt>
      <trkpt lat="43.0839" lon="1.19857">
        <ele>381</ele>
        <time>2021-01-29T16:25:12Z</time>
      </trkpt>
      <trkpt lat="43.0841" lon="1.19833">
        <ele>377</ele>
        <time>2021-01-29T16:25:16Z</time>
      </trkpt>
      <trkpt lat="43.08418" lon="1.19826">
        <ele>377</ele>
        <time>2021-01-29T16:25:18Z</time>
      </trkpt>
      <trkpt lat="43.08498" lon="1.19775">
        <ele>378</ele>
        <time>2021-01-29T16:25:34Z</time>
      </trkpt>
      <trkpt lat="43.08508" lon="1.19764">
        <ele>378</ele>
        <time>2021-01-29T16:25:36Z</time>
      </trkpt>
      <trkpt lat="43.08522" lon="1.19732">
        <ele>381</ele>
        <time>2021-01-29T16:25:41Z</time>
      </trkpt>
      <trkpt lat="43.08525" lon="1.19693">
        <ele>384</ele>
        <time>2021-01-29T16:25:46Z</time>
      </trkpt>
      <trkpt lat="43.08521" lon="1.19671">
        <ele>383</ele>
        <time>2021-01-29T16:25:49Z</time>
      </trkpt>
      <trkpt lat="43.08476" lon="1.19564">
        <ele>379</ele>
        <time>2021-01-29T16:26:05Z</time>
      </trkpt>
      <trkpt lat="43.08468" lon="1.19505">
        <ele>377</ele>
        <time>2021-01-29T16:26:13Z</time>
      </trkpt>
      <trkpt lat="43.08461" lon="1.19479">
        <ele>378</ele>
        <time>2021-01-29T16:26:16Z</time>
      </trkpt>
      <trkpt lat="43.08462" lon="1.19462">
        <ele>378</ele>
        <time>2021-01-29T16:26:19Z</time>
      </trkpt>
      <trkpt lat="43.0847" lon="1.19452">
        <ele>376</ele>
        <time>2021-01-29T16:26:21Z</time>
      </trkpt>
      <trkpt lat="43.08484" lon="1.19449">
        <ele>373</ele>
        <time>2021-01-29T16:26:23Z</time>
      </trkpt>
      <trkpt lat="43.08562" lon="1.19458">
        <ele>371</ele>
        <time>2021-01-29T16:26:37Z</time>
      </trkpt>
      <trkpt lat="43.08591" lon="1.19453">
        <ele>371</ele>
        <time>2021-01-29T16:26:42Z</time>
      </trkpt>
      <trkpt lat="43.08672" lon="1.1943">
        <ele>364</ele>
        <time>2021-01-29T16:26:57Z</time>
      </trkpt>
      <trkpt lat="43.08694" lon="1.19418">
        <ele>361</ele>
        <time>2021-01-29T16:27:01Z</time>
      </trkpt>
      <trkpt lat="43.08713" lon="1.19399">
        <ele>359</ele>
        <time>2021-01-29T16:27:05Z</time>
      </trkpt>
      <trkpt lat="43.08723" lon="1.19385">
        <ele>358</ele>
        <time>2021-01-29T16:27:08Z</time>
      </trkpt>
      <trkpt lat="43.08733" lon="1.1938">
        <ele>358</ele>
        <time>2021-01-29T16:27:10Z</time>
      </trkpt>
      <trkpt lat="43.08748" lon="1.19381">
        <ele>358</ele>
        <time>2021-01-29T16:27:12Z</time>
      </trkpt>
      <trkpt lat="43.08792" lon="1.19403">
        <ele>358</ele>
        <time>2021-01-29T16:27:21Z</time>
      </trkpt>
      <trkpt lat="43.08805" lon="1.19413">
        <ele>358</ele>
        <time>2021-01-29T16:27:23Z</time>
      </trkpt>
      <trkpt lat="43.08813" lon="1.19424">
        <ele>358</ele>
        <time>2021-01-29T16:27:25Z</time>
      </trkpt>
      <trkpt lat="43.08823" lon="1.19474">
        <ele>359</ele>
        <time>2021-01-29T16:27:32Z</time>
      </trkpt>
      <trkpt lat="43.08829" lon="1.1952">
        <ele>359</ele>
        <time>2021-01-29T16:27:38Z</time>
      </trkpt>
      <trkpt lat="43.08831" lon="1.1955">
        <ele>359</ele>
        <time>2021-01-29T16:27:42Z</time>
      </trkpt>
      <trkpt lat="43.0882" lon="1.19704">
        <ele>363</ele>
        <time>2021-01-29T16:28:02Z</time>
      </trkpt>
      <trkpt lat="43.08824" lon="1.19748">
        <ele>362</ele>
        <time>2021-01-29T16:28:08Z</time>
      </trkpt>
      <trkpt lat="43.08834" lon="1.1982">
        <ele>360</ele>
        <time>2021-01-29T16:28:18Z</time>
      </trkpt>
      <trkpt lat="43.0885" lon="1.19888">
        <ele>361</ele>
        <time>2021-01-29T16:28:27Z</time>
      </trkpt>
      <trkpt lat="43.08863" lon="1.1998">
        <ele>366</ele>
        <time>2021-01-29T16:28:39Z</time>
      </trkpt>
      <trkpt lat="43.0888" lon="1.20031">
        <ele>365</ele>
        <time>2021-01-29T16:28:46Z</time>
      </trkpt>
      <trkpt lat="43.08908" lon="1.20058">
        <ele>357</ele>
        <time>2021-01-29T16:28:52Z</time>
      </trkpt>
      <trkpt lat="43.0894" lon="1.20109">
        <ele>357</ele>
        <time>2021-01-29T16:29:01Z</time>
      </trkpt>
      <trkpt lat="43.08957" lon="1.20122">
        <ele>357</ele>
        <time>2021-01-29T16:29:05Z</time>
      </trkpt>
      <trkpt lat="43.08989" lon="1.20131">
        <ele>356</ele>
        <time>2021-01-29T16:29:10Z</time>
      </trkpt>
      <trkpt lat="43.09005" lon="1.2014">
        <ele>356</ele>
        <time>2021-01-29T16:29:13Z</time>
      </trkpt>
      <trkpt lat="43.09026" lon="1.20158">
        <ele>356</ele>
        <time>2021-01-29T16:29:18Z</time>
      </trkpt>
      <trkpt lat="43.09044" lon="1.20164">
        <ele>355</ele>
        <time>2021-01-29T16:29:21Z</time>
      </trkpt>
      <trkpt lat="43.09074" lon="1.20167">
        <ele>352</ele>
        <time>2021-01-29T16:29:27Z</time>
      </trkpt>
      <trkpt lat="43.09095" lon="1.20179">
        <ele>351</ele>
        <time>2021-01-29T16:29:31Z</time>
      </trkpt>
      <trkpt lat="43.09117" lon="1.20198">
        <ele>350</ele>
        <time>2021-01-29T16:29:35Z</time>
      </trkpt>
      <trkpt lat="43.09185" lon="1.20303">
        <ele>359</ele>
        <time>2021-01-29T16:29:53Z</time>
      </trkpt>
      <trkpt lat="43.09199" lon="1.20308">
        <ele>360</ele>
        <time>2021-01-29T16:29:56Z</time>
      </trkpt>
      <trkpt lat="43.09216" lon="1.20307">
        <ele>360</ele>
        <time>2021-01-29T16:29:59Z</time>
      </trkpt>
      <trkpt lat="43.09231" lon="1.203">
        <ele>358</ele>
        <time>2021-01-29T16:30:02Z</time>
      </trkpt>
      <trkpt lat="43.09283" lon="1.20245">
        <ele>354</ele>
        <time>2021-01-29T16:30:14Z</time>
      </trkpt>
      <trkpt lat="43.0933" lon="1.20146">
        <ele>348</ele>
        <time>2021-01-29T16:30:29Z</time>
      </trkpt>
      <trkpt lat="43.09378" lon="1.20068">
        <ele>344</ele>
        <time>2021-01-29T16:30:42Z</time>
      </trkpt>
      <trkpt lat="43.0942" lon="1.19921">
        <ele>341</ele>
        <time>2021-01-29T16:31:03Z</time>
      </trkpt>
      <trkpt lat="43.09442" lon="1.19897">
        <ele>342</ele>
        <time>2021-01-29T16:31:08Z</time>
      </trkpt>
      <trkpt lat="43.09466" lon="1.1988">
        <ele>342</ele>
        <time>2021-01-29T16:31:12Z</time>
      </trkpt>
      <trkpt lat="43.09491" lon="1.19877">
        <ele>341</ele>
        <time>2021-01-29T16:31:17Z</time>
      </trkpt>
      <trkpt lat="43.09517" lon="1.19877">
        <ele>345</ele>
        <time>2021-01-29T16:31:22Z</time>
      </trkpt>
      <trkpt lat="43.09528" lon="1.19875">
        <ele>348</ele>
        <time>2021-01-29T16:31:24Z</time>
      </trkpt>
      <trkpt lat="43.0954" lon="1.19859">
        <ele>349</ele>
        <time>2021-01-29T16:31:27Z</time>
      </trkpt>
      <trkpt lat="43.09554" lon="1.1984">
        <ele>351</ele>
        <time>2021-01-29T16:31:30Z</time>
      </trkpt>
      <trkpt lat="43.09562" lon="1.19812">
        <ele>351</ele>
        <time>2021-01-29T16:31:34Z</time>
      </trkpt>
      <trkpt lat="43.09563" lon="1.1978">
        <ele>350</ele>
        <time>2021-01-29T16:31:38Z</time>
      </trkpt>
      <trkpt lat="43.09558" lon="1.19669">
        <ele>347</ele>
        <time>2021-01-29T16:31:53Z</time>
      </trkpt>
      <trkpt lat="43.09569" lon="1.19461">
        <ele>345</ele>
        <time>2021-01-29T16:32:20Z</time>
      </trkpt>
      <trkpt lat="43.09581" lon="1.19407">
        <ele>339</ele>
        <time>2021-01-29T16:32:27Z</time>
      </trkpt>
      <trkpt lat="43.09604" lon="1.19357">
        <ele>340</ele>
        <time>2021-01-29T16:32:35Z</time>
      </trkpt>
      <trkpt lat="43.09701" lon="1.19242">
        <ele>336</ele>
        <time>2021-01-29T16:32:57Z</time>
      </trkpt>
      <trkpt lat="43.09781" lon="1.19167">
        <ele>331</ele>
        <time>2021-01-29T16:33:15Z</time>
      </trkpt>
      <trkpt lat="43.09838" lon="1.19112">
        <ele>328</ele>
        <time>2021-01-29T16:33:27Z</time>
      </trkpt>
      <trkpt lat="43.09892" lon="1.19087">
        <ele>325</ele>
        <time>2021-01-29T16:33:37Z</time>
      </trkpt>
      <trkpt lat="43.10018" lon="1.19053">
        <ele>327</ele>
        <time>2021-01-29T16:34:00Z</time>
      </trkpt>
      <trkpt lat="43.10237" lon="1.18898">
        <ele>330</ele>
        <time>2021-01-29T16:34:44Z</time>
      </trkpt>
      <trkpt lat="43.1031" lon="1.18868">
        <ele>326</ele>
        <time>2021-01-29T16:34:58Z</time>
      </trkpt>
      <trkpt lat="43.10385" lon="1.18852">
        <ele>324</ele>
        <time>2021-01-29T16:35:11Z</time>
      </trkpt>
      <trkpt lat="43.10445" lon="1.1885">
        <ele>323</ele>
        <time>2021-01-29T16:35:22Z</time>
      </trkpt>
      <trkpt lat="43.10481" lon="1.18856">
        <ele>324</ele>
        <time>2021-01-29T16:35:28Z</time>
      </trkpt>
      <trkpt lat="43.10649" lon="1.18886">
        <ele>326</ele>
        <time>2021-01-29T16:35:58Z</time>
      </trkpt>
      <trkpt lat="43.10673" lon="1.18887">
        <ele>326</ele>
        <time>2021-01-29T16:36:03Z</time>
      </trkpt>
      <trkpt lat="43.10764" lon="1.1888">
        <ele>321</ele>
        <time>2021-01-29T16:36:19Z</time>
      </trkpt>
      <trkpt lat="43.1081" lon="1.18884">
        <ele>322</ele>
        <time>2021-01-29T16:36:27Z</time>
      </trkpt>
      <trkpt lat="43.10899" lon="1.18906">
        <ele>320</ele>
        <time>2021-01-29T16:36:43Z</time>
      </trkpt>
      <trkpt lat="43.10937" lon="1.18915">
        <ele>320</ele>
        <time>2021-01-29T16:36:50Z</time>
      </trkpt>
      <trkpt lat="43.10997" lon="1.18909">
        <ele>320</ele>
        <time>2021-01-29T16:37:01Z</time>
      </trkpt>
      <trkpt lat="43.1125" lon="1.18743">
        <ele>321</ele>
        <time>2021-01-29T16:37:51Z</time>
      </trkpt>
      <trkpt lat="43.11559" lon="1.1854">
        <ele>312</ele>
        <time>2021-01-29T16:38:52Z</time>
      </trkpt>
      <trkpt lat="43.11567" lon="1.18535">
        <ele>312</ele>
        <time>2021-01-29T16:38:53Z</time>
      </trkpt>
      <trkpt lat="43.11657" lon="1.18476">
        <ele>317</ele>
        <time>2021-01-29T16:39:11Z</time>
      </trkpt>
      <trkpt lat="43.11671" lon="1.18468">
        <ele>318</ele>
        <time>2021-01-29T16:39:14Z</time>
      </trkpt>
      <trkpt lat="43.11697" lon="1.18462">
        <ele>317</ele>
        <time>2021-01-29T16:39:18Z</time>
      </trkpt>
      <trkpt lat="43.1172" lon="1.18458">
        <ele>317</ele>
        <time>2021-01-29T16:39:22Z</time>
      </trkpt>
      <trkpt lat="43.11756" lon="1.18477">
        <ele>318</ele>
        <time>2021-01-29T16:39:29Z</time>
      </trkpt>
      <trkpt lat="43.11799" lon="1.18489">
        <ele>319</ele>
        <time>2021-01-29T16:39:37Z</time>
      </trkpt>
      <trkpt lat="43.11845" lon="1.18478">
        <ele>318</ele>
        <time>2021-01-29T16:39:45Z</time>
      </trkpt>
      <trkpt lat="43.11875" lon="1.1846">
        <ele>318</ele>
        <time>2021-01-29T16:39:51Z</time>
      </trkpt>
      <trkpt lat="43.11962" lon="1.18355">
        <ele>311</ele>
        <time>2021-01-29T16:40:12Z</time>
      </trkpt>
      <trkpt lat="43.12089" lon="1.18213">
        <ele>313</ele>
        <time>2021-01-29T16:40:41Z</time>
      </trkpt>
      <trkpt lat="43.12155" lon="1.18168">
        <ele>311</ele>
        <time>2021-01-29T16:40:54Z</time>
      </trkpt>
      <trkpt lat="43.12236" lon="1.18123">
        <ele>310</ele>
        <time>2021-01-29T16:41:10Z</time>
      </trkpt>
      <trkpt lat="43.12311" lon="1.1808">
        <ele>310</ele>
        <time>2021-01-29T16:41:24Z</time>
      </trkpt>
      <trkpt lat="43.12341" lon="1.18053">
        <ele>312</ele>
        <time>2021-01-29T16:41:31Z</time>
      </trkpt>
      <trkpt lat="43.12369" lon="1.18012">
        <ele>313</ele>
        <time>2021-01-29T16:41:38Z</time>
      </trkpt>
      <trkpt lat="43.12441" lon="1.17894">
        <ele>315</ele>
        <time>2021-01-29T16:41:58Z</time>
      </trkpt>
      <trkpt lat="43.12465" lon="1.17839">
        <ele>314</ele>
        <time>2021-01-29T16:42:06Z</time>
      </trkpt>
      <trkpt lat="43.12479" lon="1.17794">
        <ele>313</ele>
        <time>2021-01-29T16:42:12Z</time>
      </trkpt>
      <trkpt lat="43.12499" lon="1.17698">
        <ele>308</ele>
        <time>2021-01-29T16:42:25Z</time>
      </trkpt>
      <trkpt lat="43.12504" lon="1.17673">
        <ele>308</ele>
        <time>2021-01-29T16:42:29Z</time>
      </trkpt>
      <trkpt lat="43.12513" lon="1.17625">
        <ele>308</ele>
        <time>2021-01-29T16:42:35Z</time>
      </trkpt>
      <trkpt lat="43.12516" lon="1.17613">
        <ele>308</ele>
        <time>2021-01-29T16:42:37Z</time>
      </trkpt>
      <trkpt lat="43.12521" lon="1.17601">
        <ele>308</ele>
        <time>2021-01-29T16:42:39Z</time>
      </trkpt>
      <trkpt lat="43.12534" lon="1.17583">
        <ele>309</ele>
        <time>2021-01-29T16:42:42Z</time>
      </trkpt>
      <trkpt lat="43.12542" lon="1.17569">
        <ele>309</ele>
        <time>2021-01-29T16:42:44Z</time>
      </trkpt>
      <trkpt lat="43.12545" lon="1.17556">
        <ele>308</ele>
        <time>2021-01-29T16:42:46Z</time>
      </trkpt>
      <trkpt lat="43.12546" lon="1.1754">
        <ele>307</ele>
        <time>2021-01-29T16:42:48Z</time>
      </trkpt>
      <trkpt lat="43.12542" lon="1.17507">
        <ele>304</ele>
        <time>2021-01-29T16:42:52Z</time>
      </trkpt>
      <trkpt lat="43.12539" lon="1.17477">
        <ele>304</ele>
        <time>2021-01-29T16:42:56Z</time>
      </trkpt>
      <trkpt lat="43.12524" lon="1.17467">
        <ele>303</ele>
        <time>2021-01-29T16:42:59Z</time>
      </trkpt>
    </trkseg>
  </trk>
</gpx>